[[{"header":{"parameterUnit":"m.s-1","parameterCategory":1,"la1":30.6,"la2":29.2853,"lo1":-89.7004,"lo2":-87.6739,"dy":0.0162,"dx":0.0183,"nx":112,"ny":82,"refTime":"2024-04-23T12:00:00:Z","depth":0,"parameterNumber":2,"parameterNumberName":"U-component_of_WINDS"},"data":[0.0,0.0,0.0,0.0,0.0,0.0,0.0,0.0,0.0,0.0,0.0,0.0,0.0,0.0,0.0,0.0,0.0,0.0,0.0,0.0,0.0,0.0,0.0,0.0,0.0,0.0,0.0,0.0,0.0,0.0,0.0,0.0,0.0,0.0,0.0,0.0,0.0,0.0,0.0,0.0,0.0,0.0,0.0,0.0,0.0,0.0,0.0,0.0,0.0,0.0,0.0,0.0,0.0,0.0,0.0,0.0,0.0,0.0,0.0,0.0,0.0,0.0,0.0,0.0,0.0,0.0,0.0,0.0,0.0,0.0,0.0,0.0,0.0,0.0,0.0,0.0,0.0,0.0,0.0,0.0,0.0,0.0,0.0,0.0,0.0,0.0,0.0,0.0,0.0,0.0,-5.5412,-5.5412,-5.5412,-5.5353,-5.5091,-5.5295,-5.5353,-5.5091,0.0,0.0,0.0,0.0,0.0,0.0,0.0,0.0,0.0,0.0,0.0,0.0,0.0,0.0,0.0,0.0,0.0,0.0,0.0,0.0,0.0,0.0,0.0,0.0,0.0,0.0,0.0,0.0,0.0,0.0,0.0,0.0,0.0,0.0,0.0,0.0,0.0,0.0,0.0,0.0,0.0,0.0,0.0,0.0,0.0,0.0,0.0,0.0,0.0,0.0,0.0,0.0,0.0,0.0,0.0,0.0,0.0,0.0,0.0,0.0,0.0,0.0,0.0,0.0,0.0,0.0,0.0,0.0,0.0,0.0,0.0,0.0,0.0,0.0,0.0,0.0,0.0,0.0,0.0,0.0,0.0,0.0,0.0,0.0,0.0,0.0,0.0,0.0,0.0,0.0,0.0,0.0,0.0,0.0,0.0,0.0,0.0,0.0,0.0,0.0,0.0,0.0,0.0,0.0,-5.5412,-5.5412,-5.5412,-5.4973,-5.3844,-5.4797,-5.4915,-5.3844,0.0,0.0,0.0,0.0,0.0,0.0,0.0,0.0,0.0,0.0,0.0,0.0,0.0,0.0,0.0,0.0,0.0,0.0,0.0,0.0,0.0,0.0,0.0,0.0,0.0,0.0,0.0,0.0,0.0,0.0,0.0,0.0,0.0,0.0,0.0,0.0,0.0,0.0,0.0,0.0,0.0,0.0,0.0,0.0,0.0,0.0,0.0,0.0,0.0,0.0,0.0,0.0,0.0,0.0,0.0,0.0,0.0,0.0,0.0,0.0,0.0,0.0,0.0,0.0,0.0,0.0,0.0,0.0,0.0,0.0,0.0,0.0,0.0,0.0,0.0,0.0,0.0,0.0,0.0,0.0,0.0,0.0,0.0,0.0,0.0,0.0,0.0,0.0,0.0,0.0,0.0,0.0,0.0,0.0,0.0,0.0,0.0,0.0,0.0,0.0,0.0,0.0,0.0,-5.3329,-5.3329,-5.3329,-5.3329,-5.3086,-5.2562,-5.3025,-5.3086,-5.25,-5.3025,0.0,0.0,0.0,0.0,0.0,0.0,0.0,0.0,0.0,0.0,0.0,0.0,0.0,0.0,0.0,0.0,0.0,0.0,0.0,0.0,0.0,0.0,0.0,0.0,0.0,0.0,0.0,0.0,0.0,0.0,0.0,0.0,0.0,0.0,0.0,0.0,0.0,0.0,0.0,0.0,0.0,0.0,0.0,0.0,0.0,0.0,0.0,0.0,0.0,0.0,0.0,0.0,0.0,0.0,0.0,0.0,0.0,0.0,0.0,0.0,0.0,0.0,0.0,0.0,0.0,0.0,0.0,0.0,0.0,0.0,0.0,0.0,0.0,0.0,0.0,0.0,0.0,0.0,0.0,0.0,0.0,0.0,0.0,0.0,0.0,0.0,0.0,0.0,0.0,0.0,0.0,0.0,0.0,0.0,0.0,0.0,0.0,0.0,0.0,0.0,0.0,0.0,-5.1596,-5.1596,-5.1596,-5.1596,-5.1596,-5.1596,-5.1596,-5.1596,-5.1596,-5.1596,0.0,0.0,0.0,0.0,0.0,0.0,0.0,0.0,0.0,0.0,0.0,0.0,0.0,0.0,0.0,0.0,0.0,0.0,0.0,0.0,0.0,0.0,0.0,0.0,0.0,0.0,0.0,0.0,0.0,0.0,0.0,0.0,0.0,0.0,0.0,0.0,0.0,0.0,0.0,0.0,0.0,0.0,0.0,0.0,0.0,0.0,0.0,0.0,0.0,0.0,0.0,0.0,0.0,0.0,0.0,0.0,0.0,0.0,0.0,0.0,0.0,0.0,0.0,0.0,0.0,0.0,0.0,0.0,0.0,0.0,0.0,0.0,0.0,0.0,0.0,0.0,0.0,0.0,0.0,0.0,0.0,0.0,0.0,0.0,0.0,0.0,0.0,0.0,0.0,0.0,0.0,0.0,0.0,0.0,0.0,0.0,0.0,0.0,0.0,0.0,0.0,0.0,-5.1596,-5.1596,-5.1596,-5.1596,-5.1596,-5.1596,-5.1596,-5.1596,-5.1596,-5.1596,0.0,0.0,0.0,0.0,0.0,0.0,0.0,0.0,0.0,0.0,0.0,0.0,0.0,0.0,0.0,0.0,0.0,0.0,0.0,0.0,0.0,0.0,0.0,0.0,0.0,0.0,0.0,0.0,0.0,0.0,0.0,0.0,0.0,0.0,0.0,0.0,0.0,0.0,0.0,0.0,0.0,0.0,0.0,0.0,0.0,0.0,0.0,0.0,0.0,0.0,0.0,0.0,0.0,0.0,0.0,0.0,0.0,0.0,0.0,0.0,0.0,0.0,0.0,0.0,0.0,0.0,0.0,0.0,0.0,0.0,0.0,0.0,0.0,0.0,0.0,0.0,0.0,0.0,0.0,0.0,0.0,0.0,0.0,0.0,0.0,0.0,0.0,0.0,0.0,0.0,0.0,0.0,0.0,0.0,0.0,0.0,0.0,0.0,0.0,0.0,0.0,0.0,-5.1596,-5.1596,-5.1596,-5.1596,-5.1596,-5.1596,-5.1596,-5.1596,-5.1596,0.0,0.0,0.0,0.0,0.0,0.0,0.0,0.0,0.0,0.0,0.0,0.0,0.0,0.0,0.0,0.0,0.0,0.0,0.0,0.0,0.0,0.0,0.0,0.0,0.0,0.0,0.0,0.0,0.0,0.0,0.0,0.0,0.0,0.0,0.0,0.0,0.0,0.0,0.0,0.0,0.0,0.0,0.0,0.0,0.0,0.0,0.0,0.0,0.0,0.0,0.0,0.0,0.0,0.0,0.0,0.0,0.0,0.0,0.0,0.0,0.0,0.0,0.0,0.0,0.0,0.0,0.0,0.0,0.0,0.0,0.0,0.0,0.0,0.0,0.0,0.0,0.0,0.0,0.0,0.0,0.0,0.0,0.0,0.0,0.0,0.0,0.0,0.0,0.0,0.0,0.0,0.0,0.0,0.0,0.0,0.0,0.0,0.0,0.0,0.0,0.0,0.0,-5.1596,-5.1596,-5.1596,-5.1596,-5.1596,-5.1596,-5.1596,-5.1596,-5.1596,-5.1596,0.0,0.0,0.0,0.0,0.0,0.0,0.0,0.0,0.0,0.0,0.0,0.0,0.0,0.0,0.0,0.0,0.0,0.0,0.0,0.0,0.0,0.0,0.0,0.0,0.0,0.0,0.0,0.0,0.0,0.0,0.0,0.0,0.0,0.0,0.0,0.0,0.0,0.0,0.0,0.0,0.0,0.0,0.0,0.0,0.0,0.0,0.0,0.0,0.0,0.0,0.0,0.0,0.0,0.0,0.0,0.0,0.0,0.0,0.0,0.0,0.0,0.0,0.0,0.0,0.0,0.0,0.0,0.0,0.0,0.0,0.0,0.0,0.0,0.0,0.0,0.0,0.0,0.0,0.0,0.0,0.0,0.0,0.0,0.0,0.0,0.0,0.0,0.0,0.0,0.0,0.0,0.0,0.0,0.0,0.0,0.0,0.0,0.0,0.0,0.0,0.0,0.0,-5.1596,-5.1596,-5.1596,-5.1596,-5.1596,-5.1596,-5.1596,-5.1596,-5.1596,0.0,0.0,0.0,0.0,0.0,0.0,0.0,0.0,0.0,0.0,0.0,0.0,0.0,0.0,0.0,0.0,0.0,0.0,0.0,0.0,0.0,0.0,0.0,0.0,0.0,0.0,0.0,0.0,0.0,0.0,0.0,0.0,0.0,0.0,0.0,0.0,0.0,0.0,0.0,0.0,0.0,0.0,0.0,0.0,0.0,0.0,0.0,0.0,0.0,0.0,0.0,0.0,0.0,0.0,0.0,0.0,0.0,0.0,0.0,0.0,0.0,0.0,0.0,0.0,0.0,0.0,0.0,0.0,0.0,0.0,0.0,0.0,0.0,0.0,0.0,0.0,0.0,0.0,0.0,0.0,0.0,0.0,0.0,0.0,0.0,0.0,0.0,0.0,0.0,0.0,0.0,0.0,0.0,0.0,0.0,0.0,0.0,0.0,0.0,0.0,0.0,0.0,0.0,-5.1596,-5.1408,-5.1372,-5.1596,-5.1596,-5.1596,-5.1596,-5.1596,-5.1596,-5.1596,0.0,0.0,0.0,0.0,0.0,0.0,0.0,0.0,0.0,0.0,0.0,0.0,0.0,0.0,0.0,0.0,0.0,0.0,0.0,0.0,0.0,0.0,0.0,0.0,0.0,0.0,0.0,0.0,0.0,0.0,0.0,0.0,0.0,0.0,0.0,0.0,0.0,0.0,0.0,0.0,0.0,0.0,0.0,0.0,0.0,0.0,0.0,0.0,0.0,0.0,0.0,0.0,0.0,0.0,0.0,0.0,0.0,0.0,0.0,0.0,0.0,0.0,0.0,0.0,0.0,0.0,0.0,0.0,0.0,0.0,0.0,0.0,0.0,0.0,0.0,0.0,0.0,0.0,0.0,0.0,0.0,0.0,0.0,0.0,0.0,0.0,0.0,0.0,0.0,0.0,0.0,0.0,0.0,0.0,0.0,0.0,0.0,0.0,0.0,0.0,0.0,0.0,-5.1157,-5.1031,-5.0994,-5.1157,-5.122,-5.122,-5.122,-5.122,-5.122,-5.122,0.0,0.0,0.0,0.0,0.0,0.0,0.0,0.0,0.0,0.0,0.0,0.0,0.0,0.0,0.0,0.0,0.0,0.0,0.0,0.0,0.0,0.0,0.0,0.0,0.0,0.0,0.0,0.0,0.0,0.0,0.0,0.0,0.0,0.0,0.0,0.0,0.0,0.0,0.0,0.0,0.0,0.0,0.0,0.0,0.0,0.0,0.0,0.0,0.0,0.0,0.0,0.0,0.0,0.0,0.0,0.0,0.0,0.0,0.0,0.0,0.0,0.0,0.0,0.0,0.0,0.0,0.0,0.0,0.0,0.0,0.0,0.0,0.0,0.0,0.0,0.0,0.0,0.0,0.0,0.0,0.0,0.0,0.0,0.0,0.0,0.0,0.0,0.0,0.0,0.0,0.0,0.0,0.0,0.0,0.0,0.0,0.0,0.0,0.0,0.0,0.0,0.0,-5.0665,-5.0639,-5.0588,-5.0588,-5.0588,-5.0588,-5.0588,-5.0588,-5.0588,-5.0588,0.0,0.0,0.0,0.0,0.0,0.0,0.0,0.0,0.0,0.0,0.0,0.0,0.0,0.0,0.0,0.0,0.0,0.0,0.0,0.0,0.0,0.0,0.0,0.0,0.0,0.0,0.0,0.0,0.0,0.0,0.0,0.0,0.0,0.0,0.0,0.0,0.0,0.0,0.0,0.0,0.0,0.0,0.0,0.0,0.0,0.0,0.0,0.0,0.0,0.0,0.0,0.0,0.0,0.0,0.0,0.0,0.0,0.0,0.0,0.0,-5.4376,-5.4645,0.0,0.0,0.0,0.0,0.0,0.0,0.0,0.0,0.0,0.0,0.0,0.0,0.0,0.0,0.0,0.0,0.0,0.0,0.0,0.0,0.0,0.0,0.0,0.0,0.0,0.0,0.0,0.0,0.0,0.0,0.0,0.0,0.0,0.0,0.0,0.0,0.0,0.0,0.0,0.0,-5.119,-5.064,-5.0295,-5.0588,-5.0588,-5.0588,-5.0588,-5.0588,-5.0588,-5.0588,-5.0677,0.0,0.0,0.0,0.0,0.0,0.0,0.0,0.0,0.0,0.0,0.0,0.0,0.0,0.0,0.0,0.0,0.0,0.0,0.0,0.0,0.0,0.0,0.0,0.0,0.0,0.0,0.0,0.0,0.0,0.0,0.0,0.0,0.0,0.0,0.0,0.0,0.0,0.0,0.0,0.0,0.0,0.0,0.0,0.0,0.0,0.0,0.0,0.0,0.0,0.0,0.0,0.0,0.0,0.0,0.0,0.0,0.0,0.0,0.0,-5.4064,-5.4241,0.0,0.0,0.0,0.0,0.0,0.0,0.0,0.0,0.0,0.0,0.0,0.0,0.0,0.0,0.0,0.0,0.0,0.0,0.0,0.0,0.0,0.0,0.0,0.0,0.0,0.0,0.0,0.0,0.0,0.0,0.0,0.0,0.0,0.0,0.0,0.0,0.0,0.0,0.0,0.0,-5.0901,-5.0493,-5.0215,-5.0129,-5.0104,-5.0104,-5.0104,-5.0104,-5.0104,-5.0104,-5.0295,0.0,0.0,0.0,0.0,0.0,0.0,0.0,0.0,0.0,0.0,0.0,0.0,0.0,0.0,0.0,0.0,0.0,0.0,0.0,0.0,0.0,0.0,0.0,0.0,0.0,0.0,0.0,0.0,0.0,0.0,0.0,0.0,0.0,0.0,0.0,0.0,0.0,0.0,0.0,0.0,0.0,0.0,0.0,0.0,0.0,0.0,0.0,0.0,0.0,0.0,0.0,0.0,0.0,-5.3793,-5.3793,-5.3793,-5.3793,-5.3657,-5.341,-5.3657,-5.3861,-5.3929,-5.3929,0.0,0.0,0.0,0.0,0.0,0.0,0.0,0.0,0.0,0.0,0.0,0.0,0.0,0.0,0.0,0.0,0.0,0.0,0.0,0.0,0.0,0.0,-5.2929,-5.2929,-5.2929,-5.2998,-5.3341,0.0,0.0,0.0,0.0,0.0,0.0,0.0,0.0,0.0,0.0,0.0,-5.077,-5.0619,-5.0393,-4.9941,-4.9891,-4.9841,-4.9741,-4.9741,-4.969,-4.9615,-4.9847,-4.9847,0.0,0.0,0.0,0.0,0.0,0.0,0.0,0.0,0.0,0.0,0.0,0.0,0.0,0.0,0.0,0.0,0.0,0.0,0.0,0.0,0.0,0.0,0.0,0.0,0.0,0.0,0.0,0.0,0.0,0.0,0.0,0.0,-5.4064,-5.3997,0.0,0.0,0.0,0.0,0.0,0.0,0.0,0.0,0.0,0.0,0.0,0.0,0.0,-5.3861,-5.3546,-5.3546,-5.341,-5.3067,-5.3067,-5.3067,-5.3067,-5.3067,-5.2998,-5.2998,-5.2998,0.0,-5.3546,-5.3546,0.0,0.0,0.0,0.0,0.0,0.0,0.0,0.0,0.0,0.0,0.0,0.0,0.0,0.0,0.0,0.0,0.0,0.0,0.0,0.0,0.0,0.0,-5.2929,-5.2929,-5.2929,-5.2929,-5.2998,-5.2929,-5.2929,-5.2929,-5.2929,-5.2904,0.0,0.0,0.0,0.0,0.0,0.0,-5.19,-5.1473,-5.1147,-5.1071,-5.1071,-5.0845,-5.0343,-5.0318,-5.0117,-4.9615,-4.9654,-4.9654,-4.959,-4.9654,0.0,0.0,0.0,0.0,0.0,0.0,0.0,0.0,0.0,0.0,0.0,0.0,0.0,0.0,0.0,0.0,0.0,0.0,0.0,0.0,0.0,0.0,0.0,0.0,0.0,0.0,0.0,0.0,0.0,-5.3521,-5.3384,-5.3384,-5.3589,-5.3614,0.0,0.0,0.0,0.0,0.0,0.0,0.0,0.0,0.0,-5.3384,-5.3384,-5.3316,-5.3136,-5.3136,-5.3067,-5.2929,-5.2929,-5.2929,-5.2929,-5.2929,-5.2929,-5.2929,-5.2929,-5.2998,-5.3136,-5.3136,-5.3273,-5.3384,0.0,0.0,0.0,0.0,-5.3273,-5.3067,-5.2164,-5.1747,-5.1443,-5.06,0.0,0.0,0.0,0.0,0.0,0.0,0.0,-5.1233,-4.97,-5.1093,-5.2698,-5.1816,-5.2258,-5.2929,-5.2929,-5.2929,-5.2929,-5.2929,-5.2929,-5.2929,-5.2929,-5.2929,0.0,0.0,0.0,-5.2452,-5.2151,-5.19,-5.1624,-5.1322,-5.1272,-5.1172,-5.0921,-5.0896,-5.0795,-5.0544,-5.0243,-5.0067,-5.0067,-4.9766,-4.959,0.0,0.0,0.0,0.0,0.0,0.0,0.0,0.0,0.0,0.0,0.0,0.0,0.0,0.0,0.0,0.0,0.0,0.0,0.0,0.0,0.0,0.0,0.0,0.0,0.0,0.0,0.0,0.0,-5.3067,-5.2929,-5.2929,-5.3136,-5.3204,0.0,0.0,0.0,0.0,0.0,0.0,-5.3341,-5.3067,-5.2929,-5.2929,-5.2929,-5.2929,-5.2929,-5.2929,-5.2929,-5.2929,-5.2929,-5.2929,-5.2929,-5.2929,-5.2929,-5.2929,-5.2929,-5.2929,-5.2929,-5.2929,-5.2929,-5.2929,-5.2929,-5.2929,-5.2929,-5.2929,-5.2929,-5.2698,-5.1607,-5.0928,-5.0434,-4.9271,-4.9415,-4.9985,-4.9985,0.0,0.0,0.0,0.0,-4.9629,-4.8118,-5.0009,-5.1886,-5.0363,-5.1163,-5.2189,-5.1841,-5.205,-5.2421,-5.2861,-5.2929,-5.2929,-5.2929,-5.2929,0.0,-5.2929,-5.2929,-5.2779,-5.2377,-5.2327,-5.2151,-5.1749,-5.1699,-5.1649,-5.1498,-5.1498,-5.1423,-5.1297,-5.087,-5.0645,-5.0645,-5.0092,-4.9816,-4.9816,0.0,0.0,0.0,0.0,0.0,0.0,0.0,0.0,0.0,0.0,0.0,0.0,0.0,0.0,0.0,0.0,0.0,0.0,0.0,0.0,0.0,0.0,0.0,0.0,0.0,0.0,0.0,0.0,0.0,-5.2929,-5.2929,0.0,0.0,0.0,0.0,-5.2929,-5.2929,-5.2929,-5.2929,-5.2929,-5.2929,-5.2929,-5.2929,-5.2929,-5.2929,-5.2929,-5.2929,-5.2929,-5.2929,-5.2929,-5.2929,-5.2929,-5.2929,-5.2929,-5.2929,-5.2929,-5.2929,-5.2929,-5.2929,-5.2929,-5.2929,-5.2929,-5.2929,-5.2929,-5.2929,-5.2861,-5.2792,-5.1816,-5.0576,-5.0505,-4.9557,-4.8407,-4.8407,-4.8407,0.0,0.0,-4.7243,-4.8045,-4.6433,-4.8384,-5.0363,-4.8768,-4.9557,-5.0293,-4.884,-4.97,-5.1163,-5.2629,-5.2929,-5.2929,-5.2929,0.0,-5.2929,-5.2929,-5.2929,-5.2929,-5.2879,-5.2879,-5.2879,-5.2854,-5.2854,-5.2628,-5.2101,-5.2076,-5.185,-5.1322,-5.1247,-5.1247,-5.1247,-5.0695,-5.0368,-5.0368,-4.9866,0.0,0.0,0.0,0.0,0.0,0.0,0.0,0.0,0.0,0.0,0.0,0.0,0.0,0.0,0.0,0.0,0.0,0.0,0.0,0.0,0.0,0.0,0.0,0.0,0.0,0.0,0.0,0.0,-5.2929,-5.2929,0.0,-5.2929,-5.2929,-5.2929,-5.2929,-5.2929,-5.2929,-5.2929,-5.2929,-5.2929,-5.2929,-5.2929,-5.2929,-5.2929,-5.2929,-5.2929,-5.2929,-5.2929,-5.2396,-5.1443,-5.2491,-5.1841,-5.0009,-5.1022,-5.0882,-4.9938,-4.9938,-5.1093,-5.2929,-5.2929,-5.2929,-5.2792,-5.1816,-5.1443,-5.1303,-5.0293,-4.8912,-4.7585,-4.7585,-4.722,-4.6949,-4.7972,-4.7608,-4.6655,-4.6063,-4.6285,-4.6359,-4.4838,-4.6728,-4.8696,-4.7169,-4.7972,-4.8984,-4.8407,-4.8768,-4.9271,-4.9866,-5.1537,-5.2929,-5.2929,-5.2929,-5.2929,-5.2929,-5.2929,-5.2929,-5.2929,-5.2929,-5.2929,-5.2929,-5.2929,-5.2854,-5.2653,-5.2628,-5.2553,-5.2352,-5.2,-5.18,-5.18,-5.1272,-5.0971,-5.0971,-4.9537,-4.8778,0.0,0.0,0.0,0.0,0.0,0.0,0.0,0.0,0.0,0.0,0.0,0.0,0.0,0.0,0.0,0.0,0.0,0.0,0.0,0.0,0.0,0.0,0.0,0.0,0.0,-5.2929,-5.2929,-5.2929,-5.2929,-5.2929,-5.2929,-5.2929,-5.2929,-5.2929,-5.2929,-5.2929,-5.2929,-5.2929,-5.2929,-5.2929,-5.2421,-5.2119,-5.2119,-5.2119,-5.2119,-5.2119,-5.2629,-5.2327,-5.1373,-5.2421,-5.1467,-4.9128,-5.0127,-4.97,-4.8335,-4.8335,-4.951,-5.1327,-5.1327,-5.1327,-5.1233,-5.0222,-4.9843,-4.9629,-4.8045,-4.6802,-4.5766,-4.5266,-4.5116,-4.5341,-4.6381,-4.6011,-4.5116,-4.5116,-4.5116,-4.4913,-4.3898,-4.5565,-4.7096,-4.549,-4.6359,-4.7316,-4.6802,-4.7096,-4.7462,-4.7462,-5.0009,-5.2119,-5.2119,-5.256,-5.2929,-5.2929,-5.2929,-5.2929,-5.2929,-5.2929,-5.2929,-5.2929,-5.2929,-5.2929,-5.2929,-5.2929,-5.2929,-5.2929,-5.2578,-5.2377,-5.2377,-5.185,-5.1548,-5.1548,-4.9542,-4.8212,-4.7735,0.0,0.0,0.0,0.0,0.0,0.0,0.0,0.0,0.0,0.0,0.0,0.0,0.0,0.0,0.0,0.0,0.0,0.0,0.0,0.0,0.0,0.0,0.0,-5.2929,-5.2929,-5.2929,-5.2929,-5.2929,-5.2929,-5.2929,-5.2929,-5.2929,-5.2929,-5.2929,-5.2861,-5.2861,-5.2861,-5.2861,-5.2861,-5.1373,-5.0646,-5.067,-5.067,-5.06,-5.0694,-5.2099,-5.2773,-5.2748,-5.2773,-5.196,-5.0411,-5.0482,-4.9605,-4.8236,-4.814,-4.8213,-4.8213,-4.8263,-4.8335,-4.8263,-4.8263,-4.8263,-4.7972,-4.6359,-4.5841,-4.5639,-4.4125,-4.3615,-4.3615,-4.3615,-4.3615,-4.3615,-4.3615,-4.3615,-4.3615,-4.3615,-4.4687,-4.5415,-4.3974,-4.4762,-4.5415,-4.3898,-4.4762,-4.5841,-4.5841,-4.8312,-5.0481,-5.0505,-5.1816,-5.2861,-5.2861,-5.2861,0.0,-5.2929,-5.2929,-5.2929,-5.2929,-5.2929,-5.2861,-5.2861,-5.2861,-5.2792,-5.2792,-5.2792,-5.2792,-5.2792,-5.2266,-5.1965,-5.1897,-4.9874,-4.8049,-4.6559,0.0,0.0,0.0,0.0,0.0,0.0,0.0,0.0,0.0,0.0,0.0,0.0,0.0,0.0,0.0,0.0,0.0,0.0,0.0,0.0,0.0,-5.2929,-5.2929,-5.2929,-5.2929,-5.2929,-5.2929,-5.2929,-5.2929,-5.2929,-5.2929,-5.2929,-5.2929,-5.2929,-5.2421,-5.1303,-5.1233,-5.1233,-5.1233,-5.0787,-5.1333,-5.2804,-5.1651,-5.1273,-5.1658,-5.0908,-4.9956,-4.8919,-5.0029,-4.9068,-4.6626,-4.772,-4.7364,-4.586,-4.5498,-4.5446,-4.5631,-4.7524,-4.8335,-4.819,-4.7023,-4.6581,-4.6359,-4.4762,-4.4988,-4.5639,-4.4125,-4.3615,-4.3615,-4.3615,-4.3615,-4.3615,-4.3615,-4.3615,-4.3615,-4.3615,-4.3898,-4.4125,-4.3691,-4.3898,-4.4125,-4.3691,-4.3898,-4.4256,-4.4256,-4.5862,-4.7585,-4.8768,-5.0222,-5.1233,-5.1233,-5.1233,-5.1677,-5.2792,-5.2929,-5.2929,-5.2929,-5.2929,-5.2491,-5.1303,-5.1233,-5.0717,-4.9652,-4.9557,-4.9557,-4.9557,-4.944,-4.8683,-4.717,-4.6604,-4.5855,0.0,0.0,0.0,0.0,0.0,0.0,0.0,0.0,0.0,0.0,0.0,0.0,0.0,0.0,0.0,0.0,0.0,0.0,0.0,0.0,0.0,0.0,-5.2929,-5.2929,-5.2929,-5.2929,-5.2929,-5.2929,-5.2929,-5.2929,-5.2929,-5.2929,-5.2629,-5.198,-5.1956,-5.1611,-5.0959,-5.0983,-5.1364,-5.2269,-5.0938,-5.1154,-5.3091,-5.0811,-5.0146,-5.1114,-5.0053,-4.9155,-4.8271,-4.9155,-4.8271,-4.6033,-4.6939,-4.642,-4.4981,-4.4712,-4.4588,-4.4681,0.0,0.0,0.0,0.0,-4.4913,-4.4838,-4.3898,-4.4201,-4.4762,-4.3898,-4.3615,-4.3615,-4.3615,-4.3615,-4.3615,-4.3615,-4.3615,-4.3615,-4.3615,-4.3615,-4.3615,-4.3615,-4.3615,-4.3615,-4.3615,-4.3615,-4.3615,-4.3615,-4.4838,0.0,-4.6307,-4.819,-4.9629,-4.9629,-4.9629,-4.9938,-5.0882,-5.0952,-5.1233,-5.1886,-5.1397,-5.0882,-5.0646,-4.9985,0.0,0.0,0.0,-4.8335,-4.8335,-4.8335,0.0,0.0,0.0,-4.5097,-4.408,-4.3888,0.0,0.0,-4.3845,-4.3933,0.0,0.0,0.0,0.0,0.0,0.0,0.0,0.0,0.0,0.0,0.0,0.0,0.0,0.0,0.0,0.0,-5.2629,-5.2698,-5.2861,-5.2629,-5.2491,-5.2861,-5.2929,-5.2861,-5.2629,-5.2629,-5.2005,-5.0506,-5.0577,-5.0746,-5.0913,-5.1154,0.0,0.0,0.0,-5.0416,-5.2088,-4.9004,-4.8332,-4.9821,-4.9496,-4.942,-4.942,-4.942,-4.8682,-4.732,-4.732,-4.6564,-4.5291,-4.5188,-4.5084,-4.4919,-4.4091,-4.376,-4.376,-4.376,-4.376,-4.376,-4.376,0.0,0.0,-4.3698,-4.3698,-4.3677,-4.3635,-4.3615,-4.3615,-4.3615,-4.3615,-4.3615,-4.3677,-4.3698,-4.3698,-4.376,-4.376,-4.376,-4.376,-4.376,-4.376,-4.376,-4.4857,-4.5363,-4.3989,-4.6151,-4.8045,-4.8045,-4.8045,-4.8118,-4.8263,-4.8335,-4.884,-5.0198,-4.9128,0.0,-4.9985,-4.884,-4.7972,-4.7754,-4.7754,-4.7754,-4.7754,-4.7754,-4.7096,-4.5639,-4.5639,-4.4988,-4.3615,-4.3201,-4.2994,-4.2994,-4.3812,-4.4135,0.0,0.0,0.0,0.0,0.0,0.0,0.0,0.0,0.0,0.0,0.0,0.0,0.0,0.0,0.0,-5.1233,-5.0998,-5.1443,-5.2698,-5.0741,-5.008,-5.2629,-5.2929,-5.2421,-5.1163,-5.0998,-5.0531,-4.9325,-5.0459,-5.0334,-4.8191,-4.9393,-4.9663,-4.8726,-4.8519,-4.9282,-5.1278,-4.9695,-4.9322,-5.0117,-4.8747,0.0,-4.8096,-4.8096,-4.7872,-4.7626,-4.7626,-4.7483,-4.7113,-4.6389,-4.5643,-4.4981,-4.4795,-4.4733,-4.4733,-4.4733,-4.4733,-4.4733,-4.4733,-4.4733,-4.467,-4.4298,-4.4174,-4.4091,-4.3718,-4.3615,0.0,-4.3615,-4.3615,-4.3698,-4.407,-4.4174,-4.4256,-4.4629,-4.4733,-4.4733,-4.4733,-4.4733,-4.4733,-4.4733,-4.4946,-4.5101,-4.4811,-4.5653,-4.6359,-4.6359,-4.6359,-4.6802,-4.8118,-4.8335,-4.8407,-4.8696,-4.848,-4.79,-4.6853,-4.6507,-4.5862,-4.4558,-4.4482,-4.4482,-4.4482,-4.4482,-4.4331,-4.405,-4.405,-4.3898,-4.3615,-4.3532,-4.347,-4.3449,-4.2918,-4.2522,0.0,0.0,0.0,0.0,0.0,0.0,0.0,0.0,0.0,0.0,0.0,-5.2421,-5.0857,0.0,-5.2421,-5.0857,-5.0576,-5.0576,-5.06,-4.9271,-4.9128,-5.1443,-5.1093,-5.0388,-4.9839,-5.0508,-5.0147,-4.8224,-4.9684,-4.9858,-4.8133,-4.8852,-4.9461,-4.9953,-4.9377,-5.0016,-5.1793,-4.9598,-4.9068,-5.0202,-4.8501,-4.7693,-4.7693,-4.7693,-4.7693,-4.7693,-4.7693,-4.7693,-4.7651,-4.7196,-4.674,-4.6347,-4.6347,-4.5788,-4.5002,-4.5002,-4.5002,-4.5002,-4.5002,-4.5002,-4.496,-4.4733,-4.465,-4.4608,-4.4381,-4.4298,-4.4298,-4.4298,-4.4298,-4.436,-4.4588,-4.465,-4.4712,-4.494,-4.5002,-4.5002,-4.5002,-4.5002,-4.5002,-4.5002,-4.5002,-4.5002,-4.5002,-4.5286,-4.5486,-4.5486,-4.5486,-4.5684,-4.6255,-4.6308,-4.6497,-4.7045,-4.6455,-4.5937,-4.5915,-4.5191,-4.4407,-4.3691,-4.3615,-4.3615,-4.3615,-4.3386,-4.331,-4.331,-4.3081,-4.2984,-4.2984,-4.2984,-4.2984,-4.2984,-4.2535,-4.233,0.0,0.0,0.0,0.0,0.0,0.0,0.0,-5.2929,-5.256,-5.1303,-5.205,-5.2352,-5.0505,-5.1677,-5.2189,-5.0056,-4.9914,-4.9843,-4.8912,-4.8064,-4.8182,-5.0056,-4.9196,-4.8607,-4.9015,-5.0039,-4.9633,-4.731,-4.8637,-4.9292,-4.8663,-4.8866,-4.9853,-5.1568,-5.0512,-5.0474,-5.1747,-4.927,-4.8692,-4.9994,-4.8609,-4.7962,-4.7962,-4.7962,-4.7962,-4.7962,-4.7962,-4.79,-4.7817,-4.7817,-4.7755,-4.7693,-4.7693,-4.6803,-4.5498,-4.5416,-4.5395,-4.5374,-4.5291,-4.525,-4.525,-4.5147,-4.5126,-4.5105,-4.5022,-4.5002,-4.5002,-4.5002,-4.5002,-4.5022,-4.5105,-4.5126,-4.5147,-4.5229,-4.525,-4.525,-4.525,-4.525,-4.525,-4.525,-4.525,-4.525,-4.525,-4.525,-4.5188,-4.5022,-4.5002,-4.4857,-4.4484,-4.4443,-4.474,-4.5664,-4.4605,-4.4356,-4.5492,-4.4319,-4.3462,-4.3462,-4.3386,-4.3386,-4.3462,-4.3081,-4.2927,-4.3004,-4.2621,-4.237,-4.237,-4.237,-4.237,-4.237,-4.2293,-4.2467,-5.2929,-5.2929,-5.2929,-5.2929,-5.2929,-5.2929,0.0,-5.2929,-5.2861,-5.2698,-5.2792,-5.198,-4.9056,-5.0952,-5.1467,-4.7169,-4.7608,-4.8984,-5.0198,-4.7106,-4.5836,-4.8758,-4.8905,-4.9038,-4.964,-4.8485,-4.7375,-4.6521,-4.7978,-4.8605,-4.7879,-4.9235,-4.9523,-4.8336,-4.8484,-4.8714,-4.8861,-4.8962,-4.9085,-4.9255,-4.8999,-4.8914,-4.8914,-4.8914,-4.8914,-4.8914,-4.8914,-4.8686,-4.8293,-4.8293,-4.8065,-4.7693,-4.7693,-4.7568,-4.7341,-4.6947,-4.6803,-4.6761,-4.6347,-4.6122,-4.614,-4.5726,-4.5602,-4.5519,-4.5126,-4.5002,-4.5002,-4.5002,-4.5002,-4.5084,-4.5498,-4.5602,-4.5705,-4.6099,-4.6122,-4.6122,-4.6122,-4.6122,-4.6122,-4.6122,-4.6122,-4.6122,-4.6122,-4.6122,-4.5912,-4.5126,-4.5002,-4.4981,-4.4919,-4.4919,-4.4976,-4.5071,-4.4914,-4.4748,-4.4488,-4.3613,-4.3101,-4.3101,-4.2754,-4.2677,-4.3081,-4.2697,-4.2621,-4.3004,-4.2621,-4.237,-4.237,-4.237,-4.237,-4.237,-4.1985,-4.1927,-5.2929,-5.2929,-5.2929,-5.2929,-5.2929,-5.2929,-5.2929,-5.2929,-5.2629,-5.1747,-5.2258,-5.198,-4.884,-5.0811,-5.1677,-4.79,-4.8855,-4.9717,-4.8456,-4.6993,-4.6646,-4.8284,-4.7805,-4.7437,-4.745,-4.7822,-4.7727,-4.6781,-4.8494,-4.9167,-4.8128,-4.8735,-4.8944,-4.8564,-4.8686,-4.8769,-4.8769,-4.8976,-4.9059,-4.9059,-4.9059,-4.9059,-4.9059,-4.9059,-4.9059,-4.9059,-4.9059,-4.8955,-4.8769,-4.8769,-4.8666,-4.8479,-4.8479,-4.8479,-4.8396,-4.7672,-4.7424,-4.7382,-4.7196,-4.7113,-4.7092,-4.6906,-4.6844,-4.6803,-4.6616,-4.6554,-4.6554,-4.6554,-4.6368,-4.6223,-4.643,-4.6264,-4.6119,-4.6225,-4.6266,-4.6266,-4.6266,-4.6266,-4.6266,-4.6266,-4.6266,-4.6266,-4.5942,-4.5942,-4.5738,-4.5128,-4.5468,-4.5685,-4.5436,-4.5395,-4.5212,-4.4629,-4.4588,-4.4506,-4.4321,-4.3746,-4.3366,-4.3433,-4.3005,-4.2729,-4.2621,-4.2236,-4.2159,-4.2313,-4.1927,-4.1695,-4.1695,-4.1695,-4.1695,-4.1695,-4.154,-4.1483,-5.2929,-5.2929,-5.2929,-5.2929,-5.2929,-5.2929,-5.2929,-5.2929,-5.256,-5.1443,-5.1747,-5.1607,-4.9343,-5.0741,-5.1282,-4.8301,-4.9424,-4.9777,-4.7135,-4.6886,-4.7229,-4.8174,-4.7187,-4.6451,-4.6264,-4.7623,-4.8166,-4.7444,-4.8831,-4.9379,-4.8626,-4.8562,-4.8728,-4.9059,-4.9183,-4.9245,-4.9245,-4.9369,-4.9431,-4.9431,-4.9431,-4.9431,-4.9431,-4.9431,-4.9431,-4.9431,-4.9307,-4.9245,-4.9245,-4.9121,-4.9059,-4.9059,-4.9059,-4.9059,-4.8976,-4.8314,-4.7982,-4.7858,-4.7734,-4.7693,-4.7693,-4.7693,-4.7693,-4.7693,-4.7693,-4.7693,-4.7693,-4.7693,-4.7465,-4.7217,-4.7217,-4.6968,-4.672,-4.672,-4.672,-4.672,-4.672,-4.6556,-4.6475,-4.6475,-4.6393,-4.6188,-4.5759,-4.5739,-4.5514,-4.5066,-4.5535,-4.5819,-4.5511,-4.555,-4.5246,-4.46,-4.4378,-4.4297,-4.4297,-4.3878,-4.3498,-4.349,-4.3078,-4.2721,-4.2416,-4.2029,-4.1814,-4.1773,-4.1405,-4.1172,-4.1172,-4.1172,-4.1172,-4.1172,-4.1172,-4.1172,-5.2929,-5.2929,-5.2929,-5.2929,-5.2929,-5.2929,-5.2929,-5.2929,-5.2861,-5.2861,-5.1677,-5.0646,-5.0576,-5.0646,-4.9794,-4.7074,-4.7962,-4.8588,-4.7444,-4.6435,-4.6447,-4.846,-4.7673,-4.7175,-4.7589,-4.7714,-4.7921,-4.8293,-4.8419,-4.8647,-4.9017,-4.9038,-4.9059,-4.9059,-4.9494,-4.9742,-4.9742,-5.0156,-5.0384,-5.0384,-5.0384,-5.0384,-5.0384,-5.0384,-5.0384,-5.0363,-4.9928,-4.9742,-4.9701,-4.9245,-4.9059,-4.9059,-4.9059,-4.9059,-4.9059,-4.9038,-4.8748,-4.8293,-4.7838,-4.7693,-4.7693,-4.7693,-4.7693,-4.7693,-4.7693,-4.7693,-4.7693,-4.7693,-4.7672,-4.7672,-4.7672,-4.7651,-4.7651,-4.7651,-4.7651,-4.7651,-4.7651,-4.7318,-4.7004,-4.7004,-4.6585,-4.6192,-4.577,-4.5689,-4.5549,-4.5024,-4.5046,-4.5046,-4.5025,-4.5025,-4.5025,-4.5005,-4.4623,-4.4382,-4.4382,-4.364,-4.3141,-4.3141,-4.2642,-4.2366,-4.2407,-4.2014,-4.1817,-4.1773,-4.1405,-4.1172,-4.1172,-4.1172,-4.1172,-4.1172,-4.1172,-4.1172,-5.2929,-5.2929,-5.2929,-5.2929,-5.2929,-5.2929,-5.2929,-5.2929,-5.2929,-5.2929,-5.2765,-5.2333,-5.1318,-5.1393,-5.0933,-4.9055,-4.9426,-4.9473,-4.7992,-4.8028,-4.8051,-4.7656,-4.7796,-4.7982,-4.8127,-4.8148,-4.821,-4.8355,-4.8666,-4.8893,-4.9059,-4.9435,-4.9514,-4.9514,-4.997,-5.0197,-5.0197,-5.0342,-5.0425,-5.0425,-5.0425,-5.0425,-5.0425,-5.0425,-5.0425,-5.0404,-5.0259,-5.0197,-5.0177,-5.0032,-4.997,-4.9928,-4.9638,-4.9514,-4.9494,-4.9183,-4.8955,-4.881,-4.8666,-4.8603,-4.8603,-4.8603,-4.8603,-4.8603,-4.8603,-4.8603,-4.8603,-4.8603,-4.8376,-4.8064,-4.7811,-4.7438,-4.7129,-4.6857,-4.6773,-4.6773,-4.6773,-4.6626,-4.6542,-4.6542,-4.6458,-4.6145,-4.5772,-4.5733,-4.5425,-4.4739,-4.4835,-4.4964,-4.4964,-4.4964,-4.4882,-4.4616,-4.4496,-4.4397,-4.4397,-4.385,-4.347,-4.3517,-4.3094,-4.2737,-4.2386,-4.2287,-4.2228,-4.223,-4.2071,-4.2012,-4.2012,-4.1719,-4.1582,-4.1582,-4.1308,-4.1172,-5.2929,-5.2929,-5.2929,-5.2929,-5.2929,-5.2929,-5.2929,-5.2929,-5.2929,-5.2929,-5.2889,-5.2604,-5.1584,-5.1343,-5.0791,-4.9428,-5.0087,-5.0036,-4.7913,-4.8901,-4.9221,-4.7651,-4.8024,-4.8438,-4.8603,-4.8624,-4.8624,-4.8624,-4.9059,-4.9307,-4.9307,-4.9742,-4.999,-4.999,-5.0425,-5.0673,-5.0673,-5.0839,-5.0922,-5.0922,-5.0922,-5.0922,-5.0922,-5.0922,-5.0922,-5.0901,-5.0736,-5.0673,-5.0653,-5.0487,-5.0425,-5.0384,-5.0115,-4.999,-4.997,-4.9659,-4.9452,-4.9287,-4.9121,-4.9059,-4.9059,-4.9059,-4.9059,-4.9059,-4.9059,-4.9059,-4.9059,-4.9059,-4.8767,-4.8369,-4.8029,-4.7569,-4.7196,-4.6836,-4.6751,-4.6751,-4.6751,-4.6666,-4.6581,-4.6581,-4.641,-4.62,-4.5805,-4.5562,-4.5281,-4.4668,-4.4793,-4.4912,-4.4594,-4.4554,-4.4452,-4.4205,-4.4123,-4.4123,-4.4123,-4.3876,-4.3656,-4.3709,-4.3464,-4.3105,-4.2676,-4.2656,-4.2578,-4.2422,-4.2422,-4.2422,-4.2422,-4.2148,-4.2031,-4.2012,-4.1758,-4.1621,-5.2929,-5.2929,-5.2929,-5.2929,-5.2929,-5.2929,-5.2929,-5.2929,-5.2929,-5.2929,-5.2189,-5.1537,-5.1489,-5.0684,-4.9556,-4.8366,-4.9862,-5.0177,-4.7356,-4.8862,-4.9721,-4.8566,-4.8396,-4.8583,-4.9017,-4.908,-4.91,-4.91,-4.9601,-4.9763,-4.9783,-5.0218,-5.0466,-5.0466,-5.0901,-5.115,-5.115,-5.1584,-5.1791,-5.1791,-5.1791,-5.1791,-5.1791,-5.1791,-5.1791,-5.1771,-5.1336,-5.115,-5.1108,-5.0673,-5.0487,-5.0487,-5.0466,-5.0466,-5.0446,-5.0425,-5.0156,-4.9721,-4.9287,-4.91,-4.9059,-4.9059,-4.9059,-4.9059,-4.9059,-4.9059,-4.9059,-4.9059,-4.8802,-4.8458,-4.8372,-4.8027,-4.7701,-4.7615,-4.7615,-4.7615,-4.7615,-4.7268,-4.7007,-4.7007,-4.6571,-4.6172,-4.5781,-4.5371,-4.5078,-4.5058,-4.5058,-4.4746,-4.3848,-4.373,-4.373,-4.3711,-4.3711,-4.3711,-4.3711,-4.3711,-4.3711,-4.3711,-4.3711,-4.3535,-4.3125,-4.3105,-4.291,-4.25,-4.25,-4.25,-4.25,-4.2461,-4.2461,-4.2461,-4.2441,-4.2422,-5.2929,-5.2929,-5.2929,-5.2929,-5.2929,-5.2929,-5.2929,-5.2929,-5.2929,-5.2929,-5.3378,-5.3744,-5.3744,-5.3156,-5.2241,-5.0702,-5.0221,-4.925,-4.7255,-4.8108,-4.8735,-4.8439,-4.8686,-4.8935,-4.9059,-4.939,-4.9576,-4.9576,-4.968,-4.9908,-5.0239,-5.0694,-5.0943,-5.0943,-5.1377,-5.1626,-5.1626,-5.175,-5.1791,-5.1791,-5.1791,-5.1791,-5.1791,-5.1791,-5.1791,-5.1791,-5.1667,-5.1626,-5.1605,-5.1501,-5.1439,-5.1419,-5.1067,-5.0943,-5.0901,-5.0549,-5.0342,-5.0239,-5.0115,-4.9638,-4.9059,-4.9059,-4.9059,-4.9059,-4.9059,-4.9059,-4.9059,-4.9059,-4.8973,-4.8716,-4.8047,-4.7788,-4.7528,-4.6832,-4.6658,-4.6658,-4.6658,-4.6571,-4.6483,-4.6483,-4.6396,-4.6269,-4.6152,-4.6055,-4.5879,-4.5566,-4.5508,-4.5195,-4.4336,-4.4219,-4.4082,-4.373,-4.3711,-4.3711,-4.3711,-4.3711,-4.3711,-4.3711,-4.3711,-4.3652,-4.3555,-4.3555,-4.3496,-4.3379,-4.3379,-4.3379,-4.3379,-4.3066,-4.291,-4.291,-4.2578,-4.2422,-5.2929,-5.2929,-5.2929,-5.2929,-5.2929,-5.2929,-5.2929,-5.2929,-5.2929,-5.2929,-5.3808,-5.442,-5.3656,-5.3029,-5.2137,-5.0443,-5.0025,-4.9303,-4.7547,-4.8756,-4.9575,-4.875,-4.8914,-4.9142,-4.9349,-4.9684,-4.9928,-5.0322,-5.0342,-5.0466,-5.0715,-5.117,-5.1419,-5.1419,-5.1667,-5.1791,-5.1791,-5.1791,-5.1791,-5.1791,-5.1791,-5.1791,-5.1791,-5.1791,-5.1791,-5.1791,-5.1791,-5.1791,-5.1791,-5.1791,-5.1791,-5.1771,-5.1522,-5.1419,-5.1377,-5.1129,-5.0901,-5.0715,-5.0449,-4.9975,-4.9358,-4.9431,-4.9111,-4.8724,-4.8777,-4.863,-4.8478,-4.8478,-4.8392,-4.8047,-4.7528,-4.7268,-4.692,-4.6396,-4.6308,-4.6308,-4.6308,-4.6308,-4.6308,-4.6308,-4.6308,-4.6308,-4.6308,-4.6308,-4.623,-4.5996,-4.5957,-4.5703,-4.5039,-4.4785,-4.4512,-4.4062,-4.4004,-4.3926,-4.373,-4.3711,-4.3711,-4.3711,-4.3711,-4.3711,-4.3711,-4.3711,-4.3711,-4.3711,-4.3711,-4.3711,-4.3711,-4.3457,-4.3359,-4.334,-4.3105,-4.2988,-5.2929,-5.2929,-5.2929,-5.2929,-5.2929,-5.2929,-5.2929,-5.2929,-5.2861,-5.2629,-5.3643,-5.411,-5.2381,-5.1812,-5.1139,-4.9663,-4.9927,-4.9751,-4.8253,-4.9929,-5.078,-4.9315,-4.9059,-4.9245,-4.9721,-4.9804,-5.0197,-5.1046,-5.117,-5.1212,-5.1212,-5.1584,-5.1791,-5.1791,-5.1791,-5.1791,-5.1791,-5.1791,-5.1791,-5.1791,-5.1791,-5.1791,-5.1791,-5.1791,-5.1791,-5.1791,-5.1791,-5.1791,-5.1791,-5.1791,-5.1791,-5.1791,-5.1791,-5.1791,-5.1791,-5.1701,-5.1453,-5.1012,-5.0564,-5.0119,-4.9712,-4.9661,-4.9147,-4.8345,-4.8423,-4.8128,-4.7782,-4.7721,-4.7441,-4.7094,-4.7007,-4.6745,-4.6396,-4.6308,-4.6308,-4.6308,-4.6308,-4.6308,-4.6308,-4.6308,-4.6308,-4.6308,-4.6308,-4.6308,-4.6308,-4.6308,-4.6308,-4.6172,-4.5801,-4.5371,-4.4941,-4.4531,-4.4492,-4.4316,-4.3906,-4.3828,-4.3789,-4.3789,-4.373,-4.3711,-4.3711,-4.3711,-4.3711,-4.3711,-4.3711,-4.3711,-4.3711,-4.3711,-4.3711,-4.3711,-4.3711,-4.3711,-5.2929,-5.2929,-5.2929,-5.2929,-5.2929,-5.2929,-5.2929,-5.2929,-5.256,-5.1233,-5.289,-5.411,-5.2454,-5.2782,-5.3199,-5.2897,-5.1357,-5.0099,-4.9795,-4.9637,-4.9486,-4.9144,-4.9059,-4.9245,-4.9721,-5.0094,-5.0529,-5.1067,-5.146,-5.1688,-5.1688,-5.175,-5.1791,-5.1791,-5.1791,-5.1791,-5.1791,-5.1791,-5.1791,-5.1791,-5.1791,-5.1791,-5.1791,-5.1791,-5.1791,-5.1791,-5.1791,-5.1791,-5.1791,-5.1791,-5.1791,-5.1791,-5.1791,-5.1791,-5.1701,-5.1338,-5.1186,-5.1034,-5.0489,-4.9974,-4.9611,-4.9259,-4.8997,-4.8828,-4.8453,-4.8224,-4.8164,-4.7802,-4.7615,-4.7528,-4.7094,-4.692,-4.6745,-4.6396,-4.6308,-4.6308,-4.6308,-4.6308,-4.6308,-4.6308,-4.6308,-4.6308,-4.6308,-4.6308,-4.6308,-4.6308,-4.6308,-4.6269,-4.6211,-4.582,-4.5391,-4.4961,-4.4922,-4.4883,-4.4805,-4.4473,-4.4277,-4.4277,-4.3926,-4.3711,-4.3711,-4.3711,-4.3711,-4.3711,-4.3711,-4.3711,-4.3711,-4.3711,-4.3711,-4.3711,-4.3711,-4.3711,-5.2929,-5.2929,-5.2929,-5.2929,-5.2929,-5.2929,-5.2929,-5.2258,-5.1513,-5.0787,-5.1417,-5.209,-5.2236,-5.1662,-5.1516,-5.264,-5.0583,-4.8978,-4.9232,-4.9132,-4.9059,-4.9059,-4.9287,-4.9597,-5.0052,-5.0508,-5.0963,-5.1439,-5.1667,-5.1791,-5.1791,-5.1791,-5.1791,-5.1791,-5.1791,-5.1791,-5.1791,-5.1791,-5.1791,-5.1791,-5.1791,-5.1791,-5.1791,-5.1791,-5.1791,-5.1791,-5.1791,-5.1791,-5.1791,-5.1791,-5.1791,-5.1791,-5.1791,-5.161,-5.1429,-5.1157,-5.0884,-5.0611,-5.0154,-4.9787,-4.9525,-4.9108,-4.8811,-4.8553,-4.8384,-4.7997,-4.7513,-4.7315,-4.7165,-4.692,-4.6658,-4.6658,-4.6571,-4.6396,-4.6308,-4.6308,-4.6308,-4.6308,-4.6308,-4.6308,-4.6308,-4.6308,-4.6308,-4.6308,-4.6308,-4.6308,-4.6308,-4.6308,-4.6308,-4.6133,-4.584,-4.541,-4.5371,-4.5273,-4.5039,-4.4844,-4.4726,-4.4726,-4.4512,-4.4394,-4.4394,-4.4394,-4.4297,-4.4062,-4.4062,-4.3945,-4.3711,-4.3711,-4.3711,-4.3711,-4.3711,-4.3711,-5.2929,-5.2929,-5.2929,-5.2929,-5.2629,-5.2491,-5.2861,-5.1677,-5.0576,-5.0576,-5.0455,-5.067,-5.1993,-5.0605,-5.0076,-5.2216,-5.0095,-4.8421,-4.8882,-4.9024,-4.9059,-4.9059,-4.9473,-4.9928,-5.0384,-5.0839,-5.1294,-5.1771,-5.1791,-5.1791,-5.1791,-5.1791,-5.1791,-5.1791,-5.1791,-5.1791,-5.1791,-5.1791,-5.1791,-5.1791,-5.1791,-5.1791,-5.1791,-5.1791,-5.1791,-5.1791,-5.1791,-5.1791,-5.1791,-5.1791,-5.1791,-5.1812,-5.1701,-5.1429,-5.1066,-5.0884,-5.0519,-5.0062,-4.9604,-4.942,-4.942,-4.9052,-4.8633,-4.8353,-4.8303,-4.7749,-4.7168,-4.6973,-4.6699,-4.6426,-4.6328,-4.6308,-4.6308,-4.6308,-4.6308,-4.6308,-4.6308,-4.6308,-4.6308,-4.6308,-4.6308,-4.6308,-4.6308,-4.6308,-4.6308,-4.6308,-4.6308,-4.6308,-4.6308,-4.6308,-4.6172,-4.584,-4.582,-4.5664,-4.5332,-4.5215,-4.5176,-4.5176,-4.5078,-4.5019,-4.5019,-4.5019,-4.4863,-4.4531,-4.4531,-4.4355,-4.3984,-4.3984,-4.3984,-4.3984,-4.3984,-4.3984,-5.2929,-5.2929,-5.2929,-5.2929,-5.1816,-5.1163,-5.256,-5.1677,-5.0576,-5.0576,-5.1274,-5.192,-5.2139,-5.1587,-5.1763,-5.3837,-5.1832,-5.011,-5.0565,-4.9744,-4.9059,-4.9059,-4.9473,-4.9928,-5.0384,-5.0839,-5.1294,-5.1771,-5.1791,-5.1791,-5.1791,-5.1791,-5.1791,-5.1791,-5.1791,-5.1791,-5.1791,-5.1791,-5.1791,-5.1791,-5.1791,-5.1791,-5.1791,-5.1791,-5.1791,-5.1791,-5.1791,-5.1791,-5.1791,-5.1791,-5.1791,-5.1791,-5.1338,-5.1157,-5.0975,-5.0062,-4.9696,-4.9604,-4.9144,-4.894,-4.8959,-4.894,-4.8828,-4.8711,-4.8372,-4.8125,-4.793,-4.7148,-4.6894,-4.6777,-4.6406,-4.6308,-4.6308,-4.6308,-4.6308,-4.6308,-4.6308,-4.6308,-4.6308,-4.6308,-4.6308,-4.6308,-4.6308,-4.6308,-4.6308,-4.6308,-4.6308,-4.6308,-4.6308,-4.6308,-4.6289,-4.625,-4.625,-4.623,-4.6191,-4.584,-4.5625,-4.5625,-4.5254,-4.5019,-4.5019,-4.5019,-4.5,-4.4961,-4.4961,-4.4941,-4.4902,-4.4902,-4.4902,-4.4902,-4.4902,-4.4902,-5.2929,-5.2929,-5.2929,-5.2929,-5.1747,-5.0998,-5.256,-5.1022,-4.92,-4.92,-4.9213,-4.9253,-4.9306,-4.8764,-4.9082,-5.1504,-5.005,-4.892,-4.9744,-4.9446,-4.9059,-4.9059,-4.9701,-5.0218,-5.0404,-5.1087,-5.1605,-5.1791,-5.1791,-5.1791,-5.1791,-5.1791,-5.1791,-5.1791,-5.1791,-5.1791,-5.1791,-5.1791,-5.1791,-5.1791,-5.1791,-5.1791,-5.1791,-5.1791,-5.1791,-5.1791,-5.1791,-5.1791,-5.1791,-5.1791,-5.161,-5.1338,-5.1157,-5.0702,-5.0154,-4.9787,-4.942,-4.9144,-4.894,-4.8867,-4.8867,-4.8867,-4.8867,-4.8828,-4.8652,-4.8418,-4.8144,-4.7793,-4.7324,-4.6894,-4.6719,-4.6484,-4.6308,-4.6308,-4.6308,-4.6308,-4.6308,-4.6308,-4.6308,-4.6308,-4.6308,-4.6308,-4.6308,-4.6308,-4.6308,-4.6308,-4.6308,-4.6308,-4.6308,-4.6308,-4.6308,-4.6308,-4.6308,-4.6308,-4.6308,-4.6152,-4.6055,-4.6055,-4.5898,-4.5801,-4.5801,-4.5801,-4.5683,-4.543,-4.541,-4.5293,-4.5019,-4.5019,-4.5019,-4.5019,-4.5019,-4.5019,-5.2929,-5.2929,-5.2792,-5.2327,-5.1093,-5.0198,-5.1327,-4.9486,-4.7754,-4.819,-4.7619,-4.728,-4.7945,-4.7432,-4.758,-4.9865,-4.9221,-4.8588,-4.902,-4.9059,-4.9121,-4.9245,-4.9949,-5.0466,-5.0611,-5.1336,-5.1791,-5.1791,-5.1791,-5.1791,-5.1791,-5.1791,-5.1791,-5.1791,-5.1791,-5.1791,-5.1791,-5.1791,-5.1791,-5.1791,-5.1791,-5.1791,-5.1791,-5.1791,-5.1791,-5.1791,-5.1791,-5.1791,-5.1812,-5.161,-5.1429,-5.1066,-5.0793,-5.0245,-4.9604,-4.942,-4.9144,-4.8867,-4.8867,-4.8867,-4.8867,-4.8867,-4.8867,-4.8867,-4.8867,-4.8652,-4.8379,-4.8242,-4.7598,-4.6933,-4.6933,-4.6621,-4.6308,-4.6308,-4.6308,-4.6308,-4.6308,-4.6308,-4.6308,-4.6308,-4.6308,-4.6308,-4.6308,-4.6308,-4.6308,-4.6308,-4.6308,-4.6308,-4.6308,-4.6308,-4.6308,-4.6308,-4.6308,-4.6308,-4.6308,-4.6308,-4.6308,-4.6308,-4.6308,-4.6308,-4.6308,-4.6308,-4.6172,-4.5859,-4.5859,-4.5703,-4.541,-4.541,-4.541,-4.541,-4.541,-4.541,-5.2929,-5.2929,-5.256,-5.1022,-4.9486,-4.8335,-4.8335,-4.7096,-4.6359,-4.7972,-4.7425,-4.7242,-4.9387,-4.8825,-4.858,-4.9962,-5.0202,-4.9894,-4.9191,-4.9059,-4.9224,-4.9787,-5.0156,-5.0591,-5.1067,-5.1522,-5.1791,-5.1791,-5.1791,-5.1791,-5.1791,-5.1791,-5.1791,-5.1791,-5.1791,-5.1791,-5.1791,-5.1791,-5.1791,-5.1791,-5.1791,-5.1791,-5.1791,-5.1791,-5.1791,-5.1791,-5.1791,-5.1791,-5.1791,-5.1338,-5.1066,-5.0975,-4.9971,-4.9604,-4.9512,-4.9052,-4.8867,-4.8867,-4.8867,-4.8867,-4.8867,-4.8867,-4.8867,-4.8867,-4.8867,-4.894,-4.8769,-4.832,-4.7598,-4.6933,-4.6933,-4.6621,-4.6308,-4.6308,-4.6308,-4.6308,-4.6308,-4.6308,-4.6308,-4.6308,-4.6308,-4.6308,-4.6308,-4.6308,-4.6308,-4.6308,-4.6308,-4.6308,-4.6308,-4.6308,-4.6308,-4.6308,-4.6308,-4.6308,-4.6308,-4.6308,-4.6308,-4.6308,-4.6308,-4.6308,-4.6308,-4.6308,-4.6308,-4.6289,-4.6289,-4.6289,-4.6289,-4.6289,-4.6289,-4.6289,-4.6289,-4.6289,-5.2929,-5.2119,-5.1233,-5.0717,-4.8601,-4.6949,-4.8045,-4.7096,-4.6063,-4.6581,-4.6607,-4.6583,-4.6545,-4.6514,-4.6901,-4.827,-4.8501,-4.8651,-4.902,-4.9059,-4.9121,-4.9266,-4.9949,-5.0736,-5.1501,-5.1708,-5.1791,-5.1791,-5.1791,-5.1791,-5.1791,-5.1791,-5.1791,-5.1791,-5.1791,-5.1791,-5.1791,-5.1791,-5.1791,-5.1791,-5.1791,-5.1791,-5.1791,-5.1791,-5.1791,-5.1791,-5.1791,-5.161,-5.1338,-5.1157,-5.0702,-5.0062,-4.9696,-4.942,-4.9124,-4.894,-4.8867,-4.8867,-4.8867,-4.8867,-4.8867,-4.8867,-4.8867,-4.8867,-4.8867,-4.8867,-4.8769,-4.832,-4.7812,-4.7305,-4.7012,-4.6621,-4.6308,-4.6308,-4.6308,-4.6308,-4.6308,-4.6308,-4.6308,-4.6308,-4.6308,-4.6308,-4.6308,-4.6308,-4.6308,-4.6308,-4.6308,-4.6308,-4.6308,-4.6308,-4.6308,-4.6308,-4.6308,-4.6308,-4.6308,-4.6308,-4.6308,-4.6308,-4.6308,-4.6308,-4.6308,-4.6308,-4.6308,-4.6308,-4.6308,-4.6308,-4.6308,-4.6308,-4.6308,-4.6308,-4.6308,-4.6308,-5.2189,-5.1303,-5.0269,-4.9105,-4.7366,-4.5989,-4.6455,-4.5714,-4.5063,-4.5063,-4.5448,-4.5537,-4.5055,-4.5374,-4.6119,-4.7465,-4.7693,-4.8003,-4.8935,-4.9059,-4.9204,-4.9535,-5.0239,-5.0984,-5.1729,-5.1791,-5.1791,-5.1791,-5.1791,-5.1791,-5.1791,-5.1791,-5.1791,-5.1791,-5.1791,-5.1791,-5.1791,-5.1791,-5.1791,-5.1791,-5.1791,-5.1791,-5.1791,-5.1791,-5.1791,-5.1791,-5.1791,-5.152,0.0,-5.0884,-5.0337,-4.9604,-4.942,-4.9144,-4.8867,-4.8867,-4.8867,-4.8867,-4.8867,-4.8867,-4.8867,-4.8867,-4.8867,-4.8867,-4.8867,-4.8867,-4.8808,-4.8535,-4.8027,-4.7519,-4.7246,-4.6738,-4.6308,-4.6308,-4.6308,-4.6308,-4.6308,-4.6308,-4.6308,-4.6308,-4.6308,-4.6308,-4.6308,-4.6308,-4.6308,-4.6308,-4.6308,-4.6308,-4.6308,-4.6308,-4.6308,-4.6308,-4.6308,-4.6308,-4.6308,-4.6308,-4.6308,-4.6308,-4.6308,-4.6308,-4.6308,-4.6308,-4.6308,-4.6308,-4.6308,-4.6308,-4.6308,-4.6308,-4.6308,-4.6308,-4.6308,-4.6308,0.0,-5.0339,-4.97,-4.6655,-4.5862,-4.5341,-4.3898,-4.3615,0.0,-4.3615,-4.3987,-4.4443,-4.4898,-4.5374,-4.6119,-4.7465,-4.7693,-4.8003,-4.8935,-4.9059,-4.9411,-5.0301,-5.0798,-5.1253,-5.175,-5.1791,-5.1791,-5.1791,-5.1791,-5.1791,-5.1791,-5.1791,-5.1791,-5.1791,-5.1791,-5.1791,-5.1791,-5.1791,-5.1791,-5.1791,-5.1791,-5.1791,-5.1791,-5.1791,-5.1791,-5.1791,-5.1791,-5.152,-5.0975,-5.0519,-4.9971,-4.9512,-4.9032,-4.8867,-4.8867,-4.8867,-4.8867,-4.8867,-4.8867,-4.8867,-4.8867,-4.8867,-4.8867,-4.8867,-4.8867,-4.8867,-4.8867,-4.8867,-4.8242,-4.7578,-4.7578,-4.6953,-4.6308,-4.6308,-4.6308,-4.6308,-4.6308,-4.6308,-4.6308,-4.6308,-4.6308,-4.6308,-4.6308,-4.6308,-4.6308,-4.6308,-4.6308,-4.6308,-4.6308,-4.6308,-4.6308,-4.6308,-4.6308,-4.6308,-4.6308,-4.6308,-4.6308,-4.6308,-4.6308,-4.6308,-4.6308,-4.6308,-4.6308,-4.6308,-4.6308,-4.6308,-4.6308,-4.6308,-4.6308,-4.6308,-4.6308,-4.6308,-4.7731,0.0,-4.8407,-4.6359,-4.4988,-4.405,0.0,-4.3615,-4.3615,-4.3615,-4.3987,-4.4443,-4.4898,-4.5374,-4.6119,-4.7465,-4.7693,-4.8003,-4.8935,-4.9059,-4.9411,-5.0301,-5.0508,-5.0901,-5.1729,-5.1791,-5.1791,-5.1791,-5.1791,-5.1791,-5.1791,-5.1791,-5.1791,-5.1791,-5.1791,-5.1791,-5.1791,-5.1791,-5.1791,-5.1791,-5.1791,-5.1791,-5.1791,-5.1791,-5.1791,-5.1791,-5.1791,-5.1338,-5.0519,-5.0337,-4.9787,-4.9032,-4.8959,-4.8867,-4.8867,-4.8867,-4.8867,-4.8867,-4.8867,-4.8867,-4.8867,-4.8867,-4.8867,-4.8867,-4.8867,-4.8867,-4.8867,-4.8867,-4.8242,-4.7578,-4.7578,-4.6953,-4.6308,-4.6308,-4.6308,-4.6308,-4.6308,-4.6308,-4.6308,-4.6308,-4.6308,-4.6308,-4.6308,-4.6308,-4.6308,-4.6308,-4.6308,-4.6308,-4.6308,-4.6308,-4.6308,-4.6308,-4.6308,-4.6308,-4.6308,-4.6308,-4.6308,-4.6308,-4.6308,-4.6308,-4.6308,-4.6308,-4.6308,-4.6308,-4.6308,-4.6308,-4.6308,-4.6308,-4.6308,-4.6308,-4.6308,-4.6308,-4.6802,-4.6507,-4.6802,-4.5213,-4.418,-4.3615,-4.3615,-4.3615,-4.3615,-4.3615,-4.4153,-4.4691,-4.494,-4.554,-4.6368,-4.7506,-4.7693,-4.8003,-4.8935,-4.9245,-4.9638,-5.0342,-5.0611,-5.1025,-5.1729,-5.1791,-5.1791,-5.1791,-5.1791,-5.1791,-5.1791,-5.1791,-5.1791,-5.1791,-5.1791,-5.1791,-5.1791,-5.1791,-5.1791,-5.1791,-5.1791,-5.1791,-5.1791,-5.1791,-5.1791,-5.1791,-5.1791,-5.1248,-5.0337,-5.0337,-4.9787,-4.8867,-4.8867,-4.8867,-4.8867,-4.8867,-4.8867,-4.8867,-4.8867,-4.8867,-4.8867,-4.8867,-4.8867,-4.8867,-4.8867,-4.8867,-4.8867,-4.8867,-4.8242,-4.7578,-4.7578,-4.6953,-4.6308,-4.6308,-4.6308,-4.6308,-4.6308,-4.6308,-4.6308,-4.6308,-4.6308,-4.6308,-4.6308,-4.6308,-4.6308,-4.6308,-4.6308,-4.6308,-4.6308,-4.6308,-4.6308,-4.6308,-4.6308,-4.6308,-4.6308,-4.6308,-4.6308,-4.6308,-4.6308,-4.6308,-4.6308,-4.6308,-4.6308,-4.6308,-4.6308,-4.6308,-4.6308,-4.6308,-4.6308,-4.6308,-4.6308,-4.6308,-4.6359,-4.5565,-4.5266,-4.3898,-4.3615,-4.3615,-4.3615,-4.3615,-4.3635,-4.3698,-4.4401,-4.5022,-4.5084,-4.583,-4.672,-4.7548,-4.7796,-4.8169,-4.8955,-4.9452,-4.9928,-5.0363,-5.0818,-5.1294,-5.175,-5.1791,-5.1791,-5.1791,-5.1791,-5.1791,-5.1791,-5.1791,-5.1791,-5.1791,-5.1791,-5.1791,-5.1791,-5.1791,-5.1791,-5.1791,-5.1791,-5.1791,-5.1791,-5.1791,-5.1791,-5.1701,-5.1701,-5.1157,-5.0154,-5.0154,-4.9696,-4.8867,-4.8867,-4.8867,-4.8867,-4.8867,-4.8867,-4.8867,-4.8867,-4.8867,-4.8867,-4.8867,-4.8867,-4.8867,-4.8867,-4.8867,-4.8867,-4.8867,-4.8242,-4.7578,-4.7578,-4.6953,-4.6308,-4.6308,-4.6308,-4.6308,-4.6308,-4.6308,-4.6308,-4.6308,-4.6308,-4.6308,-4.6308,-4.6308,-4.6308,-4.6308,-4.6308,-4.6308,-4.6308,-4.6308,-4.6308,-4.6308,-4.6308,-4.6308,-4.6308,-4.6308,-4.6308,-4.6308,-4.6308,-4.6308,-4.6308,-4.6308,-4.6308,-4.6308,-4.6308,-4.6308,-4.6308,-4.6308,-4.6308,-4.6308,-4.6308,-4.6308,-4.4407,-4.3974,-4.3898,-4.3691,-4.3615,-4.3615,-4.3615,-4.3615,-4.3718,-4.4112,-4.4629,-4.5105,-4.5498,-4.6326,-4.7092,-4.761,-4.8334,-4.8914,-4.9038,-4.9452,-4.9928,-5.0363,-5.0818,-5.1294,-5.175,-5.1791,-5.1791,-5.1791,-5.1791,-5.1791,-5.1791,-5.1791,-5.1791,-5.1791,-5.1791,-5.1791,-5.1791,-5.1791,-5.1791,-5.1791,-5.1791,-5.1791,-5.1791,-5.1791,-5.161,-5.1248,-5.1248,-5.0611,-4.9696,-4.9696,-4.942,-4.8867,-4.8867,-4.8867,-4.8867,-4.8867,-4.8867,-4.8867,-4.8867,-4.8867,-4.8867,-4.8867,-4.8867,-4.8867,-4.8867,-4.8867,-4.8867,-4.8867,-4.8242,-4.7578,-4.7578,-4.6953,-4.6308,-4.6308,-4.6308,-4.6308,-4.6308,-4.6308,-4.6308,-4.6308,-4.6308,-4.6308,-4.6308,-4.6308,-4.6308,-4.6308,-4.6308,-4.6308,-4.6308,-4.6308,-4.6308,-4.6308,-4.6308,-4.6308,-4.6308,-4.6308,-4.6308,-4.6308,-4.6308,-4.6308,-4.6308,-4.6308,-4.6308,-4.6308,-4.6308,-4.6308,-4.6308,-4.6308,-4.6308,-4.6308,-4.6308,-4.6308,-4.4256,-4.3615,-4.3615,-4.3615,-4.3615,-4.3615,-4.3615,-4.3615,-4.3739,-4.4215,-4.467,-4.5126,-4.5602,-4.643,-4.7258,-4.7941,-4.8624,-4.9059,-4.9059,-4.968,-5.0197,-5.0404,-5.1046,-5.1564,-5.1791,-5.1791,-5.1791,-5.1791,-5.1791,-5.1791,-5.1791,-5.1791,-5.1791,-5.1791,-5.1791,-5.1791,-5.1791,-5.1791,-5.1791,-5.1791,-5.1791,-5.1791,-5.1791,-5.152,-5.1338,-5.1066,-5.0793,-5.0245,-4.9604,-4.9604,-4.9328,-4.8867,-4.8867,-4.8867,-4.8867,-4.8867,-4.8867,-4.8867,-4.8867,-4.8867,-4.8867,-4.8867,-4.8867,-4.8867,-4.8867,-4.8867,-4.8867,-4.8867,-4.8242,-4.7578,-4.7578,-4.6953,-4.6308,-4.6308,-4.6308,-4.6308,-4.6308,-4.6308,-4.6308,-4.6308,-4.6308,-4.6308,-4.6308,-4.6308,-4.6308,-4.6308,-4.6308,-4.6308,-4.6308,-4.6308,-4.6308,-4.6308,-4.6308,-4.6308,-4.6308,-4.6308,-4.6308,-4.6308,-4.6308,-4.6308,-4.6308,-4.6308,-4.6308,-4.6308,-4.6308,-4.6308,-4.6308,-4.6308,-4.6308,-4.6308,-4.6308,-4.6308,-4.4331,-4.3615,-4.3615,-4.3615,-4.3615,-4.3615,-4.3615,-4.3698,-4.3905,-4.4381,-4.4758,-4.5133,-4.5747,-4.6575,-4.7486,-4.8396,-4.8831,-4.9059,-4.9059,-4.9763,-5.0301,-5.0404,-5.115,-5.1688,-5.1791,-5.1791,-5.1791,-5.1791,-5.1791,-5.1791,-5.1791,-5.1791,-5.1791,-5.1791,-5.1791,-5.1791,-5.1791,-5.1701,-5.1701,-5.1791,-5.1701,-5.161,-5.161,-5.1157,-5.0884,-5.0702,-5.0337,-4.9879,-4.942,-4.942,-4.9216,-4.8867,-4.8867,-4.8867,-4.8867,-4.8867,-4.8867,-4.8867,-4.8867,-4.8867,-4.8867,-4.8867,-4.8867,-4.8867,-4.8867,-4.8867,-4.8828,-4.873,-4.8164,-4.7578,-4.7578,-4.6953,-4.6308,-4.6308,-4.6308,-4.6308,-4.6308,-4.6308,-4.6308,-4.6308,-4.6308,-4.6308,-4.6308,-4.6308,-4.6308,-4.6308,-4.6308,-4.6308,-4.6308,-4.6308,-4.6308,-4.6308,-4.6308,-4.6308,-4.6308,-4.6308,-4.6308,-4.6308,-4.6308,-4.6308,-4.6308,-4.6308,-4.6308,-4.6308,-4.6308,-4.6308,-4.6308,-4.6308,-4.6308,-4.6308,-4.6308,-4.6308,-4.405,-4.3615,-4.3615,-4.3615,-4.3615,-4.3615,-4.3615,-4.3946,-4.4381,-4.4857,-4.4995,-4.5287,-4.6142,-4.703,-4.7941,-4.8873,-4.9038,-4.9059,-4.9059,-4.9494,-4.9949,-5.0363,-5.086,-5.1336,-5.175,-5.1791,-5.1791,-5.1791,-5.1791,-5.1791,-5.1791,-5.1791,-5.1791,-5.1791,-5.1791,-5.1791,-5.1791,-5.1338,-5.1338,-5.1791,-5.1338,-5.1157,-5.1157,-5.0611,-5.0154,-4.9696,-4.9696,-4.942,-4.894,-4.894,-4.894,-4.8867,-4.8867,-4.8867,-4.8867,-4.8867,-4.8867,-4.8867,-4.8867,-4.8867,-4.8867,-4.8867,-4.8867,-4.8867,-4.8867,-4.8867,-4.8769,-4.8359,-4.793,-4.7578,-4.7578,-4.6953,-4.6308,-4.6308,-4.6308,-4.6308,-4.6308,-4.6308,-4.6308,-4.6308,-4.6308,-4.6308,-4.6308,-4.6308,-4.6308,-4.6308,-4.6308,-4.6308,-4.6308,-4.6308,-4.6308,-4.6308,-4.6308,-4.6308,-4.6308,-4.6308,-4.6308,-4.6308,-4.6308,-4.6308,-4.6308,-4.6308,-4.6308,-4.6308,-4.6308,-4.6308,-4.6308,-4.6308,-4.6308,-4.6308,-4.6308,-4.6308,-4.4256,-4.3615,-4.3615,-4.3615,-4.3615,-4.3615,-4.3615,-4.3967,-4.4443,-4.4898,-4.5036,-4.527,-4.6186,-4.6878,-4.7488,-4.8118,-4.8458,-4.863,-4.863,-4.9279,-4.9928,-5.0363,-5.0818,-5.1294,-5.175,-5.1791,-5.1791,-5.1791,-5.1791,-5.1791,-5.1791,-5.1791,-5.1791,-5.1791,-5.1791,-5.1791,-5.1791,-5.1338,-5.1157,-5.1338,-5.0884,-5.0611,-5.0611,-5.0062,-4.9787,-4.9604,-4.9328,-4.9052,-4.8867,-4.8867,-4.8867,-4.8867,-4.8867,-4.8867,-4.8867,-4.8867,-4.8867,-4.8867,-4.8867,-4.8867,-4.8867,-4.8867,-4.8867,-4.8867,-4.8867,-4.8867,-4.8769,-4.832,-4.791,-4.7519,-4.7246,-4.6738,-4.6308,-4.6308,-4.6308,-4.6308,-4.6308,-4.6308,-4.6308,-4.6308,-4.6308,-4.6308,-4.6308,-4.6308,-4.6308,-4.6308,-4.6308,-4.6308,-4.6308,-4.6308,-4.6308,-4.6308,-4.6308,-4.6308,-4.6308,-4.6308,-4.6308,-4.6308,-4.6308,-4.6308,-4.6308,-4.6308,-4.6308,-4.6308,-4.6308,-4.6308,-4.6308,-4.6308,-4.6308,-4.6308,-4.6308,-4.6308,-4.4482,-4.3615,-4.3615,-4.3615,-4.3615,-4.3656,-4.3801,-4.4194,-4.4608,-4.4762,-4.5023,-4.5453,-4.6025,-4.6651,-4.7178,-4.7641,-4.7961,-4.8199,-4.8199,-4.8897,-4.9568,-5.0078,-5.0606,-5.1129,-5.175,-5.1791,-5.1791,-5.1791,-5.1791,-5.1791,-5.1791,-5.1791,-5.1791,-5.1791,-5.1791,-5.1701,-5.161,-5.1066,-5.0793,-5.0611,-5.0062,-4.9971,-5.0062,-4.9604,-4.942,-4.9328,-4.9052,-4.8867,-4.8867,-4.8867,-4.8867,-4.8867,-4.8867,-4.8867,-4.8867,-4.8867,-4.8867,-4.8867,-4.8867,-4.8867,-4.8867,-4.8867,-4.8867,-4.8867,-4.8867,-4.8867,-4.875,-4.8164,-4.7793,-4.7441,-4.6875,-4.6523,-4.6308,-4.6308,-4.6308,-4.6308,-4.6308,-4.6308,-4.6308,-4.6308,-4.6308,-4.6308,-4.6308,-4.6308,-4.6308,-4.6308,-4.6308,-4.6308,-4.6308,-4.6308,-4.6308,-4.6308,-4.6308,-4.6308,-4.6308,-4.6308,-4.6308,-4.6308,-4.6308,-4.6308,-4.6308,-4.6308,-4.6308,-4.6308,-4.6308,-4.6308,-4.6308,-4.6308,-4.6308,-4.6308,-4.6308,-4.6308,-4.4482,-4.3615,-4.3615,-4.3615,-4.3615,-4.3739,-4.4194,-4.465,-4.4844,-4.4371,-4.5028,-4.5684,-4.5703,-4.6416,-4.7198,-4.7641,-4.7701,-4.7701,-4.7701,-4.8113,-4.8698,-4.9596,-5.0052,-5.0777,-5.1708,-5.1812,-5.1812,-5.1791,-5.1812,-5.1812,-5.1791,-5.1791,-5.1791,-5.1791,-5.1791,-5.161,-5.1157,-5.0611,-5.0062,-4.9604,-4.9144,-4.9144,-4.9604,-4.9144,-4.8867,-4.8867,-4.8867,-4.8867,-4.8867,-4.8867,-4.8867,-4.8867,-4.8867,-4.8867,-4.8867,-4.8867,-4.8867,-4.8867,-4.8867,-4.8867,-4.8867,-4.8867,-4.8867,-4.8867,-4.8867,-4.8867,-4.8672,-4.7832,-4.7578,-4.7383,-4.6523,-4.6308,-4.6308,-4.6308,-4.6308,-4.6308,-4.6308,-4.6308,-4.6308,-4.6308,-4.6308,-4.6308,-4.6308,-4.6308,-4.6308,-4.6308,-4.6308,-4.6308,-4.6308,-4.6308,-4.6308,-4.6308,-4.6308,-4.6308,-4.6308,-4.6308,-4.6308,-4.6308,-4.6308,-4.6308,-4.6308,-4.6308,-4.6308,-4.6308,-4.6308,-4.6308,-4.6308,-4.6308,-4.6308,-4.6308,-4.6308,-4.6308,-4.5788,-4.4407,-4.3615,-4.3615,-4.3615,-4.3739,-4.4194,-4.465,-4.493,-4.4845,-4.5468,-4.5961,-4.534,-4.5883,-4.6588,-4.6726,-4.7007,-4.7181,-4.7181,-4.7615,-4.8197,-4.9086,-4.9364,-4.9819,-5.0621,-5.0702,-5.0884,-5.1248,-5.0975,-5.1066,-5.1791,-5.152,-5.1429,-5.1812,-5.1791,-5.1701,-5.161,-5.0702,-5.0245,-5.0062,-4.9328,-4.8959,-4.9124,-4.894,-4.8867,-4.8867,-4.8867,-4.8867,-4.8867,-4.8867,-4.8867,-4.8867,-4.8867,-4.8867,-4.8867,-4.8867,-4.8867,-4.8867,-4.8867,-4.8867,-4.8867,-4.8867,-4.8867,-4.8867,-4.8867,-4.8867,-4.8672,-4.7832,-4.7578,-4.7383,-4.6523,-4.6308,-4.6308,-4.6308,-4.6308,-4.6308,-4.6308,-4.6308,-4.6308,-4.6308,-4.6308,-4.6308,-4.6308,-4.6308,-4.6308,-4.6308,-4.6308,-4.6308,-4.6308,-4.6308,-4.6308,-4.6308,-4.6308,-4.6308,-4.6308,-4.6308,-4.6308,-4.6308,-4.6308,-4.6308,-4.6308,-4.6308,-4.6308,-4.6308,-4.6308,-4.6308,-4.6308,-4.6308,-4.6308,-4.6308,-4.6308,-4.6308,-4.6359,-4.4762,-4.3615,-4.3615,-4.3615,-4.378,-4.4422,-4.4783,-4.498,-4.4986,-4.5584,-4.5867,-4.5104,-4.5723,-4.6308,-4.6308,-4.6571,-4.6745,-4.6745,-4.7094,-4.7701,-4.8422,-4.882,-4.9291,-5.0015,-5.0236,-5.0428,-5.0793,-5.0519,-5.0702,-5.1429,-5.1248,-5.1338,-5.1812,-5.1791,-5.1701,-5.152,-5.0702,-5.0245,-4.9971,-4.9236,-4.8867,-4.8867,-4.8867,-4.8867,-4.8867,-4.8867,-4.8867,-4.8867,-4.8867,-4.8867,-4.8867,-4.8867,-4.8867,-4.8867,-4.8867,-4.8867,-4.8867,-4.8867,-4.8867,-4.8867,-4.8867,-4.8867,-4.8867,-4.8867,-4.873,-4.8457,-4.7773,-4.7461,-4.7168,-4.6484,-4.6308,-4.6308,-4.6308,-4.6308,-4.6308,-4.6308,-4.6308,-4.6308,-4.6308,-4.6308,-4.6308,-4.6308,-4.6308,-4.6308,-4.6308,-4.6308,-4.6308,-4.6308,-4.6308,-4.6308,-4.6308,-4.6308,-4.6308,-4.6308,-4.6308,-4.6308,-4.6308,-4.6308,-4.6308,-4.6308,-4.6308,-4.6308,-4.6308,-4.6308,-4.6308,-4.6308,-4.6308,-4.6308,-4.6308,-4.6308,-4.6308,-4.6507,-4.4913,-4.3615,-4.3615,-4.3677,-4.3967,-4.4795,-4.5057,-4.5128,-4.5047,-4.5417,-4.5614,-4.5104,-4.5723,-4.6308,-4.6308,-4.6308,-4.6308,-4.6308,-4.6658,-4.7078,-4.7601,-4.8353,-4.8971,-4.9543,-4.9853,-5.0114,-5.0245,-5.0245,-5.0519,-5.1066,-5.1066,-5.1338,-5.1812,-5.1791,-5.161,-5.1157,-5.0611,-5.0062,-4.9696,-4.9144,-4.8867,-4.8867,-4.8867,-4.8867,-4.8867,-4.8867,-4.8867,-4.8867,-4.8867,-4.8867,-4.8867,-4.8867,-4.8867,-4.8867,-4.8867,-4.8867,-4.8867,-4.8867,-4.8867,-4.8867,-4.8867,-4.8867,-4.8867,-4.8867,-4.8555,-4.8125,-4.7695,-4.7266,-4.6836,-4.6406,-4.6308,-4.6308,-4.6308,-4.6308,-4.6308,-4.6308,-4.6308,-4.6308,-4.6308,-4.6308,-4.6308,-4.6308,-4.6308,-4.6308,-4.6308,-4.6308,-4.6308,-4.6308,-4.6308,-4.6308,-4.6308,-4.6308,-4.6308,-4.6308,-4.6308,-4.6308,-4.6308,-4.6308,-4.6308,-4.6308,-4.6308,-4.6308,-4.6308,-4.6308,-4.6308,-4.6308,-4.6308,-4.6308,-4.6308,-4.6308,-4.6308,-4.79,-4.5714,-4.3615,-4.3615,-4.4153,-4.4753,-4.494,-4.5543,-4.5819,-4.5107,-4.5584,-4.5952,-4.5104,-4.5723,-4.6308,-4.6308,-4.6308,-4.6308,-4.6308,-4.6396,-4.664,-4.7072,-4.7278,-4.7631,-4.8417,-4.8574,-4.8953,-4.9676,-4.9787,-5.0154,-5.1066,-5.1066,-5.1338,-5.1812,-5.1791,-5.1701,-5.161,-5.0793,-5.0245,-5.0154,-4.9328,-4.8867,-4.8867,-4.8867,-4.8867,-4.8867,-4.8867,-4.8867,-4.8867,-4.8867,-4.8867,-4.8867,-4.8867,-4.8867,-4.8867,-4.8867,-4.8867,-4.8867,-4.8867,-4.8867,-4.8867,-4.8867,-4.8867,-4.8867,-4.8867,-4.8555,-4.8125,-4.7695,-4.7266,-4.6836,-4.6406,-4.6308,-4.6308,-4.6308,-4.6308,-4.6308,-4.6308,-4.6308,-4.6308,-4.6308,-4.6308,-4.6308,-4.6308,-4.6308,-4.6308,-4.6308,-4.6308,-4.6308,-4.6308,-4.6308,-4.6308,-4.6308,-4.6308,-4.6308,-4.6308,-4.6308,-4.6308,-4.6308,-4.6308,-4.6308,-4.6308,-4.6308,-4.6308,-4.6308,-4.6308,-4.6308,-4.6308,-4.6308,-4.6308,-4.6308,-4.6308,-4.6308,-4.8335,-4.6011,-4.3615,-4.3615,-4.4319,-4.5002,-4.5002,-4.5685,-4.6104,-4.5454,-4.5833,-4.6016,-4.5189,-4.5723,-4.6308,-4.6308,-4.6308,-4.6308,-4.6308,-4.6308,-4.6387,-4.6601,-4.6816,-4.7109,-4.7558,-4.7969,-4.8392,-4.8901,-4.9118,-4.9696,-5.0702,-5.0519,-5.0793,-5.1812,-5.161,-5.1429,-5.1429,-5.0702,-5.0154,-4.9971,-4.9236,-4.8867,-4.8867,-4.8867,-4.8867,-4.8867,-4.8867,-4.8867,-4.8867,-4.8867,-4.8867,-4.8867,-4.8867,-4.8867,-4.8867,-4.8867,-4.8867,-4.8867,-4.8867,-4.8867,-4.8867,-4.8867,-4.8867,-4.8867,-4.8867,-4.8418,-4.7851,-4.7637,-4.7109,-4.6582,-4.6367,-4.6308,-4.6308,-4.6308,-4.6308,-4.6308,-4.6308,-4.6308,-4.6308,-4.6308,-4.6308,-4.6308,-4.6308,-4.6308,-4.6308,-4.6308,-4.6308,-4.6308,-4.6308,-4.6308,-4.6308,-4.6308,-4.6308,-4.6308,-4.6308,-4.6308,-4.6308,-4.6308,-4.6308,-4.6308,-4.6308,-4.6308,-4.6308,-4.6308,-4.6308,-4.6308,-4.6308,-4.6308,-4.6308,-4.6308,-4.6308,-4.6308,-4.8624,-4.6381,-4.3898,-4.3691,-4.4319,-4.5002,-4.5002,-4.5685,-4.6185,-4.5779,-4.5999,-4.6036,-4.5274,-4.5809,-4.6308,-4.6308,-4.6308,-4.6308,-4.6308,-4.6308,-4.6308,-4.6308,-4.6601,-4.6855,-4.6914,-4.7637,-4.8125,-4.8203,-4.8705,-4.9328,-5.0154,-4.9879,-5.0245,-5.152,-5.1157,-5.0975,-5.0975,-5.0428,-4.9971,-4.9604,-4.9124,-4.8867,-4.8867,-4.8867,-4.8867,-4.8867,-4.8867,-4.8867,-4.8867,-4.8867,-4.8867,-4.8867,-4.8867,-4.8867,-4.8867,-4.8867,-4.8867,-4.8867,-4.8867,-4.8867,-4.8867,-4.8867,-4.8867,-4.8867,-4.8867,-4.8262,-4.7578,-4.7578,-4.6973,-4.6308,-4.6308,-4.6308,-4.6308,-4.6308,-4.6308,-4.6308,-4.6308,-4.6308,-4.6308,-4.6308,-4.6308,-4.6308,-4.6308,-4.6308,-4.6308,-4.6308,-4.6308,-4.6308,-4.6308,-4.6308,-4.6308,-4.6308,-4.6308,-4.6308,-4.6308,-4.6308,-4.6308,-4.6308,-4.6308,-4.6308,-4.6308,-4.6308,-4.6308,-4.6308,-4.6308,-4.6308,-4.6308,-4.6308,-4.6308,-4.6308,-4.6308,-4.6308,-4.9914,-4.7949,-4.5266,-4.3898,-4.4319,-4.5002,-4.5002,-4.5685,-4.6185,-4.5779,-4.5999,-4.6205,-4.5698,-4.5981,-4.6308,-4.6308,-4.6308,-4.6308,-4.6308,-4.6308,-4.6308,-4.6308,-4.6348,-4.6523,-4.6894,-4.7383,-4.7812,-4.8183,-4.898,-4.9604,-4.9696,-5.0062,-5.0337,-5.0519,-5.0428,-5.0428,-5.0428,-4.9971,-4.9696,-4.9604,-4.9124,-4.8867,-4.8867,-4.8867,-4.8867,-4.8867,-4.8867,-4.8867,-4.8867,-4.8867,-4.8867,-4.8867,-4.8867,-4.8867,-4.8867,-4.8867,-4.8867,-4.8867,-4.8867,-4.8867,-4.8867,-4.8867,-4.8867,-4.8867,-4.8867,-4.8262,-4.7578,-4.7578,-4.6973,-4.6308,-4.6308,-4.6308,-4.6308,-4.6308,-4.6308,-4.6308,-4.6308,-4.6308,-4.6308,-4.6308,-4.6308,-4.6308,-4.6308,-4.6308,-4.6308,-4.6308,-4.6308,-4.6308,-4.6308,-4.6308,-4.6308,-4.6308,-4.6308,-4.6308,-4.6308,-4.6308,-4.6308,-4.6308,-4.6308,-4.6308,-4.6308,-4.6308,-4.6308,-4.6308,-4.6308,-4.6308,-4.6308,-4.6308,-4.6308,-4.6308,-4.6308,-4.6308,-4.824,-4.6949,-4.5565,-4.3974,-4.4319,-4.5002,-4.5002,-4.5685,-4.6266,-4.6104,-4.6208,-4.6155,-4.5743,-4.5871,-4.6035,-4.6269,-4.6308,-4.6308,-4.6308,-4.6308,-4.6308,-4.6308,-4.6308,-4.6367,-4.6562,-4.6973,-4.7402,-4.7832,-4.8424,-4.9052,-4.9584,-4.9512,-4.9787,-5.0245,-5.0062,-4.9879,-4.9879,-4.9696,-4.9512,-4.9236,-4.9032,-4.8867,-4.8867,-4.8867,-4.8867,-4.8867,-4.8867,-4.8867,-4.8867,-4.8867,-4.8867,-4.8867,-4.8867,-4.8867,-4.8867,-4.8867,-4.8867,-4.8867,-4.8867,-4.8867,-4.8867,-4.8867,-4.8867,-4.8867,-4.8867,-4.8262,-4.7578,-4.7578,-4.6973,-4.6308,-4.6308,-4.6308,-4.6308,-4.6308,-4.6308,-4.6308,-4.6308,-4.6308,-4.6308,-4.6308,-4.6308,-4.6308,-4.6308,-4.6308,-4.6308,-4.6308,-4.6308,-4.6308,-4.6308,-4.6308,-4.6308,-4.6308,-4.6308,-4.6308,-4.6308,-4.6308,-4.6308,-4.6308,-4.6308,-4.6308,-4.6308,-4.6308,-4.6308,-4.6308,-4.6308,-4.6308,-4.6308,-4.6308,-4.6308,-4.6308,-4.6308,-4.6308,-4.6876,-4.6211,-4.6063,-4.4125,-4.4319,-4.5002,-4.5002,-4.5685,-4.6266,-4.6266,-4.6209,-4.6083,-4.5881,-4.5825,-4.5974,-4.623,-4.6308,-4.6308,-4.6308,-4.6308,-4.6308,-4.6308,-4.6308,-4.6308,-4.6308,-4.668,-4.707,-4.7383,-4.791,-4.8522,-4.9222,-4.9085,-4.9236,-4.9879,-4.9604,-4.942,-4.942,-4.942,-4.9236,-4.8867,-4.8867,-4.8867,-4.8867,-4.8867,-4.8867,-4.8867,-4.8867,-4.8867,-4.8867,-4.8867,-4.8867,-4.8867,-4.8867,-4.8867,-4.8867,-4.8867,-4.8867,-4.8867,-4.8867,-4.8867,-4.8867,-4.8867,-4.8867,-4.8867,-4.8867,-4.8262,-4.7578,-4.7578,-4.6973,-4.6308,-4.6308,-4.6308,-4.6308,-4.6308,-4.6308,-4.6308,-4.6308,-4.6308,-4.6308,-4.6308,-4.6308,-4.6308,-4.6308,-4.6308,-4.6308,-4.6308,-4.6308,-4.6308,-4.6308,-4.6308,-4.6308,-4.6308,-4.6308,-4.6308,-4.6308,-4.6308,-4.6308,-4.6308,-4.6308,-4.6308,-4.6308,-4.6406,-4.6465,-4.6465,-4.6562,-4.6523,-4.6308,-4.6406,-4.6465,-4.6465,-4.6582,-4.6621,-4.7169,-4.7023,-4.7462,-4.4331,-4.4319,-4.5002,-4.5002,-4.5685,-4.6266,-4.6266,-4.5962,-4.5882,-4.6228,-4.6285,-4.6319,-4.6318,-4.6308,-4.6308,-4.6308,-4.6308,-4.6308,-4.6308,-4.6308,-4.6308,-4.6308,-4.668,-4.6933,-4.6953,-4.7734,-4.8223,-4.8242,-4.8633,-4.8959,-4.8959,-4.894,-4.8959,-4.8959,-4.8959,-4.8959,-4.8867,-4.8867,-4.8867,-4.8867,-4.8867,-4.8867,-4.8867,-4.8867,-4.8867,-4.8867,-4.8867,-4.8867,-4.8867,-4.8867,-4.8867,-4.8867,-4.8867,-4.8867,-4.8867,-4.8867,-4.8867,-4.8867,-4.8867,-4.8867,-4.8867,-4.8867,-4.8262,-4.7578,-4.7578,-4.6973,-4.6308,-4.6308,-4.6308,-4.6308,-4.6308,-4.6308,-4.6308,-4.6308,-4.6308,-4.6308,-4.6308,-4.6308,-4.6308,-4.6308,-4.6308,-4.6308,-4.6308,-4.6308,-4.6308,-4.6308,-4.6308,-4.6308,-4.6308,-4.6308,-4.6308,-4.6308,-4.6308,-4.6308,-4.6308,-4.6308,-4.6308,-4.6308,-4.668,-4.6894,-4.6894,-4.7305,-4.7109,-4.6308,-4.6699,-4.6894,-4.6914,-4.7324,-4.7519,-4.9629,-4.8624,-4.7754,-4.5639,-4.4816,-4.4629,-4.4919,-4.5478,-4.5995,-4.6285,-4.6185,-4.6167,-4.629,-4.6108,-4.599,-4.6252,-4.6287,-4.6308,-4.6308,-4.6308,-4.6308,-4.6308,-4.6308,-4.6308,-4.6308,-4.6445,-4.6641,-4.6914,-4.7207,-4.7617,-4.8183,-4.8359,-4.8574,-4.8848,-4.8867,-4.8867,-4.8867,-4.8867,-4.8867,-4.8867,-4.8867,-4.8867,-4.8867,-4.8867,-4.8867,-4.8867,-4.8867,-4.8867,-4.8867,-4.8867,-4.8867,-4.8867,-4.8867,-4.8867,-4.8867,-4.8867,-4.8867,-4.8867,-4.8867,-4.8867,-4.8867,-4.8867,-4.8867,-4.8867,-4.8867,-4.8262,-4.7578,-4.7578,-4.6973,-4.6308,-4.6308,-4.6308,-4.6308,-4.6308,-4.6308,-4.6308,-4.6308,-4.6308,-4.6308,-4.6308,-4.6308,-4.6308,-4.6308,-4.6308,-4.6308,-4.6308,-4.6308,-4.6308,-4.6308,-4.6308,-4.6308,-4.6308,-4.6308,-4.6308,-4.6308,-4.6308,-4.6308,-4.6308,-4.6562,-4.6699,-4.6699,-4.7109,-4.7344,-4.7344,-4.75,-4.7422,-4.7129,-4.7266,-4.7344,-4.7344,-4.75,-4.7578,-5.1022,-4.9486,-4.79,-4.6285,-4.5124,-4.4422,-4.4877,-4.5354,-4.5809,-4.6264,-4.6266,-4.6268,-4.6332,-4.61,-4.6016,-4.6253,-4.6276,-4.6308,-4.6308,-4.6308,-4.6308,-4.6308,-4.6308,-4.6308,-4.6308,-4.6308,-4.6426,-4.6699,-4.6855,-4.7246,-4.7969,-4.8125,-4.8418,-4.8848,-4.8867,-4.8867,-4.8867,-4.8867,-4.8867,-4.8867,-4.8867,-4.8867,-4.8867,-4.8867,-4.8867,-4.8867,-4.8867,-4.8867,-4.8867,-4.8867,-4.8867,-4.8867,-4.8867,-4.8867,-4.8867,-4.8867,-4.8867,-4.8867,-4.8867,-4.8867,-4.8867,-4.8867,-4.8867,-4.8867,-4.8867,-4.8262,-4.7578,-4.7578,-4.6973,-4.6308,-4.6308,-4.6308,-4.6308,-4.6308,-4.6308,-4.6308,-4.6308,-4.6308,-4.6308,-4.6308,-4.6308,-4.6308,-4.6308,-4.6308,-4.6308,-4.6308,-4.6308,-4.6308,-4.6308,-4.6308,-4.6308,-4.6308,-4.6308,-4.6308,-4.6308,-4.6426,-4.6504,-4.6504,-4.6914,-4.7148,-4.7148,-4.7558,-4.7793,-4.7793,-4.793,-4.8008,-4.8008,-4.7871,-4.7793,-4.7793,-4.793,-4.8008,0.0,0.0,0.0,-4.6285,-4.5124,-4.4401,-4.4857,-4.5333,-4.5788,-4.6244,-4.6246,-4.6266,-4.6266,-4.6311,-4.6325,-4.6325,-4.6343,-4.6289,-4.6308,-4.6308,-4.6308,-4.6308,-4.6308,-4.6308,-4.6308,-4.6308,-4.6308,-4.6308,-4.668,-4.7109,-4.7539,-4.7969,-4.8418,-4.8848,-4.8867,-4.8867,-4.8867,-4.8867,-4.8867,-4.8867,-4.8867,-4.8867,-4.8867,-4.8867,-4.8867,-4.8867,-4.8867,-4.8867,-4.8867,-4.8867,-4.8867,-4.8867,-4.8867,-4.8867,-4.8867,-4.8867,-4.8867,-4.8867,-4.8867,-4.8867,-4.8867,-4.8867,-4.8867,-4.8867,-4.8867,-4.8262,-4.7578,-4.7578,-4.6973,-4.6308,-4.6308,-4.6308,-4.6308,-4.6308,-4.6308,-4.6308,-4.6308,-4.6308,-4.6308,-4.6308,-4.6308,-4.6308,-4.6308,-4.6308,-4.6308,-4.6308,-4.6308,-4.6308,-4.6308,-4.6308,-4.6308,-4.6308,-4.6308,-4.6328,-4.6328,-4.6699,-4.6953,-4.6953,-4.7363,-4.7598,-4.7598,-4.8008,-4.8223,-4.8223,-4.8652,-4.8867,-4.8867,-4.8437,-4.8223,-4.8242,-4.8672,-4.8867,-5.1022,0.0,0.0,0.0,0.0,0.0,-4.4381,-4.4857,-4.5312,-4.5768,-4.6119,-4.6266,-4.6266,-4.6311,-4.6288,-4.6282,-4.6291,-4.6371,-4.6793,-4.6483,-4.6308,-4.6308,-4.6308,-4.6308,-4.6308,-4.6308,-4.6308,-4.6308,-4.6406,-4.666,-4.709,-4.7812,-4.8418,-4.8848,-4.8867,-4.8867,-4.8867,-4.8867,-4.8867,-4.8867,-4.8867,-4.8867,-4.8867,-4.8867,-4.8867,-4.8867,-4.8867,-4.8867,-4.8867,-4.8867,-4.8867,-4.8867,-4.8867,-4.8867,-4.8867,-4.8867,-4.8867,-4.8867,-4.8867,-4.8867,-4.8867,-4.8867,-4.8867,-4.8867,-4.8867,-4.8262,-4.7578,-4.7578,-4.6973,-4.6308,-4.6308,-4.6308,-4.6308,-4.6308,-4.6308,-4.6308,-4.6308,-4.6308,-4.6308,-4.6308,-4.6308,-4.6308,-4.6308,-4.6308,-4.6308,-4.6308,-4.6308,-4.6308,-4.6308,-4.6308,-4.6308,-4.6308,-4.6582,-4.6758,-4.6758,-4.7148,-4.7402,-4.7402,-4.7793,-4.8027,-4.8027,-4.8457,-4.8672,-4.8672,-4.8789,-4.8867,-4.8867,-4.873,-4.8672,-4.8672,-4.8808,-4.8867,-5.1816,-4.9938,-4.8045,-4.7169,0.0,0.0,-4.4443,-4.4795,-4.5188,-4.583,-4.6161,-4.6266,-4.6266,-4.631,-4.6393,-4.6578,-4.6383,-4.6441,-4.6909,-4.6801,-4.6571,-4.6571,-4.6396,-4.6308,-4.6308,-4.6308,-4.6308,-4.6308,-4.6308,-4.6484,-4.6914,-4.7734,-4.832,-4.8574,-4.8769,-4.8867,-4.8867,-4.8867,-4.8867,-4.8867,-4.8867,-4.8867,-4.8867,-4.8867,-4.8867,-4.8867,-4.8867,-4.8867,-4.8867,-4.8867,-4.8867,-4.8867,-4.8867,-4.8867,-4.8867,-4.8867,-4.8867,-4.8867,-4.8867,-4.8867,-4.8867,-4.8867,-4.8867,-4.8867,-4.8867,-4.8262,-4.7578,-4.7578,-4.6973,-4.6308,-4.6308,-4.6308,-4.6308,-4.6308,-4.6308,-4.6308,-4.6308,-4.6308,-4.6308,-4.6308,-4.6308,-4.6308,-4.6308,-4.6308,-4.6308,-4.6308,-4.6308,-4.6308,-4.6308,-4.6465,-4.6562,-4.6562,-4.6953,-4.7207,-4.7207,-4.7598,-4.7851,-4.7851,-4.8242,-4.8476,-4.8476,-4.873,-4.8867,-4.8867,-4.8867,-4.8867,-4.8867,-4.8867,-4.8867,-4.8867,-4.8867,-4.8867,-5.2421,-5.0222,-4.7972,-4.7827,-4.5639,0.0,-4.4712,-4.496,-4.5229,-4.6099,-4.6225,-4.6266,-4.6266,-4.6266,-4.639,-4.6803,-4.6578,-4.6511,-4.7002,-4.7035,-4.6947,-4.7007,-4.6571,-4.6308,-4.6308,-4.6308,-4.6308,-4.6308,-4.6308,-4.6484,-4.6914,-4.7656,-4.8086,-4.8144,-4.8516,-4.8711,-4.8711,-4.8769,-4.8789,-4.8789,-4.8828,-4.8867,-4.8867,-4.8867,-4.8867,-4.8867,-4.8867,-4.8867,-4.8867,-4.8867,-4.8867,-4.8867,-4.8867,-4.8867,-4.8867,-4.8867,-4.8867,-4.8867,-4.8867,-4.8867,-4.8867,-4.8867,-4.8867,-4.8867,-4.8867,-4.8262,-4.7558,-4.7461,-4.6894,-4.6308,-4.6308,-4.6308,-4.6308,-4.6308,-4.6308,-4.6308,-4.6308,-4.6308,-4.6308,-4.6308,-4.6308,-4.6308,-4.6308,-4.6308,-4.6308,-4.6308,-4.6348,-4.6367,-4.6367,-4.6738,-4.6992,-4.6992,-4.7383,-4.7656,-4.7656,-4.8027,-4.8281,-4.8281,-4.8652,-4.8867,-4.8867,-4.8867,-4.8867,-4.8867,-4.8867,-4.8867,-4.8867,-4.8867,-4.8867,-4.8867,-4.8867,-4.8867,-4.9486,-4.7827,-4.6063,-4.4859,-4.405,0.0,-4.4319,-4.4733,-4.5147,-4.5705,-4.6099,-4.6266,-4.6266,-4.6266,-4.6287,-4.639,-4.6721,-4.703,-4.7511,-4.6947,-4.661,-4.6967,-4.6571,-4.6308,-4.6308,-4.6308,-4.6308,-4.6308,-4.6308,-4.6484,-4.6914,-4.709,-4.7344,-4.7695,-4.7793,-4.7832,-4.7832,-4.8164,-4.834,-4.834,-4.8691,-4.8867,-4.8867,-4.8867,-4.8867,-4.8867,-4.8867,-4.8867,-4.8867,-4.8867,-4.8867,-4.8867,-4.8867,-4.8867,-4.8867,-4.8867,-4.8867,-4.8867,-4.8867,-4.8867,-4.8867,-4.8867,-4.8867,-4.8867,-4.8867,-4.8262,-4.7441,-4.6738,-4.6426,-4.6308,-4.6308,-4.6308,-4.6308,-4.6308,-4.6308,-4.6308,-4.6308,-4.6308,-4.6308,-4.6308,-4.6308,-4.6308,-4.6308,-4.6308,-4.6308,-4.6308,-4.6601,-4.6816,-4.6816,-4.7187,-4.7461,-4.7461,-4.7832,-4.8086,-4.8086,-4.8476,-4.873,-4.873,-4.8808,-4.8867,-4.8867,-4.8867,-4.8867,-4.8867,-4.8867,-4.8867,-4.8867,-4.8867,-4.8867,-4.8867,-4.8867,-4.8867,-4.9388,-4.7835,-4.6431,-4.5617,-4.4894,0.0,0.0,-4.5167,-4.5457,-4.5912,-4.6182,-4.6266,-4.6266,-4.6266,-4.6266,-4.6266,-4.6452,-4.6845,-4.7297,-4.6925,-4.6855,-4.7295,-4.6745,-4.6308,-4.6308,-4.6308,-4.6308,-4.6308,-4.6308,-4.6387,-4.6601,-4.6816,-4.7031,-4.7246,-4.7461,-4.7578,-4.7578,-4.7793,-4.7891,-4.7891,-4.8125,-4.8223,-4.8223,-4.8223,-4.834,-4.8535,-4.8535,-4.8652,-4.8867,-4.8867,-4.8867,-4.8867,-4.8867,-4.8867,-4.8867,-4.8867,-4.8867,-4.8867,-4.8867,-4.8867,-4.8867,-4.8867,-4.8867,-4.8867,-4.8867,-4.8262,-4.7402,-4.6543,-4.6308,-4.6308,-4.6308,-4.6308,-4.6308,-4.6308,-4.6308,-4.6308,-4.6308,-4.6308,-4.6308,-4.6308,-4.6465,-4.6543,-4.6328,-4.6484,-4.6621,-4.6621,-4.6973,-4.7246,-4.7246,-4.7617,-4.7891,-4.7891,-4.8281,-4.8535,-4.8535,-4.873,-4.8867,-4.8867,-4.8867,-4.8867,-4.8867,-4.8867,-4.8867,-4.8867,-4.8867,-4.8867,-4.8867,-4.8867,-4.8867,-4.8867,-4.8867,-4.8867,-4.9531,-4.8044,-4.6862,-4.6862,-4.5898,-4.5105,0.0,0.0,0.0,-4.6264,-4.6266,-4.6266,-4.6266,-4.6266,-4.6225,-4.6244,-4.6204,-4.639,-4.6844,-4.686,-4.7062,-4.7606,-4.686,-4.6308,-4.6396,-4.6396,-4.6308,-4.6308,-4.6308,-4.6308,-4.6308,-4.6621,-4.6816,-4.6816,-4.7148,-4.7344,-4.7344,-4.7422,-4.7461,-4.7461,-4.7539,-4.7578,-4.7578,-4.7578,-4.7773,-4.8086,-4.8086,-4.834,-4.873,-4.873,-4.8789,-4.8867,-4.8867,-4.8867,-4.8867,-4.8867,-4.8867,-4.8867,-4.8867,-4.8867,-4.8867,-4.8867,-4.8867,-4.8848,-4.875,-4.8242,-4.7519,-4.666,-4.6426,-4.6406,-4.6328,-4.6308,-4.6308,-4.6308,-4.6308,-4.6328,-4.6406,-4.6426,-4.6445,-4.6543,-4.6816,-4.6914,-4.6504,-4.6777,-4.7051,-4.7051,-4.7422,-4.7695,-4.7695,-4.8066,-4.832,-4.832,-4.8652,-4.8867,-4.8867,-4.8867,-4.8867,-4.8867,-4.8867,-4.8867,-4.8867,-4.8867,-4.8867,-4.8867,-4.8867,-4.8867,-4.8867,-4.8867,-4.8867,-4.8867,-4.8867,-4.8867,-4.7608,-4.642,-4.5295,-4.5295,-4.5138,-4.5105,-4.5581,0.0,-4.5809,-4.6264,0.0,-4.6266,-4.6266,0.0,0.0,-4.583,-4.6099,-4.6287,-4.6328,-4.6373,-4.6674,-4.7613,-4.6855,-4.6483,-4.692,-4.6571,-4.6308,-4.6308,-4.6308,-4.6308,-4.6308,-4.6348,-4.6367,-4.6367,-4.6426,-4.6445,-4.6445,-4.6816,-4.6992,-4.7012,-4.7402,-4.7578,-4.7578,-4.7578,-4.7598,-4.7656,-4.7656,-4.7891,-4.8281,-4.8281,-4.8516,-4.8867,-4.8867,-4.8867,-4.8867,-4.8867,-4.8867,-4.8867,-4.8867,-4.8867,-4.8867,-4.8867,-4.8867,-4.8789,-4.8398,-4.8223,-4.7949,-4.709,-4.6855,-4.6777,-4.6406,-4.6308,-4.6308,-4.6308,-4.6308,-4.6406,-4.6777,-4.6855,-4.6973,-4.7363,-4.748,-4.7363,-4.6933,-4.7226,-4.75,-4.75,-4.7871,-4.8144,-4.8144,-4.8516,-4.8789,-4.8789,-4.8828,-4.8867,-4.8867,-4.8867,-4.8867,-4.8867,-4.8867,-4.8867,-4.8867,-4.8867,-4.8867,-4.8867,-4.8867,-4.8867,-4.8867,-4.8867,-4.8867,-4.8867,-4.8867,-4.8867,-4.6996,-4.6225,-4.5788,-4.5788,-4.5788,-4.583,-4.6016,-4.6078,-4.6119,-4.6225,0.0,0.0,0.0,0.0,0.0,0.0,-4.6223,-4.6266,-4.6266,-4.6332,-4.6534,-4.7165,-4.6695,-4.6363,-4.6551,-4.6396,-4.6308,-4.6308,-4.6308,-4.6308,-4.6308,-4.6308,-4.6308,-4.6308,-4.6308,-4.6308,-4.6308,-4.6484,-4.6562,-4.6562,-4.6758,-4.6836,-4.6836,-4.6836,-4.6973,-4.7207,-4.7207,-4.7441,-4.7851,-4.8105,-4.832,-4.8496,-4.875,-4.8867,-4.8867,-4.8867,-4.8867,-4.8867,-4.8867,-4.8867,-4.8867,-4.8867,-4.8867,-4.8769,-4.834,-4.8203,-4.8086,-4.748,-4.7305,-4.7266,-4.709,-4.7051,-4.7051,-4.7051,-4.7051,-4.709,-4.7266,-4.7305,-4.7363,-4.7539,-4.7773,-4.7891,-4.7695,-4.7812,-4.7949,-4.7949,-4.8301,-4.8594,-4.8594,-4.875,-4.8867,-4.8867,-4.8867,-4.8867,-4.8867,-4.8867,-4.8867,-4.8867,-4.8867,-4.8867,-4.8867,-4.8867,-4.8867,-4.8867,-4.8867,-4.8867,-4.8867,-4.8867,-4.8867,-4.8867,-4.8867,-4.8867,-4.6649,-4.6266,-4.6266,-4.6266,-4.6266,-4.6266,-4.6266,-4.6266,-4.6266,-4.6266,-4.6266,0.0,0.0,0.0,-4.6225,-4.6182,0.0,-4.6225,-4.6182,-4.6229,-4.6434,-4.6967,-4.678,-4.6557,-4.6355,-4.6405,-4.6483,-4.6308,-4.6308,-4.6308,-4.6308,-4.6308,-4.6308,-4.6308,-4.6308,-4.6308,-4.6308,-4.6308,-4.6308,-4.6308,-4.6308,-4.6308,-4.6308,-4.6308,-4.6465,-4.6758,-4.6758,-4.7012,-4.7422,-4.7734,-4.7988,-4.8242,-4.8555,-4.875,-4.8867,-4.8867,-4.8867,-4.8867,-4.8867,-4.8867,-4.8867,-4.8867,-4.8867,-4.8808,-4.8476,-4.8379,-4.8301,-4.7871,-4.7754,-4.7715,-4.7617,-4.7578,-4.7578,-4.7578,-4.7578,-4.7617,-4.7734,-4.7754,-4.7793,-4.791,-4.8183,-4.8379,-4.8379,-4.8379,-4.8379,-4.8379,-4.8652,-4.8867,-4.8867,-4.8867,-4.8867,-4.8867,-4.8867,-4.8867,-4.8867,-4.8867,-4.8867,-4.8867,-4.8867,-4.8867,-4.8867,-4.8867,-4.8867,-4.8867,-4.8867,-4.8867,-4.8867,-4.8867,-4.8867,-4.8867,-4.8867,-4.8867,-4.6347,-4.6266,-4.6266,-4.6266,-4.6266,-4.6266,-4.6266,-4.6266,-4.6266,-4.6266,-4.6266,-4.6266,-4.6266,-4.6266,-4.6202,-4.5768,-4.6057,0.0,0.0,-4.6078,-4.6452,-4.6927,-4.7356,-4.7293,-4.6352,-4.6749,-4.6832,-4.6308,-4.6308,-4.6308,-4.6308,-4.6308,-4.6308,-4.6308,-4.6308,-4.6308,-4.6308,-4.6308,-4.6308,-4.6308,-4.6308,-4.6308,-4.6308,-4.6308,-4.6308,-4.6328,-4.6328,-4.6562,-4.6953,-4.6973,-4.7461,-4.8203,-4.8223,-4.8476,-4.8867,-4.8867,-4.8867,-4.8867,-4.8867,-4.8867,-4.8867,-4.8867,-4.8867,-4.8867,-4.8848,-4.8828,-4.875,-4.8301,-4.8183,-4.8086,-4.7695,-4.7578,-4.7578,-4.7578,-4.7578,-4.7695,-4.8105,-4.8183,-4.832,-4.873,-4.8828,-4.8828,-4.8828,-4.8828,-4.8828,-4.8828,-4.8848,-4.8867,-4.8867,-4.8867,-4.8867,-4.8867,-4.8867,-4.8867,-4.8867,-4.8867,-4.8867,-4.8867,-4.8867,-4.8867,-4.8867,-4.8867,-4.8867,-4.8867,-4.8867,-4.8867,-4.8867,-4.8867,-4.8867,-4.8867,-4.8867,-4.8867,0.0,-4.703,-4.6721,-4.6721,-4.6493,-4.6266,-4.6266,-4.6266,-4.6266,-4.6266,-4.6266,-4.6266,-4.6266,-4.6266,-4.6306,-4.614,-4.6244,-4.6204,0.0,-4.6244,-4.6328,-4.6473,-4.6701,-4.6646,-4.6379,-4.6471,-4.643,-4.6269,-4.6308,-4.6308,-4.6308,-4.6308,-4.6308,-4.6308,-4.6308,-4.6308,-4.6308,-4.6308,-4.6308,-4.6308,-4.6308,-4.6308,-4.6308,-4.6308,-4.6308,-4.6308,-4.6308,-4.6387,-4.6543,-4.6816,-4.709,-4.7422,-4.7988,-4.8301,-4.8457,-4.875,-4.8867,-4.8867,-4.8867,-4.8867,-4.8867,-4.8867,-4.8867,-4.8867,-4.8867,-4.8867,-4.8828,-4.8672,-4.8633,-4.8613,-4.8457,-4.8418,-4.8418,-4.8418,-4.8418,-4.8457,-4.8613,-4.8633,-4.8672,-4.8828,-4.8867,-4.8867,-4.8867,-4.8867,-4.8867,-4.8867,-4.8867,-4.8867,-4.8867,-4.8867,-4.8867,-4.8867,-4.8867,-4.8867,-4.8867,-4.8867,-4.8867,-4.8867,-4.8867,-4.8867,-4.8867,-4.8867,-4.8867,-4.8867,-4.8867,-4.8867,-4.8867,-4.8867,-4.8867,-4.8867,-4.8867,-4.8867,-4.7693,-4.7486,0.0,-4.7279,-4.7051,-4.6823,-4.6823,-4.6823,-4.6823,-4.6823,-4.6699,-4.6514,-4.6514,-4.637,-4.6266,-4.6266,-4.6266,-4.6266,0.0,-4.6266,-4.6266,-4.6266,-4.6414,-4.6491,-4.6291,-4.6424,-4.6445,-4.6269,-4.6308,-4.6308,-4.6308,-4.6308,-4.6308,-4.6308,-4.6308,-4.6308,-4.6308,-4.6308,-4.6308,-4.6308,-4.6308,-4.6308,-4.6308,-4.6308,-4.6308,-4.6308,-4.6308,-4.6308,-4.6328,-4.6601,-4.6797,-4.6992,-4.7715,-4.7988,-4.8047,-4.8633,-4.8867,-4.8867,-4.8867,-4.8867,-4.8867,-4.8867,-4.8867,-4.8867,-4.8867,-4.8867,-4.8867,-4.8867,-4.8867,-4.8867,-4.8867,-4.8867,-4.8867,-4.8867,-4.8867,-4.8867,-4.8867,-4.8867,-4.8867,-4.8867,-4.8867,-4.8867,-4.8867,-4.8867,-4.8867,-4.8867,-4.8867,-4.8867,-4.8867,-4.8867,-4.8867,-4.8867,-4.8867,-4.8867,-4.8867,-4.8867,-4.8867,-4.8867,-4.8867,-4.8867,-4.8867,-4.8867,-4.8926,-4.9101,-4.8945,-4.8945,-4.9101,-4.8945,-4.8867,-4.8867,-4.8867,-4.8867]},{"header":{"parameterUnit":"m.s-1","parameterCategory":1,"la1":30.6,"la2":29.2853,"lo1":-89.7004,"lo2":-87.6739,"dy":0.0162,"dx":0.0183,"nx":112,"ny":82,"refTime":"2024-04-23T12:00:00:Z","depth":0,"parameterNumber":3,"parameterNumberName":"V-component_of_WINDS"},"data":[0.0,0.0,0.0,0.0,0.0,0.0,0.0,0.0,0.0,0.0,0.0,0.0,0.0,0.0,0.0,0.0,0.0,0.0,0.0,0.0,0.0,0.0,0.0,0.0,0.0,0.0,0.0,0.0,0.0,0.0,0.0,0.0,0.0,0.0,0.0,0.0,0.0,0.0,0.0,0.0,0.0,0.0,0.0,0.0,0.0,0.0,0.0,0.0,0.0,0.0,0.0,0.0,0.0,0.0,0.0,0.0,0.0,0.0,0.0,0.0,0.0,0.0,0.0,0.0,0.0,0.0,0.0,0.0,0.0,0.0,0.0,0.0,0.0,0.0,0.0,0.0,0.0,0.0,0.0,0.0,0.0,0.0,0.0,0.0,0.0,0.0,0.0,0.0,0.0,0.0,5.351,5.351,5.351,5.3571,5.3784,5.3631,5.3571,5.3784,0.0,0.0,0.0,0.0,0.0,0.0,0.0,0.0,0.0,0.0,0.0,0.0,0.0,0.0,0.0,0.0,0.0,0.0,0.0,0.0,0.0,0.0,0.0,0.0,0.0,0.0,0.0,0.0,0.0,0.0,0.0,0.0,0.0,0.0,0.0,0.0,0.0,0.0,0.0,0.0,0.0,0.0,0.0,0.0,0.0,0.0,0.0,0.0,0.0,0.0,0.0,0.0,0.0,0.0,0.0,0.0,0.0,0.0,0.0,0.0,0.0,0.0,0.0,0.0,0.0,0.0,0.0,0.0,0.0,0.0,0.0,0.0,0.0,0.0,0.0,0.0,0.0,0.0,0.0,0.0,0.0,0.0,0.0,0.0,0.0,0.0,0.0,0.0,0.0,0.0,0.0,0.0,0.0,0.0,0.0,0.0,0.0,0.0,0.0,0.0,0.0,0.0,0.0,0.0,5.351,5.351,5.351,5.3904,5.5032,5.4084,5.3964,5.5032,0.0,0.0,0.0,0.0,0.0,0.0,0.0,0.0,0.0,0.0,0.0,0.0,0.0,0.0,0.0,0.0,0.0,0.0,0.0,0.0,0.0,0.0,0.0,0.0,0.0,0.0,0.0,0.0,0.0,0.0,0.0,0.0,0.0,0.0,0.0,0.0,0.0,0.0,0.0,0.0,0.0,0.0,0.0,0.0,0.0,0.0,0.0,0.0,0.0,0.0,0.0,0.0,0.0,0.0,0.0,0.0,0.0,0.0,0.0,0.0,0.0,0.0,0.0,0.0,0.0,0.0,0.0,0.0,0.0,0.0,0.0,0.0,0.0,0.0,0.0,0.0,0.0,0.0,0.0,0.0,0.0,0.0,0.0,0.0,0.0,0.0,0.0,0.0,0.0,0.0,0.0,0.0,0.0,0.0,0.0,0.0,0.0,0.0,0.0,0.0,0.0,0.0,0.0,5.5586,5.5586,5.5586,5.5586,5.5818,5.6366,5.5876,5.5818,5.6423,5.5876,0.0,0.0,0.0,0.0,0.0,0.0,0.0,0.0,0.0,0.0,0.0,0.0,0.0,0.0,0.0,0.0,0.0,0.0,0.0,0.0,0.0,0.0,0.0,0.0,0.0,0.0,0.0,0.0,0.0,0.0,0.0,0.0,0.0,0.0,0.0,0.0,0.0,0.0,0.0,0.0,0.0,0.0,0.0,0.0,0.0,0.0,0.0,0.0,0.0,0.0,0.0,0.0,0.0,0.0,0.0,0.0,0.0,0.0,0.0,0.0,0.0,0.0,0.0,0.0,0.0,0.0,0.0,0.0,0.0,0.0,0.0,0.0,0.0,0.0,0.0,0.0,0.0,0.0,0.0,0.0,0.0,0.0,0.0,0.0,0.0,0.0,0.0,0.0,0.0,0.0,0.0,0.0,0.0,0.0,0.0,0.0,0.0,0.0,0.0,0.0,0.0,0.0,5.7303,5.7303,5.7303,5.7303,5.7303,5.7303,5.7303,5.7303,5.7303,5.7303,0.0,0.0,0.0,0.0,0.0,0.0,0.0,0.0,0.0,0.0,0.0,0.0,0.0,0.0,0.0,0.0,0.0,0.0,0.0,0.0,0.0,0.0,0.0,0.0,0.0,0.0,0.0,0.0,0.0,0.0,0.0,0.0,0.0,0.0,0.0,0.0,0.0,0.0,0.0,0.0,0.0,0.0,0.0,0.0,0.0,0.0,0.0,0.0,0.0,0.0,0.0,0.0,0.0,0.0,0.0,0.0,0.0,0.0,0.0,0.0,0.0,0.0,0.0,0.0,0.0,0.0,0.0,0.0,0.0,0.0,0.0,0.0,0.0,0.0,0.0,0.0,0.0,0.0,0.0,0.0,0.0,0.0,0.0,0.0,0.0,0.0,0.0,0.0,0.0,0.0,0.0,0.0,0.0,0.0,0.0,0.0,0.0,0.0,0.0,0.0,0.0,0.0,5.7303,5.7303,5.7303,5.7303,5.7303,5.7303,5.7303,5.7303,5.7303,5.7303,0.0,0.0,0.0,0.0,0.0,0.0,0.0,0.0,0.0,0.0,0.0,0.0,0.0,0.0,0.0,0.0,0.0,0.0,0.0,0.0,0.0,0.0,0.0,0.0,0.0,0.0,0.0,0.0,0.0,0.0,0.0,0.0,0.0,0.0,0.0,0.0,0.0,0.0,0.0,0.0,0.0,0.0,0.0,0.0,0.0,0.0,0.0,0.0,0.0,0.0,0.0,0.0,0.0,0.0,0.0,0.0,0.0,0.0,0.0,0.0,0.0,0.0,0.0,0.0,0.0,0.0,0.0,0.0,0.0,0.0,0.0,0.0,0.0,0.0,0.0,0.0,0.0,0.0,0.0,0.0,0.0,0.0,0.0,0.0,0.0,0.0,0.0,0.0,0.0,0.0,0.0,0.0,0.0,0.0,0.0,0.0,0.0,0.0,0.0,0.0,0.0,0.0,5.7303,5.7303,5.7303,5.7303,5.7303,5.7303,5.7303,5.7303,5.7303,0.0,0.0,0.0,0.0,0.0,0.0,0.0,0.0,0.0,0.0,0.0,0.0,0.0,0.0,0.0,0.0,0.0,0.0,0.0,0.0,0.0,0.0,0.0,0.0,0.0,0.0,0.0,0.0,0.0,0.0,0.0,0.0,0.0,0.0,0.0,0.0,0.0,0.0,0.0,0.0,0.0,0.0,0.0,0.0,0.0,0.0,0.0,0.0,0.0,0.0,0.0,0.0,0.0,0.0,0.0,0.0,0.0,0.0,0.0,0.0,0.0,0.0,0.0,0.0,0.0,0.0,0.0,0.0,0.0,0.0,0.0,0.0,0.0,0.0,0.0,0.0,0.0,0.0,0.0,0.0,0.0,0.0,0.0,0.0,0.0,0.0,0.0,0.0,0.0,0.0,0.0,0.0,0.0,0.0,0.0,0.0,0.0,0.0,0.0,0.0,0.0,0.0,5.7303,5.7303,5.7303,5.7303,5.7303,5.7303,5.7303,5.7303,5.7303,5.7303,0.0,0.0,0.0,0.0,0.0,0.0,0.0,0.0,0.0,0.0,0.0,0.0,0.0,0.0,0.0,0.0,0.0,0.0,0.0,0.0,0.0,0.0,0.0,0.0,0.0,0.0,0.0,0.0,0.0,0.0,0.0,0.0,0.0,0.0,0.0,0.0,0.0,0.0,0.0,0.0,0.0,0.0,0.0,0.0,0.0,0.0,0.0,0.0,0.0,0.0,0.0,0.0,0.0,0.0,0.0,0.0,0.0,0.0,0.0,0.0,0.0,0.0,0.0,0.0,0.0,0.0,0.0,0.0,0.0,0.0,0.0,0.0,0.0,0.0,0.0,0.0,0.0,0.0,0.0,0.0,0.0,0.0,0.0,0.0,0.0,0.0,0.0,0.0,0.0,0.0,0.0,0.0,0.0,0.0,0.0,0.0,0.0,0.0,0.0,0.0,0.0,0.0,5.7303,5.7303,5.7303,5.7303,5.7303,5.7303,5.7303,5.7303,5.7303,0.0,0.0,0.0,0.0,0.0,0.0,0.0,0.0,0.0,0.0,0.0,0.0,0.0,0.0,0.0,0.0,0.0,0.0,0.0,0.0,0.0,0.0,0.0,0.0,0.0,0.0,0.0,0.0,0.0,0.0,0.0,0.0,0.0,0.0,0.0,0.0,0.0,0.0,0.0,0.0,0.0,0.0,0.0,0.0,0.0,0.0,0.0,0.0,0.0,0.0,0.0,0.0,0.0,0.0,0.0,0.0,0.0,0.0,0.0,0.0,0.0,0.0,0.0,0.0,0.0,0.0,0.0,0.0,0.0,0.0,0.0,0.0,0.0,0.0,0.0,0.0,0.0,0.0,0.0,0.0,0.0,0.0,0.0,0.0,0.0,0.0,0.0,0.0,0.0,0.0,0.0,0.0,0.0,0.0,0.0,0.0,0.0,0.0,0.0,0.0,0.0,0.0,0.0,5.7303,5.7472,5.7557,5.7303,5.7303,5.7303,5.7303,5.7303,5.7303,5.7303,0.0,0.0,0.0,0.0,0.0,0.0,0.0,0.0,0.0,0.0,0.0,0.0,0.0,0.0,0.0,0.0,0.0,0.0,0.0,0.0,0.0,0.0,0.0,0.0,0.0,0.0,0.0,0.0,0.0,0.0,0.0,0.0,0.0,0.0,0.0,0.0,0.0,0.0,0.0,0.0,0.0,0.0,0.0,0.0,0.0,0.0,0.0,0.0,0.0,0.0,0.0,0.0,0.0,0.0,0.0,0.0,0.0,0.0,0.0,0.0,0.0,0.0,0.0,0.0,0.0,0.0,0.0,0.0,0.0,0.0,0.0,0.0,0.0,0.0,0.0,0.0,0.0,0.0,0.0,0.0,0.0,0.0,0.0,0.0,0.0,0.0,0.0,0.0,0.0,0.0,0.0,0.0,0.0,0.0,0.0,0.0,0.0,0.0,0.0,0.0,0.0,0.0,5.7696,5.7807,5.7892,5.7696,5.764,5.764,5.764,5.764,5.764,5.764,0.0,0.0,0.0,0.0,0.0,0.0,0.0,0.0,0.0,0.0,0.0,0.0,0.0,0.0,0.0,0.0,0.0,0.0,0.0,0.0,0.0,0.0,0.0,0.0,0.0,0.0,0.0,0.0,0.0,0.0,0.0,0.0,0.0,0.0,0.0,0.0,0.0,0.0,0.0,0.0,0.0,0.0,0.0,0.0,0.0,0.0,0.0,0.0,0.0,0.0,0.0,0.0,0.0,0.0,0.0,0.0,0.0,0.0,0.0,0.0,0.0,0.0,0.0,0.0,0.0,0.0,0.0,0.0,0.0,0.0,0.0,0.0,0.0,0.0,0.0,0.0,0.0,0.0,0.0,0.0,0.0,0.0,0.0,0.0,0.0,0.0,0.0,0.0,0.0,0.0,0.0,0.0,0.0,0.0,0.0,0.0,0.0,0.0,0.0,0.0,0.0,0.0,5.8283,5.8254,5.8195,5.8195,5.8195,5.8195,5.8195,5.8195,5.8195,5.8195,0.0,0.0,0.0,0.0,0.0,0.0,0.0,0.0,0.0,0.0,0.0,0.0,0.0,0.0,0.0,0.0,0.0,0.0,0.0,0.0,0.0,0.0,0.0,0.0,0.0,0.0,0.0,0.0,0.0,0.0,0.0,0.0,0.0,0.0,0.0,0.0,0.0,0.0,0.0,0.0,0.0,0.0,0.0,0.0,0.0,0.0,0.0,0.0,0.0,0.0,0.0,0.0,0.0,0.0,0.0,0.0,0.0,0.0,0.0,0.0,6.1732,6.1494,0.0,0.0,0.0,0.0,0.0,0.0,0.0,0.0,0.0,0.0,0.0,0.0,0.0,0.0,0.0,0.0,0.0,0.0,0.0,0.0,0.0,0.0,0.0,0.0,0.0,0.0,0.0,0.0,0.0,0.0,0.0,0.0,0.0,0.0,0.0,0.0,0.0,0.0,0.0,0.0,5.9017,5.877,5.85,5.8195,5.8195,5.8195,5.8195,5.8195,5.8195,5.8195,5.8169,0.0,0.0,0.0,0.0,0.0,0.0,0.0,0.0,0.0,0.0,0.0,0.0,0.0,0.0,0.0,0.0,0.0,0.0,0.0,0.0,0.0,0.0,0.0,0.0,0.0,0.0,0.0,0.0,0.0,0.0,0.0,0.0,0.0,0.0,0.0,0.0,0.0,0.0,0.0,0.0,0.0,0.0,0.0,0.0,0.0,0.0,0.0,0.0,0.0,0.0,0.0,0.0,0.0,0.0,0.0,0.0,0.0,0.0,0.0,6.2057,6.185,0.0,0.0,0.0,0.0,0.0,0.0,0.0,0.0,0.0,0.0,0.0,0.0,0.0,0.0,0.0,0.0,0.0,0.0,0.0,0.0,0.0,0.0,0.0,0.0,0.0,0.0,0.0,0.0,0.0,0.0,0.0,0.0,0.0,0.0,0.0,0.0,0.0,0.0,0.0,0.0,5.9729,5.9513,5.9185,5.8694,5.8664,5.8664,5.8664,5.8664,5.8664,5.8664,5.85,0.0,0.0,0.0,0.0,0.0,0.0,0.0,0.0,0.0,0.0,0.0,0.0,0.0,0.0,0.0,0.0,0.0,0.0,0.0,0.0,0.0,0.0,0.0,0.0,0.0,0.0,0.0,0.0,0.0,0.0,0.0,0.0,0.0,0.0,0.0,0.0,0.0,0.0,0.0,0.0,0.0,0.0,0.0,0.0,0.0,0.0,0.0,0.0,0.0,0.0,0.0,0.0,0.0,6.2292,6.2292,6.2292,6.2292,6.241,6.2673,6.241,6.2234,6.2175,6.2175,0.0,0.0,0.0,0.0,0.0,0.0,0.0,0.0,0.0,0.0,0.0,0.0,0.0,0.0,0.0,0.0,0.0,0.0,0.0,0.0,0.0,0.0,6.3079,6.3079,6.3079,6.3021,6.2731,0.0,0.0,0.0,0.0,0.0,0.0,0.0,0.0,0.0,0.0,0.0,6.0505,6.0326,6.0057,5.9518,5.9458,5.9398,5.9279,5.9279,5.9219,5.9129,5.8882,5.8882,0.0,0.0,0.0,0.0,0.0,0.0,0.0,0.0,0.0,0.0,0.0,0.0,0.0,0.0,0.0,0.0,0.0,0.0,0.0,0.0,0.0,0.0,0.0,0.0,0.0,0.0,0.0,0.0,0.0,0.0,0.0,0.0,6.2057,6.2116,0.0,0.0,0.0,0.0,0.0,0.0,0.0,0.0,0.0,0.0,0.0,0.0,0.0,6.2234,6.2556,6.2556,6.2673,6.2963,6.2963,6.2963,6.2963,6.2963,6.3021,6.3021,6.3021,0.0,6.2556,6.2556,0.0,0.0,0.0,0.0,0.0,0.0,0.0,0.0,0.0,0.0,0.0,0.0,0.0,0.0,0.0,0.0,0.0,0.0,0.0,0.0,0.0,0.0,6.3079,6.3079,6.3079,6.3079,6.3021,6.3079,6.3079,6.3079,6.3079,6.3049,0.0,0.0,0.0,0.0,0.0,0.0,6.1852,6.1343,6.0954,6.0864,6.0864,6.0595,5.9997,5.9967,5.9727,5.9129,5.9045,5.9045,5.9099,5.9045,0.0,0.0,0.0,0.0,0.0,0.0,0.0,0.0,0.0,0.0,0.0,0.0,0.0,0.0,0.0,0.0,0.0,0.0,0.0,0.0,0.0,0.0,0.0,0.0,0.0,0.0,0.0,0.0,0.0,6.2526,6.2643,6.2643,6.2468,6.2498,0.0,0.0,0.0,0.0,0.0,0.0,0.0,0.0,0.0,6.2643,6.2643,6.2701,6.2905,6.2905,6.2963,6.3079,6.3079,6.3079,6.3079,6.3079,6.3079,6.3079,6.3079,6.3021,6.2905,6.2905,6.2789,6.2643,0.0,0.0,0.0,0.0,6.2789,6.2963,6.3562,6.3902,6.4097,6.4764,0.0,0.0,0.0,0.0,0.0,0.0,0.0,6.4265,6.5359,6.4376,6.3222,6.3845,6.3535,6.3079,6.3079,6.3079,6.3079,6.3079,6.3079,6.3079,6.3079,6.3079,0.0,0.0,0.0,6.251,6.2151,6.1852,6.1523,6.1164,6.1104,6.0984,6.0685,6.0655,6.0535,6.0236,5.9877,5.9668,5.9668,5.9308,5.9099,0.0,0.0,0.0,0.0,0.0,0.0,0.0,0.0,0.0,0.0,0.0,0.0,0.0,0.0,0.0,0.0,0.0,0.0,0.0,0.0,0.0,0.0,0.0,0.0,0.0,0.0,0.0,0.0,6.2963,6.3079,6.3079,6.2905,6.2847,0.0,0.0,0.0,0.0,0.0,0.0,6.2731,6.2963,6.3079,6.3079,6.3079,6.3079,6.3079,6.3079,6.3079,6.3079,6.3079,6.3079,6.3079,6.3079,6.3079,6.3079,6.3079,6.3079,6.3079,6.3079,6.3079,6.3079,6.3079,6.3079,6.3079,6.3079,6.3079,6.3222,6.4015,6.4457,6.4844,6.5683,6.5575,6.5142,6.5142,0.0,0.0,0.0,0.0,6.5413,6.6533,6.5173,6.3789,6.4899,6.432,6.3592,6.3876,6.3706,6.3451,6.3137,6.3079,6.3079,6.3079,6.3079,0.0,6.3079,6.3079,6.2899,6.2421,6.2361,6.2151,6.1672,6.1613,6.1553,6.1373,6.1373,6.1283,6.1134,6.0625,6.0356,6.0356,5.9697,5.9368,5.9368,0.0,0.0,0.0,0.0,0.0,0.0,0.0,0.0,0.0,0.0,0.0,0.0,0.0,0.0,0.0,0.0,0.0,0.0,0.0,0.0,0.0,0.0,0.0,0.0,0.0,0.0,0.0,0.0,0.0,6.3079,6.3079,0.0,0.0,0.0,0.0,6.3079,6.3079,6.3079,6.3079,6.3079,6.3079,6.3079,6.3079,6.3079,6.3079,6.3079,6.3079,6.3079,6.3079,6.3079,6.3079,6.3079,6.3079,6.3079,6.3079,6.3079,6.3079,6.3079,6.3079,6.3079,6.3079,6.3079,6.3079,6.3079,6.3079,6.3137,6.3194,6.3845,6.4734,6.4789,6.5467,6.6322,6.6322,6.6322,0.0,0.0,6.7157,6.6585,6.7719,6.6291,6.4899,6.6057,6.5467,6.4954,6.6004,6.5359,6.432,6.3279,6.3079,6.3079,6.3079,0.0,6.3079,6.3079,6.3079,6.3079,6.3019,6.3019,6.3019,6.2989,6.2989,6.272,6.2091,6.2061,6.1792,6.1164,6.1074,6.1074,6.1074,6.0416,6.0027,6.0027,5.9428,0.0,0.0,0.0,0.0,0.0,0.0,0.0,0.0,0.0,0.0,0.0,0.0,0.0,0.0,0.0,0.0,0.0,0.0,0.0,0.0,0.0,0.0,0.0,0.0,0.0,0.0,0.0,0.0,6.3079,6.3079,0.0,6.3079,6.3079,6.3079,6.3079,6.3079,6.3079,6.3079,6.3079,6.3079,6.3079,6.3079,6.3079,6.3079,6.3079,6.3079,6.3079,6.3079,6.3421,6.4097,6.3394,6.3876,6.5173,6.4432,6.4543,6.5227,6.5227,6.4376,6.3079,6.3079,6.3079,6.3194,6.3845,6.4097,6.4209,6.4954,6.5951,6.6867,6.6867,6.7125,6.7362,6.6638,6.6898,6.7567,6.7971,6.782,6.777,6.8879,6.7516,6.611,6.7208,6.6638,6.5897,6.6322,6.6057,6.5683,6.5282,6.4071,6.3079,6.3079,6.3079,6.3079,6.3079,6.3079,6.3079,6.3079,6.3079,6.3079,6.3079,6.3079,6.2989,6.275,6.272,6.263,6.2391,6.1972,6.1732,6.1732,6.1104,6.0745,6.0745,6.0765,6.0776,0.0,0.0,0.0,0.0,0.0,0.0,0.0,0.0,0.0,0.0,0.0,0.0,0.0,0.0,0.0,0.0,0.0,0.0,0.0,0.0,0.0,0.0,0.0,0.0,0.0,6.3079,6.3079,6.3079,6.3079,6.3079,6.3079,6.3079,6.3079,6.3079,6.3079,6.3079,6.3079,6.3079,6.3079,6.3079,6.3451,6.3649,6.3649,6.3649,6.3649,6.3649,6.3279,6.3478,6.4153,6.3451,6.4127,6.579,6.5032,6.5359,6.6375,6.6375,6.5553,6.4239,6.4239,6.4239,6.4265,6.5009,6.525,6.5413,6.6585,6.7465,6.8172,6.8552,6.865,6.8502,6.7802,6.8054,6.865,6.865,6.865,6.883,6.9574,6.8354,6.726,6.8403,6.777,6.7105,6.7465,6.726,6.7002,6.7002,6.5173,6.3649,6.3649,6.3337,6.3079,6.3079,6.3079,6.3079,6.3079,6.3079,6.3079,6.3079,6.3079,6.3079,6.3079,6.3079,6.3079,6.3079,6.266,6.2421,6.2421,6.1792,6.1433,6.1433,6.1866,6.2267,6.2633,0.0,0.0,0.0,0.0,0.0,0.0,0.0,0.0,0.0,0.0,0.0,0.0,0.0,0.0,0.0,0.0,0.0,0.0,0.0,0.0,0.0,0.0,0.0,6.3079,6.3079,6.3079,6.3079,6.3079,6.3079,6.3079,6.3079,6.3079,6.3079,6.3079,6.3137,6.3137,6.3137,6.3137,6.3137,6.4153,6.4678,6.4709,6.4709,6.4764,6.474,6.3766,6.3312,6.3282,6.3312,6.388,6.4961,6.4906,6.553,6.6544,6.6565,6.6512,6.6512,6.6428,6.6375,6.6428,6.6428,6.6428,6.6638,6.777,6.8122,6.8304,6.943,6.9798,6.9798,6.9798,6.9798,6.9798,6.9798,6.9798,6.9798,6.9798,6.8977,6.8453,6.9526,6.8928,6.8453,6.9574,6.8928,6.8122,6.8122,6.6343,6.4758,6.4789,6.3845,6.3137,6.3137,6.3137,0.0,6.3079,6.3079,6.3079,6.3079,6.3079,6.3137,6.3137,6.3137,6.3194,6.3194,6.3194,6.3194,6.3194,6.2565,6.2205,6.2262,6.27,6.3474,6.4526,0.0,0.0,0.0,0.0,0.0,0.0,0.0,0.0,0.0,0.0,0.0,0.0,0.0,0.0,0.0,0.0,0.0,0.0,0.0,0.0,0.0,6.3079,6.3079,6.3079,6.3079,6.3079,6.3079,6.3079,6.3079,6.3079,6.3079,6.3079,6.3079,6.3079,6.3451,6.4209,6.4265,6.4265,6.4265,6.4568,6.4534,6.4199,6.508,6.5775,6.6268,6.6796,6.7511,6.8266,6.7457,6.8159,6.9946,6.911,6.9401,7.0451,6.9894,6.9648,6.9434,6.7245,6.6375,6.648,6.7311,6.7618,6.777,6.8928,6.8781,6.8304,6.943,6.9798,6.9798,6.9798,6.9798,6.9798,6.9798,6.9798,6.9798,6.9798,6.9574,6.943,6.9751,6.9574,6.943,6.9751,6.9574,6.9301,6.9301,6.8154,6.6867,6.6057,6.5009,6.4265,6.4265,6.4265,6.3958,6.3194,6.3079,6.3079,6.3079,6.3079,6.3394,6.4209,6.4265,6.4623,6.5444,6.5467,6.5467,6.5467,6.5312,6.5343,6.5675,6.5791,6.5792,0.0,0.0,0.0,0.0,0.0,0.0,0.0,0.0,0.0,0.0,0.0,0.0,0.0,0.0,0.0,0.0,0.0,0.0,0.0,0.0,0.0,0.0,6.3079,6.3079,6.3079,6.3079,6.3079,6.3079,6.3079,6.3079,6.3079,6.3079,6.3279,6.3762,6.3732,6.4162,6.5078,6.5109,6.5009,6.4836,6.5788,6.5917,6.5125,6.682,6.7614,6.7523,6.8264,6.8913,6.9583,6.8913,6.9583,7.1224,7.0582,7.0971,7.1985,7.1554,7.1355,7.1158,0.0,0.0,0.0,0.0,6.883,6.8879,6.9574,6.9382,6.8928,6.9574,6.9798,6.9798,6.9798,6.9798,6.9798,6.9798,6.9798,6.9798,6.9798,6.9798,6.9798,6.9798,6.9798,6.9798,6.9798,6.9798,6.9798,6.9798,6.8879,0.0,6.7852,6.648,6.5413,6.5413,6.5413,6.5227,6.4543,6.4488,6.4265,6.3789,6.4183,6.4543,6.4678,6.5142,0.0,0.0,0.0,6.6375,6.6375,6.6375,0.0,0.0,0.0,6.7492,6.7554,6.726,0.0,0.0,6.485,6.4223,0.0,0.0,0.0,0.0,0.0,0.0,0.0,0.0,0.0,0.0,0.0,0.0,0.0,0.0,0.0,0.0,6.3279,6.3222,6.3137,6.3279,6.3394,6.3137,6.3079,6.3137,6.3279,6.3279,6.3793,6.4936,6.4881,6.5245,6.6202,6.6066,0.0,0.0,0.0,6.8289,6.7121,6.95,7.0159,6.9206,6.939,6.9444,6.9444,6.9444,7.0011,7.0986,7.0986,7.1531,7.2481,7.2316,7.215,7.1885,7.056,7.003,7.003,7.003,7.003,7.003,7.003,0.0,0.0,6.9931,6.9931,6.9898,6.9831,6.9798,6.9798,6.9798,6.9798,6.9798,6.9898,6.9931,6.9931,7.003,7.003,7.003,7.003,7.003,7.003,7.003,6.9239,6.8862,6.9886,6.8101,6.6585,6.6585,6.6585,6.6533,6.6428,6.6375,6.6004,6.4978,6.579,0.0,6.5142,6.6004,6.6638,6.6794,6.6794,6.6794,6.6794,6.6794,6.726,6.8304,6.8304,6.8781,6.9798,6.9136,6.8804,6.8804,6.6983,6.6208,0.0,0.0,0.0,0.0,0.0,0.0,0.0,0.0,0.0,0.0,0.0,0.0,0.0,0.0,0.0,6.4265,6.4401,6.4097,6.3222,6.4654,6.5118,6.3279,6.3079,6.3451,6.432,6.4401,6.5115,6.6811,6.6058,6.6644,6.9306,6.8454,6.8355,6.9266,7.0267,7.0546,6.9934,7.197,7.3124,7.3434,7.4351,0.0,7.4773,7.4773,7.4963,7.512,7.512,7.5256,7.5397,7.4237,7.3045,7.1985,7.1686,7.1587,7.1587,7.1587,7.1587,7.1587,7.1587,7.1587,7.1488,7.0891,7.0693,7.056,6.9964,6.9798,0.0,6.9798,6.9798,6.9931,7.0527,7.0693,7.0825,7.1421,7.1587,7.1587,7.1587,7.1587,7.1587,7.1587,7.1407,7.1309,7.1538,6.9466,6.777,6.777,6.777,6.7465,6.6533,6.6375,6.6322,6.611,6.6269,6.669,6.7382,6.7668,6.8154,6.9107,6.9156,6.9156,6.9156,6.9156,6.9252,6.9478,6.9478,6.9574,6.9798,6.9666,6.9566,6.9533,6.8021,6.7394,0.0,0.0,0.0,0.0,0.0,0.0,0.0,0.0,0.0,0.0,0.0,6.3451,6.4512,0.0,6.3451,6.4512,6.4734,6.4734,6.4764,6.5683,6.579,6.4097,6.4376,6.5077,6.5989,6.5527,6.6246,6.8711,6.776,6.831,7.1193,7.0749,7.0802,7.1506,7.252,7.2604,7.178,7.388,7.4841,7.4603,7.5766,7.6324,7.6324,7.6324,7.6324,7.6324,7.6324,7.6324,7.6258,7.5529,7.48,7.4171,7.4171,7.3276,7.2018,7.2018,7.2018,7.2018,7.2018,7.2018,7.1951,7.1587,7.1455,7.1388,7.1024,7.0891,7.0891,7.0891,7.0891,7.0991,7.1355,7.1455,7.1554,7.1918,7.2018,7.2018,7.2018,7.2018,7.2018,7.2018,7.2018,7.2018,7.2018,7.0914,7.0042,7.0042,7.0042,6.9679,6.8737,6.8655,6.829,6.7343,6.7751,6.8104,6.8072,6.8601,6.9204,6.9751,6.9798,6.9798,6.9798,6.9941,6.9988,6.9988,7.0129,7.0143,7.0143,7.0143,7.0143,7.0143,6.941,6.9077,0.0,0.0,0.0,0.0,0.0,0.0,0.0,6.3079,6.3337,6.4209,6.3706,6.3508,6.4789,6.3958,6.3592,6.5087,6.5196,6.525,6.5951,6.6764,6.6775,6.5382,6.6032,6.6902,6.7619,6.7011,6.7846,7.0805,6.9947,7.0396,7.3001,7.296,7.3047,7.3475,7.4536,7.4655,7.3731,7.5689,7.6247,7.5353,7.63,7.6755,7.6755,7.6755,7.6755,7.6755,7.6755,7.6655,7.6523,7.6523,7.6424,7.6324,7.6324,7.49,7.2813,7.268,7.2647,7.2614,7.2481,7.2415,7.2415,7.225,7.2216,7.2183,7.2051,7.2018,7.2018,7.2018,7.2018,7.2051,7.2183,7.2216,7.225,7.2382,7.2415,7.2415,7.2415,7.2415,7.2415,7.2415,7.2415,7.2415,7.2415,7.2415,7.2316,7.2051,7.2018,7.1786,7.1189,7.1123,7.0567,6.8991,6.968,6.9793,6.873,6.94,6.9893,6.9893,6.9941,6.9941,6.9893,7.0129,7.0223,7.0176,7.041,7.0515,7.0515,7.0515,7.0515,7.0515,7.0561,7.0502,6.3079,6.3079,6.3079,6.3079,6.3079,6.3079,0.0,6.3079,6.3137,6.3222,6.3194,6.3762,6.5844,6.4488,6.4127,6.7208,6.6898,6.5897,6.4978,6.8062,6.958,6.7419,6.7313,6.7651,6.8324,6.9244,7.0902,7.3554,7.2659,7.3087,7.57,7.4918,7.4822,7.5872,7.6657,7.702,7.6881,7.7788,7.8172,7.8064,7.8225,7.8279,7.8279,7.8279,7.8279,7.8279,7.8279,7.7914,7.7285,7.7285,7.692,7.6324,7.6324,7.6125,7.5761,7.5132,7.49,7.4833,7.4171,7.3989,7.384,7.3177,7.2978,7.2846,7.2216,7.2018,7.2018,7.2018,7.2018,7.215,7.2813,7.2978,7.3144,7.3773,7.3989,7.3989,7.3989,7.3989,7.3989,7.3989,7.3989,7.3989,7.3989,7.3989,7.3475,7.2216,7.2018,7.1985,7.1885,7.1885,7.1803,7.1606,7.1704,7.1439,7.068,7.0306,7.0162,7.0162,7.0283,7.033,7.0129,7.0363,7.041,7.0176,7.041,7.0515,7.0515,7.0515,7.0515,7.0515,7.0745,7.0825,6.3079,6.3079,6.3079,6.3079,6.3079,6.3079,6.3079,6.3079,6.3279,6.3902,6.3535,6.3762,6.6004,6.4599,6.3958,6.669,6.6478,6.6277,6.7155,6.9181,7.0308,6.9764,7.0707,7.1331,7.1181,7.1402,7.245,7.4683,7.4142,7.4636,7.6835,7.6498,7.6642,7.753,7.7914,7.8047,7.8047,7.8378,7.8511,7.8511,7.8511,7.8511,7.8511,7.8511,7.8511,7.8511,7.8511,7.8345,7.8047,7.8047,7.7881,7.7583,7.7583,7.7583,7.745,7.6291,7.5894,7.5827,7.5529,7.5397,7.5363,7.5065,7.4966,7.49,7.4602,7.4502,7.4502,7.4502,7.4204,7.3972,7.4303,7.4038,7.3807,7.4155,7.4221,7.4221,7.4221,7.4221,7.4221,7.4221,7.4221,7.4221,7.4423,7.4423,7.4273,7.3822,7.3476,7.3111,7.2713,7.2647,7.2531,7.2295,7.2229,7.2096,7.1797,7.1737,7.1465,7.0876,7.1045,7.0937,7.041,7.0641,7.0687,7.0595,7.0825,7.0961,7.0961,7.0961,7.0961,7.0961,7.1052,7.1131,6.3079,6.3079,6.3079,6.3079,6.3079,6.3079,6.3079,6.3079,6.3337,6.4097,6.3902,6.4015,6.5629,6.4654,6.4326,6.6786,6.6641,6.6963,6.9227,7.0336,7.1187,7.1589,7.3361,7.4337,7.4038,7.3684,7.417,7.5742,7.5554,7.6037,7.7629,7.7715,7.798,7.8511,7.8709,7.8809,7.8809,7.9007,7.9107,7.9107,7.9107,7.9107,7.9107,7.9107,7.9107,7.9107,7.8908,7.8809,7.8809,7.861,7.8511,7.8511,7.8511,7.8511,7.8378,7.7318,7.6788,7.6589,7.639,7.6324,7.6324,7.6324,7.6324,7.6324,7.6324,7.6324,7.6324,7.6324,7.596,7.5562,7.5562,7.5165,7.4767,7.4767,7.4767,7.4767,7.4767,7.4869,7.492,7.492,7.497,7.5005,7.5039,7.5006,7.5005,7.5002,7.4672,7.4223,7.3725,7.3608,7.3475,7.3138,7.2953,7.2819,7.2819,7.2845,7.2572,7.1847,7.2049,7.1807,7.0943,7.1173,7.1164,7.0916,7.1176,7.1312,7.1312,7.1312,7.1312,7.1312,7.1312,7.1312,6.3079,6.3079,6.3079,6.3079,6.3079,6.3079,6.3079,6.3079,6.3137,6.3137,6.3958,6.4678,6.4734,6.4678,6.5631,6.8653,6.8179,6.8118,7.0008,7.1847,7.2907,7.2526,7.4116,7.5496,7.6159,7.6173,7.6504,7.7285,7.7298,7.7662,7.8444,7.8477,7.8511,7.8511,7.9206,7.9604,7.9604,8.0266,8.0631,8.0631,8.0631,8.0631,8.0631,8.0631,8.0631,8.0598,7.9902,7.9604,7.9537,7.8809,7.8511,7.8511,7.8511,7.8511,7.8511,7.8477,7.8014,7.7285,7.6556,7.6324,7.6324,7.6324,7.6324,7.6324,7.6324,7.6324,7.6324,7.6324,7.6291,7.6291,7.6291,7.6258,7.6258,7.6258,7.6258,7.6258,7.6258,7.6465,7.6704,7.6704,7.6959,7.6877,7.6174,7.604,7.5806,7.5118,7.4968,7.4968,7.4935,7.4935,7.4935,7.4902,7.4265,7.3864,7.3864,7.3352,7.3057,7.3057,7.3304,7.3012,7.1993,7.2223,7.1886,7.0916,7.1176,7.1312,7.1312,7.1312,7.1312,7.1312,7.1312,7.1312,6.3079,6.3079,6.3079,6.3079,6.3079,6.3079,6.3079,6.3079,6.3079,6.3079,6.3725,6.4482,6.5243,6.578,6.6678,6.8457,6.8816,6.9359,7.0817,7.2391,7.3639,7.4267,7.5752,7.6788,7.702,7.7053,7.7152,7.7384,7.7881,7.8246,7.8511,7.892,7.9239,7.9239,7.9968,8.0332,8.0332,8.0564,8.0697,8.0697,8.0697,8.0697,8.0697,8.0697,8.0697,8.0664,8.0432,8.0332,8.0299,8.0067,7.9968,7.9902,7.9438,7.9239,7.9206,7.8709,7.8345,7.8113,7.7881,7.7782,7.7782,7.7782,7.7782,7.7782,7.7782,7.7782,7.7782,7.7782,7.7417,7.7105,7.7262,7.7034,7.6719,7.684,7.6891,7.6891,7.6891,7.7026,7.7077,7.7077,7.7128,7.7179,7.7128,7.7061,7.6925,7.6332,7.5549,7.5018,7.5018,7.5018,7.5067,7.5179,7.4978,7.481,7.481,7.4815,7.4539,7.3878,7.408,7.3836,7.3046,7.3058,7.2957,7.2595,7.2687,7.2766,7.2766,7.2259,7.2022,7.2022,7.1548,7.1312,6.3079,6.3079,6.3079,6.3079,6.3079,6.3079,6.3079,6.3079,6.3079,6.3079,6.3875,6.4816,6.5581,6.661,6.7863,6.9295,6.9736,7.0636,7.2561,7.3359,7.4366,7.5889,7.6854,7.7517,7.7782,7.7815,7.7815,7.7815,7.8511,7.8908,7.8908,7.9604,8.0001,8.0001,8.0697,8.1094,8.1094,8.1359,8.1492,8.1492,8.1492,8.1492,8.1492,8.1492,8.1492,8.1459,8.1194,8.1094,8.1061,8.0796,8.0697,8.0631,8.02,8.0001,7.9968,7.9471,7.914,7.8875,7.861,7.8511,7.8511,7.8511,7.8511,7.8511,7.8511,7.8511,7.8511,7.8511,7.8232,7.7974,7.8184,7.8007,7.7777,7.7948,7.8,7.8,7.8,7.805,7.8101,7.8101,7.8203,7.8237,7.8151,7.7932,7.7644,7.7367,7.6616,7.5867,7.5329,7.5262,7.5277,7.5422,7.547,7.547,7.547,7.5614,7.5425,7.4762,7.4904,7.4661,7.3916,7.3883,7.3747,7.3477,7.3477,7.3477,7.3477,7.3003,7.28,7.2766,7.2326,7.209,6.3079,6.3079,6.3079,6.3079,6.3079,6.3079,6.3079,6.3079,6.3079,6.3079,6.4448,6.5668,6.5755,6.726,6.9155,7.1035,7.1045,7.1826,7.4874,7.4882,7.5299,7.7159,7.745,7.7749,7.8444,7.8544,7.8577,7.8577,7.9185,7.9637,7.967,8.0366,8.0763,8.0763,8.1459,8.1856,8.1856,8.2552,8.2883,8.2883,8.2883,8.2883,8.2883,8.2883,8.2883,8.285,8.2154,8.1856,8.179,8.1094,8.0796,8.0796,8.0763,8.0763,8.073,8.0697,8.0266,7.9571,7.8875,7.8577,7.8511,7.8511,7.8511,7.8511,7.8511,7.8511,7.8511,7.8511,7.8671,7.8883,7.8936,7.9146,7.9388,7.944,7.944,7.944,7.944,7.9647,7.9801,7.9801,8.0057,7.9972,7.9295,7.8585,7.8077,7.8044,7.8044,7.7502,7.5946,7.5743,7.5743,7.5709,7.5709,7.5709,7.5709,7.5709,7.5709,7.5709,7.5709,7.5405,7.4695,7.4661,7.4322,7.3612,7.3612,7.3612,7.3612,7.3544,7.3544,7.3544,7.351,7.3477,6.3079,6.3079,6.3079,6.3079,6.3079,6.3079,6.3079,6.3079,6.3079,6.3079,6.418,6.5196,6.5196,6.7127,6.9168,7.0592,7.189,7.3361,7.5077,7.6063,7.6868,7.7331,7.7914,7.8312,7.8511,7.9041,7.9339,7.9339,7.9504,7.9869,8.0399,8.1128,8.1525,8.1525,8.2221,8.2618,8.2618,8.2817,8.2883,8.2883,8.2883,8.2883,8.2883,8.2883,8.2883,8.2883,8.2684,8.2618,8.2585,8.2419,8.232,8.2287,8.1724,8.1525,8.1459,8.0896,8.0564,8.0399,8.02,7.9438,7.8511,7.8511,7.8511,7.8511,7.8511,7.8511,7.8511,7.8511,7.8564,7.8724,7.9179,7.9336,7.9492,7.9904,8.0006,8.0006,8.0006,8.0057,8.0107,8.0107,8.0158,8.0141,7.9938,7.9769,7.9464,7.8923,7.8822,7.828,7.6792,7.6589,7.6352,7.5743,7.5709,7.5709,7.5709,7.5709,7.5709,7.5709,7.5709,7.5608,7.5439,7.5439,7.5337,7.5134,7.5134,7.5134,7.5134,7.4593,7.4322,7.4322,7.3747,7.3477,6.3079,6.3079,6.3079,6.3079,6.3079,6.3079,6.3079,6.3079,6.3079,6.3079,6.4126,6.5143,6.5672,6.7873,6.9979,7.121,7.2787,7.4312,7.554,7.6531,7.7259,7.7828,7.8279,7.8643,7.8974,7.9318,7.9902,8.0531,8.0564,8.0763,8.1161,8.1889,8.2287,8.2287,8.2684,8.2883,8.2883,8.2883,8.2883,8.2883,8.2883,8.2883,8.2883,8.2883,8.2883,8.2883,8.2883,8.2883,8.2883,8.2883,8.2883,8.285,8.2453,8.2287,8.2221,8.1823,8.1459,8.1161,8.1326,8.0563,7.9567,7.9107,7.9169,7.9316,7.8823,7.8777,7.8916,7.8916,7.8969,7.9179,7.9492,7.9647,7.9853,8.0158,8.0209,8.0209,8.0209,8.0209,8.0209,8.0209,8.0209,8.0209,8.0209,8.0209,8.0073,7.9667,7.96,7.916,7.801,7.757,7.7096,7.6318,7.6217,7.6082,7.5743,7.5709,7.5709,7.5709,7.5709,7.5709,7.5709,7.5709,7.5709,7.5709,7.5709,7.5709,7.5709,7.527,7.51,7.5067,7.4661,7.4458,6.3079,6.3079,6.3079,6.3079,6.3079,6.3079,6.3079,6.3079,6.3137,6.3279,6.4213,6.5349,6.6594,6.8757,7.0711,7.1756,7.3327,7.4811,7.5925,7.6518,7.7268,7.835,7.8511,7.8809,7.9571,7.9703,8.0332,8.1691,8.1889,8.1956,8.1956,8.2552,8.2883,8.2883,8.2883,8.2883,8.2883,8.2883,8.2883,8.2883,8.2883,8.2883,8.2883,8.2883,8.2883,8.2883,8.2883,8.2883,8.2883,8.2883,8.2883,8.2883,8.2883,8.2883,8.2883,8.294,8.2542,8.2034,8.2311,8.1988,8.1321,8.0252,8.0201,8.046,7.9408,7.9313,7.9522,7.9422,7.9544,7.975,7.9801,7.9955,8.0158,8.0209,8.0209,8.0209,8.0209,8.0209,8.0209,8.0209,8.0209,8.0209,8.0209,8.0209,8.0209,8.0209,8.0209,7.9972,7.9329,7.8585,7.7841,7.713,7.7063,7.6758,7.6048,7.5912,7.5845,7.5845,7.5743,7.5709,7.5709,7.5709,7.5709,7.5709,7.5709,7.5709,7.5709,7.5709,7.5709,7.5709,7.5709,7.5709,6.3079,6.3079,6.3079,6.3079,6.3079,6.3079,6.3079,6.3079,6.3337,6.4265,6.4734,6.5349,6.6537,6.8016,6.9174,6.9406,7.2333,7.4626,7.4876,7.6801,7.8242,7.8457,7.8511,7.8809,7.9571,8.0167,8.0863,8.1724,8.2353,8.2718,8.2718,8.2817,8.2883,8.2883,8.2883,8.2883,8.2883,8.2883,8.2883,8.2883,8.2883,8.2883,8.2883,8.2883,8.2883,8.2883,8.2883,8.2883,8.2883,8.2883,8.2883,8.2883,8.2883,8.2883,8.294,8.3165,8.3121,8.3077,8.3409,8.3582,8.3389,8.1779,8.1344,8.1263,8.044,8.0259,8.0158,7.9556,7.944,7.9492,7.975,7.9853,7.9955,8.0158,8.0209,8.0209,8.0209,8.0209,8.0209,8.0209,8.0209,8.0209,8.0209,8.0209,8.0209,8.0209,8.0209,8.0141,8.004,7.9363,7.8619,7.7874,7.7807,7.7739,7.7604,7.7029,7.669,7.669,7.6082,7.5709,7.5709,7.5709,7.5709,7.5709,7.5709,7.5709,7.5709,7.5709,7.5709,7.5709,7.5709,7.5709,6.3079,6.3079,6.3079,6.3079,6.3079,6.3079,6.3079,6.3535,6.404,6.4568,6.5811,6.6822,6.6708,6.887,7.0582,7.0334,7.3256,7.5599,7.5993,7.7495,7.8511,7.8511,7.8875,7.9372,8.0101,8.0829,8.1558,8.232,8.2684,8.2883,8.2883,8.2883,8.2883,8.2883,8.2883,8.2883,8.2883,8.2883,8.2883,8.2883,8.2883,8.2883,8.2883,8.2883,8.2883,8.2883,8.2883,8.2883,8.2883,8.2883,8.2883,8.2883,8.2883,8.2996,8.3108,8.3276,8.3443,8.3609,8.3884,8.4102,8.4076,8.3369,8.2864,8.2427,8.1528,8.1077,8.0863,8.0526,8.0071,7.9853,8.0006,8.0006,8.0057,8.0158,8.0209,8.0209,8.0209,8.0209,8.0209,8.0209,8.0209,8.0209,8.0209,8.0209,8.0209,8.0209,8.0209,8.0209,8.0209,7.9904,7.9397,7.8653,7.8585,7.8416,7.801,7.7671,7.7468,7.7468,7.7096,7.6893,7.6893,7.6893,7.6724,7.6318,7.6318,7.6115,7.5709,7.5709,7.5709,7.5709,7.5709,7.5709,6.3079,6.3079,6.3079,6.3079,6.3279,6.3394,6.3137,6.3958,6.4734,6.4734,6.6502,6.7856,6.6848,6.9651,7.1849,7.1377,7.3921,7.6189,7.6914,7.7887,7.8511,7.8511,7.9173,7.9902,8.0631,8.1359,8.2088,8.285,8.2883,8.2883,8.2883,8.2883,8.2883,8.2883,8.2883,8.2883,8.2883,8.2883,8.2883,8.2883,8.2883,8.2883,8.2883,8.2883,8.2883,8.2883,8.2883,8.2883,8.2883,8.2883,8.2883,8.2916,8.294,8.3108,8.3332,8.3443,8.3665,8.3939,8.4211,8.4319,8.4319,8.4533,8.4234,8.3539,8.2619,8.2083,8.1697,8.1359,8.0885,8.0412,8.0242,8.0209,8.0209,8.0209,8.0209,8.0209,8.0209,8.0209,8.0209,8.0209,8.0209,8.0209,8.0209,8.0209,8.0209,8.0209,8.0209,8.0209,8.0209,8.0209,7.9972,7.9397,7.9363,7.9092,7.8517,7.8314,7.8247,7.8247,7.8077,7.7976,7.7976,7.7976,7.7705,7.713,7.713,7.6826,7.6183,7.6183,7.6183,7.6183,7.6183,7.6183,6.3079,6.3079,6.3079,6.3079,6.3845,6.432,6.3337,6.3958,6.4734,6.4734,6.5923,6.6905,6.6735,6.8927,7.0595,7.0162,7.2666,7.4994,7.5677,7.7336,7.8511,7.8511,7.9173,7.9902,8.0631,8.1359,8.2088,8.285,8.2883,8.2883,8.2883,8.2883,8.2883,8.2883,8.2883,8.2883,8.2883,8.2883,8.2883,8.2883,8.2883,8.2883,8.2883,8.2883,8.2883,8.2883,8.2883,8.2883,8.2883,8.2883,8.2883,8.2883,8.3165,8.3276,8.3388,8.3939,8.4156,8.4211,8.448,8.4553,8.4587,8.4553,8.4573,8.437,8.3573,8.3355,8.3016,8.1663,8.1224,8.1021,8.0378,8.0209,8.0209,8.0209,8.0209,8.0209,8.0209,8.0209,8.0209,8.0209,8.0209,8.0209,8.0209,8.0209,8.0209,8.0209,8.0209,8.0209,8.0209,8.0209,8.0175,8.0107,8.0107,8.0073,8.0006,7.9397,7.9025,7.9025,7.8382,7.7976,7.7976,7.7976,7.7942,7.7874,7.7874,7.7841,7.7773,7.7773,7.7773,7.7773,7.7773,7.7773,6.3079,6.3079,6.3079,6.3079,6.3902,6.4401,6.3337,6.4432,6.5737,6.5737,6.7427,6.8892,6.8806,7.0952,7.2767,7.2708,7.4376,7.6055,7.715,7.799,7.8511,7.8511,7.9537,8.0366,8.0664,8.1757,8.2585,8.2883,8.2883,8.2883,8.2883,8.2883,8.2883,8.2883,8.2883,8.2883,8.2883,8.2883,8.2883,8.2883,8.2883,8.2883,8.2883,8.2883,8.2883,8.2883,8.2883,8.2883,8.2883,8.2883,8.2996,8.3165,8.3276,8.3554,8.3884,8.4102,8.4319,8.448,8.4553,8.464,8.464,8.464,8.464,8.4573,8.4268,8.3862,8.3389,8.278,8.1968,8.1224,8.0919,8.0513,8.0209,8.0209,8.0209,8.0209,8.0209,8.0209,8.0209,8.0209,8.0209,8.0209,8.0209,8.0209,8.0209,8.0209,8.0209,8.0209,8.0209,8.0209,8.0209,8.0209,8.0209,8.0209,8.0209,7.9938,7.9769,7.9769,7.9498,7.9329,7.9329,7.9329,7.9126,7.8686,7.8653,7.845,7.7976,7.7976,7.7976,7.7976,7.7976,7.7976,6.3079,6.3079,6.3194,6.3478,6.4376,6.4978,6.4239,6.5521,6.6794,6.648,6.8324,6.9931,6.9761,7.1662,7.3619,7.4453,7.5254,7.6452,7.8258,7.8511,7.861,7.8809,7.9935,8.0763,8.0995,8.2154,8.2883,8.2883,8.2883,8.2883,8.2883,8.2883,8.2883,8.2883,8.2883,8.2883,8.2883,8.2883,8.2883,8.2883,8.2883,8.2883,8.2883,8.2883,8.2883,8.2883,8.2883,8.2883,8.2916,8.2996,8.3108,8.3332,8.3499,8.3829,8.4211,8.4319,8.448,8.464,8.464,8.464,8.464,8.464,8.464,8.464,8.464,8.4268,8.3795,8.3558,8.2441,8.1291,8.1291,8.075,8.0209,8.0209,8.0209,8.0209,8.0209,8.0209,8.0209,8.0209,8.0209,8.0209,8.0209,8.0209,8.0209,8.0209,8.0209,8.0209,8.0209,8.0209,8.0209,8.0209,8.0209,8.0209,8.0209,8.0209,8.0209,8.0209,8.0209,8.0209,8.0209,8.0209,7.9972,7.9431,7.9431,7.916,7.8653,7.8653,7.8653,7.8653,7.8653,7.8653,6.3079,6.3079,6.3337,6.4432,6.5521,6.6375,6.6375,6.726,6.777,6.6638,6.7888,6.9059,6.8603,7.0054,7.2022,7.4247,7.4603,7.556,7.8151,7.8511,7.8776,7.9483,8.0266,8.0962,8.1724,8.2453,8.2883,8.2883,8.2883,8.2883,8.2883,8.2883,8.2883,8.2883,8.2883,8.2883,8.2883,8.2883,8.2883,8.2883,8.2883,8.2883,8.2883,8.2883,8.2883,8.2883,8.2883,8.2883,8.2883,8.3165,8.3332,8.3388,8.3993,8.4211,8.4265,8.4533,8.464,8.464,8.464,8.464,8.464,8.464,8.464,8.464,8.464,8.4553,8.4471,8.3693,8.2441,8.1291,8.1291,8.075,8.0209,8.0209,8.0209,8.0209,8.0209,8.0209,8.0209,8.0209,8.0209,8.0209,8.0209,8.0209,8.0209,8.0209,8.0209,8.0209,8.0209,8.0209,8.0209,8.0209,8.0209,8.0209,8.0209,8.0209,8.0209,8.0209,8.0209,8.0209,8.0209,8.0209,8.0209,8.0175,8.0175,8.0175,8.0175,8.0175,8.0175,8.0175,8.0175,8.0175,6.3079,6.3649,6.4265,6.4623,6.6132,6.7362,6.6585,6.726,6.7971,6.7618,6.8452,6.9552,7.0656,7.1796,7.3266,7.5405,7.5766,7.6366,7.8258,7.8511,7.861,7.8842,7.9935,8.1194,8.2419,8.2751,8.2883,8.2883,8.2883,8.2883,8.2883,8.2883,8.2883,8.2883,8.2883,8.2883,8.2883,8.2883,8.2883,8.2883,8.2883,8.2883,8.2883,8.2883,8.2883,8.2883,8.2883,8.2996,8.3165,8.3276,8.3554,8.3939,8.4156,8.4319,8.4446,8.4553,8.464,8.464,8.464,8.464,8.464,8.464,8.464,8.464,8.464,8.464,8.4471,8.3693,8.2813,8.1934,8.1426,8.075,8.0209,8.0209,8.0209,8.0209,8.0209,8.0209,8.0209,8.0209,8.0209,8.0209,8.0209,8.0209,8.0209,8.0209,8.0209,8.0209,8.0209,8.0209,8.0209,8.0209,8.0209,8.0209,8.0209,8.0209,8.0209,8.0209,8.0209,8.0209,8.0209,8.0209,8.0209,8.0209,8.0209,8.0209,8.0209,8.0209,8.0209,8.0209,8.0209,8.0209,6.3592,6.4209,6.4923,6.5759,6.7022,6.8021,6.7751,6.8254,6.8732,6.8732,6.932,7.0288,7.1754,7.2614,7.3807,7.596,7.6324,7.6821,7.8312,7.8511,7.8742,7.9272,8.0399,8.1591,8.2784,8.2883,8.2883,8.2883,8.2883,8.2883,8.2883,8.2883,8.2883,8.2883,8.2883,8.2883,8.2883,8.2883,8.2883,8.2883,8.2883,8.2883,8.2883,8.2883,8.2883,8.2883,8.2883,8.3052,0.0,8.3443,8.3775,8.4211,8.4319,8.448,8.464,8.464,8.464,8.464,8.464,8.464,8.464,8.464,8.464,8.464,8.464,8.464,8.4539,8.4065,8.3186,8.2306,8.1832,8.0953,8.0209,8.0209,8.0209,8.0209,8.0209,8.0209,8.0209,8.0209,8.0209,8.0209,8.0209,8.0209,8.0209,8.0209,8.0209,8.0209,8.0209,8.0209,8.0209,8.0209,8.0209,8.0209,8.0209,8.0209,8.0209,8.0209,8.0209,8.0209,8.0209,8.0209,8.0209,8.0209,8.0209,8.0209,8.0209,8.0209,8.0209,8.0209,8.0209,8.0209,0.0,6.4868,6.5359,6.7567,6.8154,6.8502,6.9574,6.9798,0.0,6.9798,7.0394,7.1123,7.1852,7.2614,7.3807,7.596,7.6324,7.6821,7.8312,7.8511,7.9074,8.0498,8.1293,8.2022,8.2817,8.2883,8.2883,8.2883,8.2883,8.2883,8.2883,8.2883,8.2883,8.2883,8.2883,8.2883,8.2883,8.2883,8.2883,8.2883,8.2883,8.2883,8.2883,8.2883,8.2883,8.2883,8.2883,8.3052,8.3388,8.3665,8.3993,8.4265,8.45,8.464,8.464,8.464,8.464,8.464,8.464,8.464,8.464,8.464,8.464,8.464,8.464,8.464,8.464,8.464,8.3558,8.2408,8.2408,8.1325,8.0209,8.0209,8.0209,8.0209,8.0209,8.0209,8.0209,8.0209,8.0209,8.0209,8.0209,8.0209,8.0209,8.0209,8.0209,8.0209,8.0209,8.0209,8.0209,8.0209,8.0209,8.0209,8.0209,8.0209,8.0209,8.0209,8.0209,8.0209,8.0209,8.0209,8.0209,8.0209,8.0209,8.0209,8.0209,8.0209,8.0209,8.0209,8.0209,8.0209,6.6763,0.0,6.6322,6.777,6.8781,6.9478,0.0,6.9798,6.9798,6.9798,7.0394,7.1123,7.1852,7.2614,7.3807,7.596,7.6324,7.6821,7.8312,7.8511,7.9074,8.0498,8.0829,8.1459,8.2784,8.2883,8.2883,8.2883,8.2883,8.2883,8.2883,8.2883,8.2883,8.2883,8.2883,8.2883,8.2883,8.2883,8.2883,8.2883,8.2883,8.2883,8.2883,8.2883,8.2883,8.2883,8.2883,8.3165,8.3665,8.3775,8.4102,8.45,8.4587,8.464,8.464,8.464,8.464,8.464,8.464,8.464,8.464,8.464,8.464,8.464,8.464,8.464,8.464,8.464,8.3558,8.2408,8.2408,8.1325,8.0209,8.0209,8.0209,8.0209,8.0209,8.0209,8.0209,8.0209,8.0209,8.0209,8.0209,8.0209,8.0209,8.0209,8.0209,8.0209,8.0209,8.0209,8.0209,8.0209,8.0209,8.0209,8.0209,8.0209,8.0209,8.0209,8.0209,8.0209,8.0209,8.0209,8.0209,8.0209,8.0209,8.0209,8.0209,8.0209,8.0209,8.0209,8.0209,8.0209,6.7465,6.7668,6.7465,6.8634,6.9349,6.9798,6.9798,6.9798,6.9798,6.9798,7.0659,7.1521,7.1918,7.2879,7.4204,7.6026,7.6324,7.6821,7.8312,7.8809,7.9438,8.0564,8.0995,8.1658,8.2784,8.2883,8.2883,8.2883,8.2883,8.2883,8.2883,8.2883,8.2883,8.2883,8.2883,8.2883,8.2883,8.2883,8.2883,8.2883,8.2883,8.2883,8.2883,8.2883,8.2883,8.2883,8.2883,8.322,8.3775,8.3775,8.4102,8.464,8.464,8.464,8.464,8.464,8.464,8.464,8.464,8.464,8.464,8.464,8.464,8.464,8.464,8.464,8.464,8.464,8.3558,8.2408,8.2408,8.1325,8.0209,8.0209,8.0209,8.0209,8.0209,8.0209,8.0209,8.0209,8.0209,8.0209,8.0209,8.0209,8.0209,8.0209,8.0209,8.0209,8.0209,8.0209,8.0209,8.0209,8.0209,8.0209,8.0209,8.0209,8.0209,8.0209,8.0209,8.0209,8.0209,8.0209,8.0209,8.0209,8.0209,8.0209,8.0209,8.0209,8.0209,8.0209,8.0209,8.0209,6.777,6.8354,6.8552,6.9574,6.9798,6.9798,6.9798,6.9798,6.9831,6.9931,7.1057,7.2051,7.215,7.3343,7.4767,7.6092,7.649,7.7086,7.8345,7.914,7.9902,8.0598,8.1326,8.2088,8.2817,8.2883,8.2883,8.2883,8.2883,8.2883,8.2883,8.2883,8.2883,8.2883,8.2883,8.2883,8.2883,8.2883,8.2883,8.2883,8.2883,8.2883,8.2883,8.2883,8.2883,8.294,8.294,8.3276,8.3884,8.3884,8.4156,8.464,8.464,8.464,8.464,8.464,8.464,8.464,8.464,8.464,8.464,8.464,8.464,8.464,8.464,8.464,8.464,8.464,8.3558,8.2408,8.2408,8.1325,8.0209,8.0209,8.0209,8.0209,8.0209,8.0209,8.0209,8.0209,8.0209,8.0209,8.0209,8.0209,8.0209,8.0209,8.0209,8.0209,8.0209,8.0209,8.0209,8.0209,8.0209,8.0209,8.0209,8.0209,8.0209,8.0209,8.0209,8.0209,8.0209,8.0209,8.0209,8.0209,8.0209,8.0209,8.0209,8.0209,8.0209,8.0209,8.0209,8.0209,6.9204,6.9526,6.9574,6.9751,6.9798,6.9798,6.9798,6.9798,6.9964,7.0593,7.1421,7.2183,7.2813,7.4138,7.5363,7.6192,7.7351,7.8279,7.8477,7.914,7.9902,8.0598,8.1326,8.2088,8.2817,8.2883,8.2883,8.2883,8.2883,8.2883,8.2883,8.2883,8.2883,8.2883,8.2883,8.2883,8.2883,8.2883,8.2883,8.2883,8.2883,8.2883,8.2883,8.2883,8.2996,8.322,8.322,8.3609,8.4156,8.4156,8.4319,8.464,8.464,8.464,8.464,8.464,8.464,8.464,8.464,8.464,8.464,8.464,8.464,8.464,8.464,8.464,8.464,8.464,8.3558,8.2408,8.2408,8.1325,8.0209,8.0209,8.0209,8.0209,8.0209,8.0209,8.0209,8.0209,8.0209,8.0209,8.0209,8.0209,8.0209,8.0209,8.0209,8.0209,8.0209,8.0209,8.0209,8.0209,8.0209,8.0209,8.0209,8.0209,8.0209,8.0209,8.0209,8.0209,8.0209,8.0209,8.0209,8.0209,8.0209,8.0209,8.0209,8.0209,8.0209,8.0209,8.0209,8.0209,6.9301,6.9798,6.9798,6.9798,6.9798,6.9798,6.9798,6.9798,6.9997,7.0759,7.1488,7.2216,7.2978,7.4303,7.5628,7.6722,7.7815,7.8511,7.8511,7.9504,8.0332,8.0664,8.1691,8.2519,8.2883,8.2883,8.2883,8.2883,8.2883,8.2883,8.2883,8.2883,8.2883,8.2883,8.2883,8.2883,8.2883,8.2883,8.2883,8.2883,8.2883,8.2883,8.2883,8.3052,8.3165,8.3332,8.3499,8.3829,8.4211,8.4211,8.4372,8.464,8.464,8.464,8.464,8.464,8.464,8.464,8.464,8.464,8.464,8.464,8.464,8.464,8.464,8.464,8.464,8.464,8.3558,8.2408,8.2408,8.1325,8.0209,8.0209,8.0209,8.0209,8.0209,8.0209,8.0209,8.0209,8.0209,8.0209,8.0209,8.0209,8.0209,8.0209,8.0209,8.0209,8.0209,8.0209,8.0209,8.0209,8.0209,8.0209,8.0209,8.0209,8.0209,8.0209,8.0209,8.0209,8.0209,8.0209,8.0209,8.0209,8.0209,8.0209,8.0209,8.0209,8.0209,8.0209,8.0209,8.0209,6.9252,6.9798,6.9798,6.9798,6.9798,6.9798,6.9798,6.9931,7.0262,7.1024,7.1802,7.258,7.321,7.4535,7.5993,7.745,7.8146,7.8511,7.8511,7.9637,8.0498,8.0664,8.1856,8.2718,8.2883,8.2883,8.2883,8.2883,8.2883,8.2883,8.2883,8.2883,8.2883,8.2883,8.2883,8.2883,8.2883,8.294,8.294,8.2883,8.294,8.2996,8.2996,8.3276,8.3443,8.3554,8.3775,8.4048,8.4319,8.4319,8.4392,8.464,8.464,8.464,8.464,8.464,8.464,8.464,8.464,8.464,8.464,8.464,8.464,8.464,8.464,8.464,8.4573,8.4403,8.3422,8.2408,8.2408,8.1325,8.0209,8.0209,8.0209,8.0209,8.0209,8.0209,8.0209,8.0209,8.0209,8.0209,8.0209,8.0209,8.0209,8.0209,8.0209,8.0209,8.0209,8.0209,8.0209,8.0209,8.0209,8.0209,8.0209,8.0209,8.0209,8.0209,8.0209,8.0209,8.0209,8.0209,8.0209,8.0209,8.0209,8.0209,8.0209,8.0209,8.0209,8.0209,8.0209,8.0209,6.9478,6.9798,6.9798,6.9798,6.9798,6.9798,6.9798,7.0328,7.1024,7.1786,7.2712,7.3541,7.4023,7.5264,7.6722,7.8212,7.8477,7.8511,7.8511,7.9206,7.9935,8.0598,8.1393,8.2154,8.2817,8.2883,8.2883,8.2883,8.2883,8.2883,8.2883,8.2883,8.2883,8.2883,8.2883,8.2883,8.2883,8.3165,8.3165,8.2883,8.3165,8.3276,8.3276,8.3609,8.3884,8.4156,8.4156,8.4319,8.4553,8.4553,8.4553,8.464,8.464,8.464,8.464,8.464,8.464,8.464,8.464,8.464,8.464,8.464,8.464,8.464,8.464,8.464,8.4471,8.3761,8.3016,8.2408,8.2408,8.1325,8.0209,8.0209,8.0209,8.0209,8.0209,8.0209,8.0209,8.0209,8.0209,8.0209,8.0209,8.0209,8.0209,8.0209,8.0209,8.0209,8.0209,8.0209,8.0209,8.0209,8.0209,8.0209,8.0209,8.0209,8.0209,8.0209,8.0209,8.0209,8.0209,8.0209,8.0209,8.0209,8.0209,8.0209,8.0209,8.0209,8.0209,8.0209,8.0209,8.0209,6.9301,6.9798,6.9798,6.9798,6.9798,6.9798,6.9798,7.0361,7.1123,7.1852,7.2778,7.4056,7.5739,7.6873,7.7874,7.8908,7.8883,7.8777,7.8777,7.9248,7.9902,8.0598,8.1326,8.2088,8.2817,8.2883,8.2883,8.2883,8.2883,8.2883,8.2883,8.2883,8.2883,8.2883,8.2883,8.2883,8.2883,8.3165,8.3276,8.3165,8.3443,8.3609,8.3609,8.3939,8.4102,8.4211,8.4372,8.4533,8.464,8.464,8.464,8.464,8.464,8.464,8.464,8.464,8.464,8.464,8.464,8.464,8.464,8.464,8.464,8.464,8.464,8.464,8.4471,8.3693,8.2983,8.2306,8.1832,8.0953,8.0209,8.0209,8.0209,8.0209,8.0209,8.0209,8.0209,8.0209,8.0209,8.0209,8.0209,8.0209,8.0209,8.0209,8.0209,8.0209,8.0209,8.0209,8.0209,8.0209,8.0209,8.0209,8.0209,8.0209,8.0209,8.0209,8.0209,8.0209,8.0209,8.0209,8.0209,8.0209,8.0209,8.0209,8.0209,8.0209,8.0209,8.0209,8.0209,8.0209,6.9156,6.9798,6.9798,6.9798,6.9798,6.9864,7.0096,7.0726,7.1388,7.1983,7.3291,7.4905,7.6978,7.7832,7.8518,7.9288,7.9232,7.9041,7.9041,7.9209,7.9712,8.0729,8.1183,8.1823,8.2817,8.2883,8.2883,8.2883,8.2883,8.2883,8.2883,8.2883,8.2883,8.2883,8.2883,8.294,8.2996,8.3332,8.3499,8.3609,8.3939,8.3993,8.3939,8.4211,8.4319,8.4372,8.4533,8.464,8.464,8.464,8.464,8.464,8.464,8.464,8.464,8.464,8.464,8.464,8.464,8.464,8.464,8.464,8.464,8.464,8.464,8.464,8.4437,8.3422,8.278,8.2171,8.119,8.0581,8.0209,8.0209,8.0209,8.0209,8.0209,8.0209,8.0209,8.0209,8.0209,8.0209,8.0209,8.0209,8.0209,8.0209,8.0209,8.0209,8.0209,8.0209,8.0209,8.0209,8.0209,8.0209,8.0209,8.0209,8.0209,8.0209,8.0209,8.0209,8.0209,8.0209,8.0209,8.0209,8.0209,8.0209,8.0209,8.0209,8.0209,8.0209,8.0209,8.0209,6.9156,6.9798,6.9798,6.9798,6.9798,6.9997,7.0726,7.1455,7.2116,7.2408,7.4386,7.6408,7.7396,7.8018,7.8551,7.9288,7.9388,7.9388,7.9388,7.9094,7.9469,8.0934,8.0883,8.126,8.2751,8.2916,8.2916,8.2883,8.2916,8.2916,8.2883,8.2883,8.2883,8.2883,8.2883,8.2996,8.3276,8.3609,8.3939,8.4211,8.448,8.448,8.4211,8.448,8.464,8.464,8.464,8.464,8.464,8.464,8.464,8.464,8.464,8.464,8.464,8.464,8.464,8.464,8.464,8.464,8.464,8.464,8.464,8.464,8.464,8.464,8.4302,8.2847,8.2408,8.2069,8.0581,8.0209,8.0209,8.0209,8.0209,8.0209,8.0209,8.0209,8.0209,8.0209,8.0209,8.0209,8.0209,8.0209,8.0209,8.0209,8.0209,8.0209,8.0209,8.0209,8.0209,8.0209,8.0209,8.0209,8.0209,8.0209,8.0209,8.0209,8.0209,8.0209,8.0209,8.0209,8.0209,8.0209,8.0209,8.0209,8.0209,8.0209,8.0209,8.0209,8.0209,8.0209,6.8204,6.9204,6.9798,6.9798,6.9798,6.9997,7.0726,7.1455,7.243,7.3903,7.5672,7.7061,7.7745,7.8875,7.9685,7.9921,7.9801,7.9699,7.9699,7.944,7.9819,8.129,8.135,8.1897,8.3421,8.3554,8.3443,8.322,8.3388,8.3332,8.2883,8.3052,8.3108,8.2916,8.2883,8.294,8.2996,8.3554,8.3829,8.3939,8.4372,8.4587,8.4446,8.4553,8.464,8.464,8.464,8.464,8.464,8.464,8.464,8.464,8.464,8.464,8.464,8.464,8.464,8.464,8.464,8.464,8.464,8.464,8.464,8.464,8.464,8.464,8.4302,8.2847,8.2408,8.2069,8.0581,8.0209,8.0209,8.0209,8.0209,8.0209,8.0209,8.0209,8.0209,8.0209,8.0209,8.0209,8.0209,8.0209,8.0209,8.0209,8.0209,8.0209,8.0209,8.0209,8.0209,8.0209,8.0209,8.0209,8.0209,8.0209,8.0209,8.0209,8.0209,8.0209,8.0209,8.0209,8.0209,8.0209,8.0209,8.0209,8.0209,8.0209,8.0209,8.0209,8.0209,8.0209,6.777,6.8928,6.9798,6.9798,6.9798,7.0063,7.109,7.2016,7.3042,7.4685,7.624,7.748,7.7927,7.9194,8.0209,8.0209,8.0057,7.9955,7.9955,7.975,7.998,8.1188,8.1451,8.2033,8.3239,8.3607,8.372,8.3499,8.3665,8.3554,8.3108,8.322,8.3165,8.2916,8.2883,8.294,8.3052,8.3554,8.3829,8.3993,8.4426,8.464,8.464,8.464,8.464,8.464,8.464,8.464,8.464,8.464,8.464,8.464,8.464,8.464,8.464,8.464,8.464,8.464,8.464,8.464,8.464,8.464,8.464,8.464,8.464,8.4403,8.393,8.2746,8.2205,8.1697,8.0513,8.0209,8.0209,8.0209,8.0209,8.0209,8.0209,8.0209,8.0209,8.0209,8.0209,8.0209,8.0209,8.0209,8.0209,8.0209,8.0209,8.0209,8.0209,8.0209,8.0209,8.0209,8.0209,8.0209,8.0209,8.0209,8.0209,8.0209,8.0209,8.0209,8.0209,8.0209,8.0209,8.0209,8.0209,8.0209,8.0209,8.0209,8.0209,8.0209,8.0209,8.0209,6.7668,6.883,6.9798,6.9798,6.9898,7.0361,7.1686,7.2811,7.3822,7.4785,7.6339,7.763,7.7927,7.9194,8.0209,8.0209,8.0209,8.0209,8.0209,8.0006,8.0122,8.0811,8.1274,8.1906,8.2657,8.3381,8.3817,8.3829,8.3829,8.3665,8.3332,8.3332,8.3165,8.2916,8.2883,8.2996,8.3276,8.3609,8.3939,8.4156,8.448,8.464,8.464,8.464,8.464,8.464,8.464,8.464,8.464,8.464,8.464,8.464,8.464,8.464,8.464,8.464,8.464,8.464,8.464,8.464,8.464,8.464,8.464,8.464,8.464,8.4099,8.3355,8.2611,8.1866,8.1122,8.0378,8.0209,8.0209,8.0209,8.0209,8.0209,8.0209,8.0209,8.0209,8.0209,8.0209,8.0209,8.0209,8.0209,8.0209,8.0209,8.0209,8.0209,8.0209,8.0209,8.0209,8.0209,8.0209,8.0209,8.0209,8.0209,8.0209,8.0209,8.0209,8.0209,8.0209,8.0209,8.0209,8.0209,8.0209,8.0209,8.0209,8.0209,8.0209,8.0209,8.0209,8.0209,6.669,6.8254,6.9798,6.9798,7.0659,7.162,7.1918,7.3061,7.4223,7.4886,7.624,7.743,7.7927,7.9194,8.0209,8.0209,8.0209,8.0209,8.0209,8.0158,8.0378,8.1121,8.1272,8.188,8.3231,8.3501,8.3732,8.4123,8.4102,8.3884,8.3332,8.3332,8.3165,8.2916,8.2883,8.294,8.2996,8.3499,8.3829,8.3884,8.4372,8.464,8.464,8.464,8.464,8.464,8.464,8.464,8.464,8.464,8.464,8.464,8.464,8.464,8.464,8.464,8.464,8.464,8.464,8.464,8.464,8.464,8.464,8.464,8.464,8.4099,8.3355,8.2611,8.1866,8.1122,8.0378,8.0209,8.0209,8.0209,8.0209,8.0209,8.0209,8.0209,8.0209,8.0209,8.0209,8.0209,8.0209,8.0209,8.0209,8.0209,8.0209,8.0209,8.0209,8.0209,8.0209,8.0209,8.0209,8.0209,8.0209,8.0209,8.0209,8.0209,8.0209,8.0209,8.0209,8.0209,8.0209,8.0209,8.0209,8.0209,8.0209,8.0209,8.0209,8.0209,8.0209,8.0209,6.6375,6.8054,6.9798,6.9798,7.0924,7.2018,7.2018,7.3111,7.4322,7.4722,7.609,7.7346,7.7878,7.9194,8.0209,8.0209,8.0209,8.0209,8.0209,8.0209,8.0344,8.0716,8.1088,8.1596,8.2374,8.3084,8.3606,8.3853,8.4224,8.4156,8.3554,8.3665,8.3499,8.2916,8.2996,8.3108,8.3108,8.3554,8.3884,8.3993,8.4426,8.464,8.464,8.464,8.464,8.464,8.464,8.464,8.464,8.464,8.464,8.464,8.464,8.464,8.464,8.464,8.464,8.464,8.464,8.464,8.464,8.464,8.464,8.464,8.464,8.3862,8.2881,8.2509,8.1596,8.0682,8.031,8.0209,8.0209,8.0209,8.0209,8.0209,8.0209,8.0209,8.0209,8.0209,8.0209,8.0209,8.0209,8.0209,8.0209,8.0209,8.0209,8.0209,8.0209,8.0209,8.0209,8.0209,8.0209,8.0209,8.0209,8.0209,8.0209,8.0209,8.0209,8.0209,8.0209,8.0209,8.0209,8.0209,8.0209,8.0209,8.0209,8.0209,8.0209,8.0209,8.0209,8.0209,6.6164,6.7802,6.9574,6.9751,7.0924,7.2018,7.2018,7.3111,7.4272,7.4523,7.599,7.738,7.7828,7.9144,8.0209,8.0209,8.0209,8.0209,8.0209,8.0209,8.0209,8.0209,8.0716,8.1156,8.1257,8.2509,8.3355,8.349,8.4147,8.4372,8.3884,8.4048,8.3829,8.3052,8.3276,8.3388,8.3388,8.372,8.3993,8.4211,8.4446,8.464,8.464,8.464,8.464,8.464,8.464,8.464,8.464,8.464,8.464,8.464,8.464,8.464,8.464,8.464,8.464,8.464,8.464,8.464,8.464,8.464,8.464,8.464,8.464,8.3592,8.2408,8.2408,8.1359,8.0209,8.0209,8.0209,8.0209,8.0209,8.0209,8.0209,8.0209,8.0209,8.0209,8.0209,8.0209,8.0209,8.0209,8.0209,8.0209,8.0209,8.0209,8.0209,8.0209,8.0209,8.0209,8.0209,8.0209,8.0209,8.0209,8.0209,8.0209,8.0209,8.0209,8.0209,8.0209,8.0209,8.0209,8.0209,8.0209,8.0209,8.0209,8.0209,8.0209,8.0209,8.0209,8.0209,6.5196,6.6606,6.8552,6.9574,7.0924,7.2018,7.2018,7.3111,7.4272,7.4523,7.599,7.7279,7.758,7.9044,8.0209,8.0209,8.0209,8.0209,8.0209,8.0209,8.0209,8.0209,8.0276,8.0581,8.1224,8.2069,8.2813,8.3456,8.3988,8.4211,8.4156,8.3939,8.3775,8.3665,8.372,8.372,8.372,8.3993,8.4156,8.4211,8.4446,8.464,8.464,8.464,8.464,8.464,8.464,8.464,8.464,8.464,8.464,8.464,8.464,8.464,8.464,8.464,8.464,8.464,8.464,8.464,8.464,8.464,8.464,8.464,8.464,8.3592,8.2408,8.2408,8.1359,8.0209,8.0209,8.0209,8.0209,8.0209,8.0209,8.0209,8.0209,8.0209,8.0209,8.0209,8.0209,8.0209,8.0209,8.0209,8.0209,8.0209,8.0209,8.0209,8.0209,8.0209,8.0209,8.0209,8.0209,8.0209,8.0209,8.0209,8.0209,8.0209,8.0209,8.0209,8.0209,8.0209,8.0209,8.0209,8.0209,8.0209,8.0209,8.0209,8.0209,8.0209,8.0209,8.0209,6.6396,6.7362,6.8354,6.9526,7.0924,7.2018,7.2018,7.3111,7.4221,7.4322,7.5405,7.6626,7.7463,7.8656,7.9735,8.0141,8.0209,8.0209,8.0209,8.0209,8.0209,8.0209,8.0209,8.031,8.0648,8.1359,8.2103,8.2847,8.3452,8.39,8.4177,8.4265,8.4102,8.3829,8.3939,8.4048,8.4048,8.4156,8.4265,8.4426,8.45,8.464,8.464,8.464,8.464,8.464,8.464,8.464,8.464,8.464,8.464,8.464,8.464,8.464,8.464,8.464,8.464,8.464,8.464,8.464,8.464,8.464,8.464,8.464,8.464,8.3592,8.2408,8.2408,8.1359,8.0209,8.0209,8.0209,8.0209,8.0209,8.0209,8.0209,8.0209,8.0209,8.0209,8.0209,8.0209,8.0209,8.0209,8.0209,8.0209,8.0209,8.0209,8.0209,8.0209,8.0209,8.0209,8.0209,8.0209,8.0209,8.0209,8.0209,8.0209,8.0209,8.0209,8.0209,8.0209,8.0209,8.0209,8.0209,8.0209,8.0209,8.0209,8.0209,8.0209,8.0209,8.0209,8.0209,6.7414,6.7871,6.7971,6.943,7.0924,7.2018,7.2018,7.3111,7.4221,7.4221,7.4855,7.5756,7.6927,7.8185,7.9229,8.0073,8.0209,8.0209,8.0209,8.0209,8.0209,8.0209,8.0209,8.0209,8.0209,8.0851,8.1528,8.2069,8.2983,8.3621,8.3982,8.4379,8.4426,8.4048,8.4211,8.4319,8.4319,8.4319,8.4426,8.464,8.464,8.464,8.464,8.464,8.464,8.464,8.464,8.464,8.464,8.464,8.464,8.464,8.464,8.464,8.464,8.464,8.464,8.464,8.464,8.464,8.464,8.464,8.464,8.464,8.464,8.3592,8.2408,8.2408,8.1359,8.0209,8.0209,8.0209,8.0209,8.0209,8.0209,8.0209,8.0209,8.0209,8.0209,8.0209,8.0209,8.0209,8.0209,8.0209,8.0209,8.0209,8.0209,8.0209,8.0209,8.0209,8.0209,8.0209,8.0209,8.0209,8.0209,8.0209,8.0209,8.0209,8.0209,8.0209,8.0209,8.0378,8.0479,8.0479,8.0648,8.0581,8.0209,8.0378,8.0479,8.0479,8.0682,8.075,6.7208,6.7311,6.7002,6.9252,7.0924,7.2018,7.2018,7.3111,7.4221,7.4221,7.4456,7.4872,7.5622,7.7413,7.9028,8.0023,8.0209,8.0209,8.0209,8.0209,8.0209,8.0209,8.0209,8.0209,8.0209,8.0851,8.1291,8.1325,8.2678,8.3524,8.3558,8.4234,8.4587,8.4587,8.4553,8.4587,8.4587,8.4587,8.4587,8.464,8.464,8.464,8.464,8.464,8.464,8.464,8.464,8.464,8.464,8.464,8.464,8.464,8.464,8.464,8.464,8.464,8.464,8.464,8.464,8.464,8.464,8.464,8.464,8.464,8.464,8.3592,8.2408,8.2408,8.1359,8.0209,8.0209,8.0209,8.0209,8.0209,8.0209,8.0209,8.0209,8.0209,8.0209,8.0209,8.0209,8.0209,8.0209,8.0209,8.0209,8.0209,8.0209,8.0209,8.0209,8.0209,8.0209,8.0209,8.0209,8.0209,8.0209,8.0209,8.0209,8.0209,8.0209,8.0209,8.0209,8.0851,8.1224,8.1224,8.1934,8.1596,8.0209,8.0885,8.1224,8.1257,8.1968,8.2306,6.5413,6.6164,6.6794,6.8304,7.0009,7.1421,7.1885,7.278,7.3608,7.4072,7.4272,7.4605,7.5538,7.6927,7.827,7.9112,7.977,8.0209,8.0209,8.0209,8.0209,8.0209,8.0209,8.0209,8.0209,8.0445,8.0784,8.1257,8.1765,8.2475,8.3456,8.3761,8.4133,8.4606,8.464,8.464,8.464,8.464,8.464,8.464,8.464,8.464,8.464,8.464,8.464,8.464,8.464,8.464,8.464,8.464,8.464,8.464,8.464,8.464,8.464,8.464,8.464,8.464,8.464,8.464,8.464,8.464,8.464,8.464,8.464,8.3592,8.2408,8.2408,8.1359,8.0209,8.0209,8.0209,8.0209,8.0209,8.0209,8.0209,8.0209,8.0209,8.0209,8.0209,8.0209,8.0209,8.0209,8.0209,8.0209,8.0209,8.0209,8.0209,8.0209,8.0209,8.0209,8.0209,8.0209,8.0209,8.0209,8.0209,8.0209,8.0209,8.0648,8.0885,8.0885,8.1596,8.2002,8.2002,8.2272,8.2137,8.1629,8.1866,8.2002,8.2002,8.2272,8.2408,6.4432,6.5521,6.669,6.782,6.9485,7.109,7.1819,7.2581,7.331,7.4038,7.4221,7.4405,7.5054,7.6157,7.7346,7.8523,7.955,8.0209,8.0209,8.0209,8.0209,8.0209,8.0209,8.0209,8.0209,8.0209,8.0412,8.0885,8.1156,8.1832,8.3084,8.3355,8.3862,8.4606,8.464,8.464,8.464,8.464,8.464,8.464,8.464,8.464,8.464,8.464,8.464,8.464,8.464,8.464,8.464,8.464,8.464,8.464,8.464,8.464,8.464,8.464,8.464,8.464,8.464,8.464,8.464,8.464,8.464,8.464,8.464,8.3592,8.2408,8.2408,8.1359,8.0209,8.0209,8.0209,8.0209,8.0209,8.0209,8.0209,8.0209,8.0209,8.0209,8.0209,8.0209,8.0209,8.0209,8.0209,8.0209,8.0209,8.0209,8.0209,8.0209,8.0209,8.0209,8.0209,8.0209,8.0209,8.0209,8.0412,8.0547,8.0547,8.1257,8.1663,8.1663,8.2374,8.278,8.278,8.3016,8.3152,8.3152,8.2915,8.278,8.278,8.3016,8.3152,0.0,0.0,0.0,6.782,6.9485,7.1057,7.1786,7.2548,7.3276,7.4005,7.4188,7.4221,7.4221,7.5021,7.6341,7.8253,7.9466,8.0175,8.0209,8.0209,8.0209,8.0209,8.0209,8.0209,8.0209,8.0209,8.0209,8.0209,8.0851,8.1596,8.234,8.3084,8.3862,8.4606,8.464,8.464,8.464,8.464,8.464,8.464,8.464,8.464,8.464,8.464,8.464,8.464,8.464,8.464,8.464,8.464,8.464,8.464,8.464,8.464,8.464,8.464,8.464,8.464,8.464,8.464,8.464,8.464,8.464,8.464,8.464,8.3592,8.2408,8.2408,8.1359,8.0209,8.0209,8.0209,8.0209,8.0209,8.0209,8.0209,8.0209,8.0209,8.0209,8.0209,8.0209,8.0209,8.0209,8.0209,8.0209,8.0209,8.0209,8.0209,8.0209,8.0209,8.0209,8.0209,8.0209,8.0242,8.0242,8.0885,8.1325,8.1325,8.2035,8.2441,8.2441,8.3152,8.3524,8.3524,8.4268,8.464,8.464,8.3896,8.3524,8.3558,8.4302,8.464,6.4432,0.0,0.0,0.0,0.0,0.0,7.1024,7.1786,7.2515,7.3243,7.3807,7.4221,7.4221,7.5021,7.5906,7.6458,7.8001,7.9314,7.9836,8.0107,8.0209,8.0209,8.0209,8.0209,8.0209,8.0209,8.0209,8.0209,8.0378,8.0818,8.1562,8.2813,8.3862,8.4606,8.464,8.464,8.464,8.464,8.464,8.464,8.464,8.464,8.464,8.464,8.464,8.464,8.464,8.464,8.464,8.464,8.464,8.464,8.464,8.464,8.464,8.464,8.464,8.464,8.464,8.464,8.464,8.464,8.464,8.464,8.464,8.3592,8.2408,8.2408,8.1359,8.0209,8.0209,8.0209,8.0209,8.0209,8.0209,8.0209,8.0209,8.0209,8.0209,8.0209,8.0209,8.0209,8.0209,8.0209,8.0209,8.0209,8.0209,8.0209,8.0209,8.0209,8.0209,8.0209,8.0682,8.0987,8.0987,8.1663,8.2103,8.2103,8.278,8.3186,8.3186,8.393,8.4302,8.4302,8.4505,8.464,8.464,8.4403,8.4302,8.4302,8.4539,8.464,6.3845,6.5227,6.6585,6.7208,0.0,0.0,7.1123,7.1686,7.2316,7.3343,7.3873,7.4221,7.4221,7.4654,7.5154,7.5453,7.6625,7.7866,7.9043,7.9651,8.0057,8.0057,8.0158,8.0209,8.0209,8.0209,8.0209,8.0209,8.0209,8.0513,8.1257,8.2678,8.3693,8.4133,8.4471,8.464,8.464,8.464,8.464,8.464,8.464,8.464,8.464,8.464,8.464,8.464,8.464,8.464,8.464,8.464,8.464,8.464,8.464,8.464,8.464,8.464,8.464,8.464,8.464,8.464,8.464,8.464,8.464,8.464,8.464,8.3592,8.2408,8.2408,8.1359,8.0209,8.0209,8.0209,8.0209,8.0209,8.0209,8.0209,8.0209,8.0209,8.0209,8.0209,8.0209,8.0209,8.0209,8.0209,8.0209,8.0209,8.0209,8.0209,8.0209,8.0479,8.0648,8.0648,8.1325,8.1765,8.1765,8.2441,8.2881,8.2881,8.3558,8.3964,8.3964,8.4403,8.464,8.464,8.464,8.464,8.464,8.464,8.464,8.464,8.464,8.464,6.3451,6.5009,6.6638,6.6742,6.8304,0.0,7.1554,7.1951,7.2382,7.3773,7.4155,7.4221,7.4221,7.4221,7.442,7.5083,7.5453,7.6273,7.8031,7.9058,7.9701,7.9801,8.0057,8.0209,8.0209,8.0209,8.0209,8.0209,8.0209,8.0513,8.1257,8.2543,8.3287,8.3389,8.4031,8.437,8.437,8.4471,8.4505,8.4505,8.4573,8.464,8.464,8.464,8.464,8.464,8.464,8.464,8.464,8.464,8.464,8.464,8.464,8.464,8.464,8.464,8.464,8.464,8.464,8.464,8.464,8.464,8.464,8.464,8.464,8.3592,8.2374,8.2205,8.1224,8.0209,8.0209,8.0209,8.0209,8.0209,8.0209,8.0209,8.0209,8.0209,8.0209,8.0209,8.0209,8.0209,8.0209,8.0209,8.0209,8.0209,8.0276,8.031,8.031,8.0953,8.1393,8.1393,8.2069,8.2543,8.2543,8.3186,8.3625,8.3625,8.4268,8.464,8.464,8.464,8.464,8.464,8.464,8.464,8.464,8.464,8.464,8.464,8.464,8.464,6.5521,6.6742,6.7971,6.8912,6.9478,0.0,7.0924,7.1587,7.225,7.3144,7.3773,7.4221,7.4221,7.4221,7.4255,7.442,7.4951,7.6,7.7722,7.852,7.9128,7.9734,8.0057,8.0209,8.0209,8.0209,8.0209,8.0209,8.0209,8.0513,8.1257,8.1562,8.2002,8.2611,8.278,8.2847,8.2847,8.3422,8.3727,8.3727,8.4336,8.464,8.464,8.464,8.464,8.464,8.464,8.464,8.464,8.464,8.464,8.464,8.464,8.464,8.464,8.464,8.464,8.464,8.464,8.464,8.464,8.464,8.464,8.464,8.464,8.3592,8.2171,8.0953,8.0412,8.0209,8.0209,8.0209,8.0209,8.0209,8.0209,8.0209,8.0209,8.0209,8.0209,8.0209,8.0209,8.0209,8.0209,8.0209,8.0209,8.0209,8.0716,8.1088,8.1088,8.1731,8.2205,8.2205,8.2847,8.3287,8.3287,8.3964,8.4403,8.4403,8.4539,8.464,8.464,8.464,8.464,8.464,8.464,8.464,8.464,8.464,8.464,8.464,8.464,8.464,6.7202,6.8316,6.9325,6.991,7.0469,0.0,0.0,7.2283,7.2746,7.3475,7.3906,7.4221,7.4221,7.4221,7.4221,7.4221,7.452,7.515,7.6432,7.7712,7.8756,7.9495,7.9955,8.0209,8.0209,8.0209,8.0209,8.0209,8.0209,8.0344,8.0716,8.1088,8.146,8.1832,8.2205,8.2408,8.2408,8.278,8.2949,8.2949,8.3355,8.3524,8.3524,8.3524,8.3727,8.4065,8.4065,8.4268,8.464,8.464,8.464,8.464,8.464,8.464,8.464,8.464,8.464,8.464,8.464,8.464,8.464,8.464,8.464,8.464,8.464,8.3592,8.2103,8.0615,8.0209,8.0209,8.0209,8.0209,8.0209,8.0209,8.0209,8.0209,8.0209,8.0209,8.0209,8.0209,8.0479,8.0615,8.0242,8.0513,8.075,8.075,8.1359,8.1832,8.1832,8.2475,8.2949,8.2949,8.3625,8.4065,8.4065,8.4403,8.464,8.464,8.464,8.464,8.464,8.464,8.464,8.464,8.464,8.464,8.464,8.464,8.464,8.464,8.464,8.464,6.8644,6.9741,7.0634,7.0634,7.1357,7.2183,0.0,0.0,0.0,7.4038,7.4221,7.4221,7.4221,7.4221,7.4155,7.4005,7.4122,7.442,7.4966,7.6655,7.8132,7.9035,7.9752,8.0209,8.0158,8.0158,8.0209,8.0209,8.0209,8.0209,8.0209,8.075,8.1088,8.1088,8.1663,8.2002,8.2002,8.2137,8.2205,8.2205,8.234,8.2408,8.2408,8.2408,8.2746,8.3287,8.3287,8.3727,8.4403,8.4403,8.4505,8.464,8.464,8.464,8.464,8.464,8.464,8.464,8.464,8.464,8.464,8.464,8.464,8.4606,8.4437,8.3558,8.2306,8.0818,8.0412,8.0378,8.0242,8.0209,8.0209,8.0209,8.0209,8.0242,8.0378,8.0412,8.0445,8.0615,8.1088,8.1257,8.0547,8.1021,8.1494,8.1494,8.2137,8.2611,8.2611,8.3253,8.3693,8.3693,8.4268,8.464,8.464,8.464,8.464,8.464,8.464,8.464,8.464,8.464,8.464,8.464,8.464,8.464,8.464,8.464,8.464,8.464,8.464,8.464,7.0086,7.0971,7.1788,7.1788,7.1886,7.2183,7.2945,0.0,7.331,7.4038,0.0,7.4221,7.4221,0.0,0.0,7.3343,7.3773,7.4255,7.4321,7.5304,7.654,7.7889,7.9347,8.0107,7.9853,8.0057,8.0209,8.0209,8.0209,8.0209,8.0209,8.0276,8.031,8.031,8.0412,8.0445,8.0445,8.1088,8.1393,8.1426,8.2103,8.2408,8.2408,8.2408,8.2441,8.2543,8.2543,8.2949,8.3625,8.3625,8.4031,8.464,8.464,8.464,8.464,8.464,8.464,8.464,8.464,8.464,8.464,8.464,8.464,8.4505,8.3828,8.3524,8.305,8.1562,8.1156,8.1021,8.0378,8.0209,8.0209,8.0209,8.0209,8.0378,8.1021,8.1156,8.1359,8.2035,8.2238,8.2035,8.1291,8.1799,8.2272,8.2272,8.2915,8.3389,8.3389,8.4031,8.4505,8.4505,8.4573,8.464,8.464,8.464,8.464,8.464,8.464,8.464,8.464,8.464,8.464,8.464,8.464,8.464,8.464,8.464,8.464,8.464,8.464,8.464,7.2368,7.2909,7.3276,7.3276,7.3276,7.3343,7.3641,7.374,7.3807,7.4155,0.0,0.0,0.0,0.0,0.0,0.0,7.3972,7.4221,7.4221,7.5054,7.6122,7.7155,7.8488,7.95,8.0023,8.0158,8.0209,8.0209,8.0209,8.0209,8.0209,8.0209,8.0209,8.0209,8.0209,8.0209,8.0209,8.0513,8.0648,8.0648,8.0987,8.1122,8.1122,8.1122,8.1359,8.1765,8.1765,8.2171,8.2881,8.3321,8.3693,8.3998,8.4437,8.464,8.464,8.464,8.464,8.464,8.464,8.464,8.464,8.464,8.464,8.4471,8.3727,8.349,8.3287,8.2238,8.1934,8.1866,8.1562,8.1494,8.1494,8.1494,8.1494,8.1562,8.1866,8.1934,8.2035,8.234,8.2746,8.2949,8.2611,8.2813,8.305,8.305,8.3659,8.4167,8.4167,8.4437,8.464,8.464,8.464,8.464,8.464,8.464,8.464,8.464,8.464,8.464,8.464,8.464,8.464,8.464,8.464,8.464,8.464,8.464,8.464,8.464,8.464,8.464,7.3935,7.4221,7.4221,7.4221,7.4221,7.4221,7.4221,7.4221,7.4221,7.4221,7.4221,0.0,0.0,0.0,7.4155,7.3906,0.0,7.4155,7.3906,7.4705,7.5588,7.6269,7.7663,7.8842,7.9685,7.9972,8.0107,8.0209,8.0209,8.0209,8.0209,8.0209,8.0209,8.0209,8.0209,8.0209,8.0209,8.0209,8.0209,8.0209,8.0209,8.0209,8.0209,8.0209,8.0479,8.0987,8.0987,8.1426,8.2137,8.2678,8.3118,8.3558,8.4099,8.4437,8.464,8.464,8.464,8.464,8.464,8.464,8.464,8.464,8.464,8.4539,8.3964,8.3795,8.3659,8.2915,8.2712,8.2644,8.2475,8.2408,8.2408,8.2408,8.2408,8.2475,8.2678,8.2712,8.278,8.2983,8.3456,8.3795,8.3795,8.3795,8.3795,8.3795,8.4268,8.464,8.464,8.464,8.464,8.464,8.464,8.464,8.464,8.464,8.464,8.464,8.464,8.464,8.464,8.464,8.464,8.464,8.464,8.464,8.464,8.464,8.464,8.464,8.464,8.464,7.4171,7.4221,7.4221,7.4221,7.4221,7.4221,7.4221,7.4221,7.4221,7.4221,7.4221,7.4221,7.4221,7.4221,7.3939,7.3243,7.3707,0.0,0.0,7.374,7.452,7.5282,7.6901,7.8129,7.8691,7.9364,7.9904,8.0209,8.0209,8.0209,8.0209,8.0209,8.0209,8.0209,8.0209,8.0209,8.0209,8.0209,8.0209,8.0209,8.0209,8.0209,8.0209,8.0209,8.0209,8.0242,8.0242,8.0648,8.1325,8.1359,8.2205,8.349,8.3524,8.3964,8.464,8.464,8.464,8.464,8.464,8.464,8.464,8.464,8.464,8.464,8.4606,8.4573,8.4437,8.3659,8.3456,8.3287,8.2611,8.2408,8.2408,8.2408,8.2408,8.2611,8.3321,8.3456,8.3693,8.4403,8.4573,8.4573,8.4573,8.4573,8.4573,8.4573,8.4606,8.464,8.464,8.464,8.464,8.464,8.464,8.464,8.464,8.464,8.464,8.464,8.464,8.464,8.464,8.464,8.464,8.464,8.464,8.464,8.464,8.464,8.464,8.464,8.464,8.464,0.0,7.5264,7.4951,7.4951,7.4586,7.4221,7.4221,7.4221,7.4221,7.4221,7.4221,7.4221,7.4221,7.4221,7.4105,7.384,7.4005,7.4122,0.0,7.4005,7.4321,7.4553,7.5652,7.706,7.8539,7.8893,7.9415,8.0141,8.0209,8.0209,8.0209,8.0209,8.0209,8.0209,8.0209,8.0209,8.0209,8.0209,8.0209,8.0209,8.0209,8.0209,8.0209,8.0209,8.0209,8.0209,8.0209,8.0344,8.0615,8.1088,8.1562,8.2137,8.3118,8.3659,8.393,8.4437,8.464,8.464,8.464,8.464,8.464,8.464,8.464,8.464,8.464,8.464,8.4573,8.4302,8.4234,8.42,8.393,8.3862,8.3862,8.3862,8.3862,8.393,8.42,8.4234,8.4302,8.4573,8.464,8.464,8.464,8.464,8.464,8.464,8.464,8.464,8.464,8.464,8.464,8.464,8.464,8.464,8.464,8.464,8.464,8.464,8.464,8.464,8.464,8.464,8.464,8.464,8.464,8.464,8.464,8.464,8.464,8.464,8.464,8.464,7.6324,7.5993,0.0,7.5662,7.5297,7.4933,7.4933,7.4933,7.4933,7.4933,7.4734,7.4619,7.4619,7.4387,7.4221,7.4221,7.4221,7.4221,0.0,7.4221,7.4221,7.4221,7.5004,7.624,7.8001,7.8421,7.9044,8.0141,8.0209,8.0209,8.0209,8.0209,8.0209,8.0209,8.0209,8.0209,8.0209,8.0209,8.0209,8.0209,8.0209,8.0209,8.0209,8.0209,8.0209,8.0209,8.0209,8.0209,8.0242,8.0716,8.1054,8.1393,8.2644,8.3118,8.3219,8.4234,8.464,8.464,8.464,8.464,8.464,8.464,8.464,8.464,8.464,8.464,8.464,8.464,8.464,8.464,8.464,8.464,8.464,8.464,8.464,8.464,8.464,8.464,8.464,8.464,8.464,8.464,8.464,8.464,8.464,8.464,8.464,8.464,8.464,8.464,8.464,8.464,8.464,8.464,8.464,8.464,8.464,8.464,8.464,8.464,8.464,8.464,8.4742,8.5046,8.4776,8.4776,8.5046,8.4776,8.464,8.464,8.464,8.464]}]]